[[{"header":{"parameterUnit":"m.s-1","parameterCategory":1,"la1":30.6,"la2":28.766,"lo1":-90.7593,"lo2":-88.6598,"dy":0.0162,"dx":0.0183,"nx":116,"ny":114,"refTime":"2024-06-12T00:00:00:Z","depth":0,"parameterNumber":2,"parameterNumberName":"U-component_of_WINDS"},"data":[0.0,0.0,0.0,0.0,0.0,0.0,0.0,0.0,0.0,0.0,0.0,0.0,0.0,0.0,0.0,0.0,0.0,0.0,0.0,0.0,0.0,0.0,0.0,0.0,0.0,0.0,0.0,0.0,0.0,0.0,0.0,0.0,0.0,0.0,0.0,0.0,0.0,0.0,0.0,0.0,0.0,0.0,0.0,0.0,0.0,0.0,0.0,0.0,0.0,0.0,0.0,0.0,0.0,0.0,0.0,0.0,0.0,0.0,0.0,0.0,0.0,0.0,0.0,0.0,0.0,0.0,0.0,0.0,0.0,0.0,0.0,0.0,0.0,0.0,0.0,0.0,0.0,0.0,0.0,0.0,0.0,0.0,0.0,0.0,0.0,0.0,0.0,0.0,0.0,0.0,0.0,0.0,0.0,0.0,0.0,0.0,0.0,0.0,0.0,0.0,0.0,0.0,0.0,0.0,0.0,0.0,0.0,0.0,0.0,0.0,0.0,0.0,0.0,0.0,0.0,0.0,0.0,0.0,0.0,0.0,0.0,0.0,0.0,0.0,0.0,0.0,0.0,0.0,0.0,0.0,0.0,0.0,0.0,0.0,0.0,0.0,0.0,0.0,0.0,0.0,0.0,0.0,0.0,0.0,0.0,0.0,0.0,0.0,0.0,0.0,0.0,0.0,0.0,0.0,0.0,0.0,0.0,0.0,0.0,0.0,0.0,0.0,0.0,0.0,0.0,0.0,0.0,0.0,0.0,0.0,0.0,0.0,0.0,0.0,0.0,0.0,0.0,0.0,0.0,0.0,0.0,0.0,0.0,0.0,0.0,0.0,0.0,0.0,0.0,0.0,0.0,0.0,0.0,0.0,0.0,0.0,0.0,0.0,0.0,0.0,0.0,0.0,0.0,0.0,0.0,0.0,0.0,0.0,0.0,0.0,0.0,0.0,0.0,0.0,0.0,0.0,0.0,0.0,0.0,0.0,0.0,0.0,0.0,0.0,0.0,0.0,0.0,0.0,0.0,0.0,0.0,0.0,0.0,0.0,0.0,0.0,0.0,0.0,0.0,0.0,0.0,0.0,0.0,0.0,0.0,0.0,0.0,0.0,0.0,0.0,0.0,0.0,0.0,0.0,0.0,0.0,0.0,0.0,0.0,0.0,0.0,0.0,0.0,0.0,0.0,0.0,0.0,0.0,0.0,0.0,0.0,0.0,0.0,0.0,0.0,0.0,0.0,0.0,0.0,0.0,0.0,0.0,0.0,0.0,0.0,0.0,0.0,0.0,0.0,0.0,0.0,0.0,0.0,0.0,0.0,0.0,0.0,0.0,0.0,0.0,0.0,0.0,0.0,0.0,0.0,0.0,0.0,0.0,0.0,0.0,0.0,0.0,0.0,0.0,0.0,0.0,0.0,0.0,0.0,0.0,0.0,0.0,0.0,0.0,0.0,0.0,0.0,0.0,0.0,0.0,0.0,0.0,0.0,0.0,0.0,0.0,0.0,0.0,0.0,0.0,0.0,0.0,0.0,0.0,0.0,0.0,0.0,0.0,0.0,0.0,0.0,0.0,0.0,0.0,0.0,0.0,0.0,0.0,0.0,0.0,0.0,0.0,0.0,0.0,0.0,0.0,0.0,0.0,0.0,0.0,0.0,0.0,0.0,0.0,0.0,0.0,0.0,0.0,0.0,0.0,0.0,0.0,0.0,0.0,0.0,0.0,0.0,0.0,0.0,0.0,0.0,0.0,0.0,0.0,0.0,0.0,0.0,0.0,0.0,0.0,0.0,0.0,0.0,0.0,0.0,0.0,0.0,0.0,0.0,0.0,0.0,0.0,0.0,0.0,0.0,0.0,0.0,0.0,0.0,0.0,0.0,0.0,0.0,0.0,0.0,0.0,0.0,0.0,0.0,0.0,0.0,0.0,0.0,0.0,0.0,0.0,0.0,0.0,0.0,0.0,0.0,0.0,0.0,0.0,0.0,0.0,0.0,0.0,0.0,0.0,0.0,0.0,0.0,0.0,0.0,0.0,0.0,0.0,0.0,0.0,0.0,0.0,0.0,0.0,0.0,0.0,0.0,0.0,0.0,0.0,0.0,0.0,0.0,0.0,0.0,0.0,0.0,0.0,0.0,0.0,0.0,0.0,0.0,0.0,0.0,0.0,0.0,0.0,0.0,0.0,0.0,0.0,0.0,0.0,0.0,0.0,0.0,0.0,0.0,0.0,0.0,0.0,0.0,0.0,0.0,0.0,0.0,0.0,0.0,0.0,0.0,0.0,0.0,0.0,0.0,0.0,0.0,0.0,0.0,0.0,0.0,0.0,0.0,0.0,0.0,0.0,0.0,0.0,0.0,0.0,0.0,0.0,0.0,0.0,0.0,0.0,0.0,0.0,0.0,0.0,0.0,0.0,0.0,0.0,0.0,0.0,0.0,0.0,0.0,0.0,0.0,0.0,0.0,0.0,0.0,0.0,0.0,0.0,0.0,0.0,0.0,0.0,0.0,0.0,0.0,0.0,0.0,0.0,0.0,0.0,0.0,0.0,0.0,0.0,0.0,0.0,0.0,0.0,0.0,0.0,0.0,0.0,0.0,0.0,0.0,0.0,0.0,0.0,0.0,0.0,0.0,0.0,0.0,0.0,0.0,0.0,0.0,0.0,0.0,0.0,0.0,0.0,0.0,0.0,0.0,0.0,0.0,0.0,0.0,0.0,0.0,0.0,0.0,0.0,0.0,0.0,0.0,0.0,0.0,0.0,0.0,0.0,0.0,0.0,0.0,0.0,0.0,0.0,0.0,0.0,0.0,0.0,0.0,0.0,0.0,0.0,0.0,0.0,0.0,0.0,0.0,0.0,0.0,0.0,0.0,0.0,0.0,0.0,0.0,0.0,0.0,0.0,0.0,0.0,0.0,0.0,0.0,0.0,0.0,0.0,0.0,0.0,0.0,0.0,0.0,0.0,0.0,0.0,0.0,0.0,0.0,0.0,0.0,0.0,0.0,0.0,0.0,0.0,0.0,0.0,0.0,0.0,0.0,0.0,0.0,0.0,0.0,0.0,0.0,0.0,0.0,0.0,0.0,0.0,0.0,0.0,0.0,0.0,0.0,0.0,0.0,0.0,0.0,0.0,0.0,0.0,0.0,0.0,0.0,0.0,0.0,0.0,0.0,0.0,0.0,0.0,0.0,0.0,0.0,0.0,0.0,0.0,0.0,0.0,0.0,0.0,0.0,0.0,0.0,0.0,0.0,0.0,0.0,0.0,0.0,0.0,0.0,0.0,0.0,0.0,0.0,0.0,0.0,0.0,0.0,0.0,0.0,0.0,0.0,0.0,0.0,0.0,0.0,0.0,0.0,0.0,0.0,0.0,0.0,0.0,0.0,0.0,0.0,0.0,0.0,0.0,0.0,0.0,0.0,0.0,0.0,0.0,0.0,0.0,0.0,0.0,0.0,0.0,0.0,0.0,0.0,0.0,0.0,0.0,0.0,0.0,0.0,0.0,0.0,0.0,0.0,0.0,0.0,0.0,0.0,0.0,0.0,0.0,0.0,0.0,0.0,0.0,0.0,0.0,0.0,0.0,0.0,0.0,0.0,0.0,0.0,0.0,0.0,0.0,0.0,0.0,0.0,0.0,0.0,0.0,0.0,0.0,0.0,0.0,0.0,0.0,0.0,0.0,0.0,0.0,0.0,0.0,0.0,0.0,0.0,0.0,0.0,0.0,0.0,0.0,0.0,0.0,0.0,0.0,0.0,0.0,0.0,0.0,0.0,0.0,0.0,0.0,0.0,0.0,0.0,0.0,0.0,0.0,0.0,0.0,0.0,0.0,0.0,0.0,0.0,0.0,0.0,0.0,0.0,0.0,0.0,0.0,0.0,0.0,0.0,0.0,0.0,0.0,0.0,0.0,0.0,0.0,0.0,0.0,0.0,0.0,0.0,0.0,0.0,0.0,0.0,0.0,0.0,0.0,0.0,0.0,0.0,0.0,0.0,0.0,0.0,0.0,0.0,0.0,0.0,0.0,0.0,0.0,0.0,0.0,0.0,0.0,0.0,0.0,0.0,0.0,0.0,0.0,0.0,0.0,0.0,0.0,0.0,0.0,0.0,0.0,0.0,0.0,0.0,0.0,0.0,0.0,0.0,0.0,0.0,0.0,0.0,0.0,0.0,0.0,0.0,0.0,0.0,0.0,0.0,0.0,0.0,0.0,0.0,0.0,0.0,0.0,0.0,0.0,0.0,0.0,0.0,0.0,0.0,0.0,0.0,0.0,0.0,0.0,0.0,0.0,0.0,0.0,0.0,0.0,0.0,0.0,0.0,0.0,0.0,0.0,0.0,0.0,0.0,0.0,0.0,0.0,0.0,0.0,0.0,0.0,0.0,0.0,0.0,0.0,0.0,0.0,0.0,0.0,0.0,0.0,0.0,0.0,0.0,0.0,0.0,0.0,0.0,0.0,0.0,0.0,0.0,0.0,0.0,0.0,0.0,0.0,0.0,0.0,0.0,0.0,0.0,0.0,0.0,0.0,0.0,0.0,0.0,0.0,0.0,0.0,0.0,0.0,0.0,0.0,0.0,0.0,0.0,0.0,0.0,0.0,0.0,0.0,0.0,0.0,0.0,0.0,0.0,0.0,0.0,0.0,0.0,0.0,0.0,0.0,0.0,0.0,0.0,0.0,0.0,0.0,0.0,0.0,0.0,0.0,0.0,0.0,0.0,0.0,0.0,0.0,0.0,0.0,0.0,0.0,0.0,0.0,0.0,0.0,0.0,0.0,0.0,0.0,0.0,0.0,0.0,0.0,0.0,0.0,0.0,0.0,0.0,0.0,0.0,0.0,0.0,0.0,0.0,0.0,0.0,0.0,0.0,0.0,0.0,0.0,0.0,0.0,0.0,0.0,0.0,0.0,0.0,0.0,0.0,0.0,0.0,0.0,0.0,0.0,0.0,0.0,0.0,0.0,0.0,0.0,0.0,0.0,0.0,0.0,0.0,0.0,0.0,0.0,0.0,0.0,0.0,0.0,0.0,0.0,0.0,0.0,0.0,0.0,0.0,0.0,0.0,0.0,0.0,0.0,0.0,0.0,0.0,0.0,0.0,0.0,0.0,0.0,0.0,0.0,0.0,0.0,0.0,0.0,0.0,0.0,0.0,0.0,0.0,0.0,0.0,0.0,0.0,0.0,0.0,0.0,0.0,0.0,0.0,0.0,0.0,0.0,0.0,0.0,0.0,0.0,0.0,0.0,0.0,0.0,0.0,0.0,0.0,0.0,0.0,0.0,0.0,0.0,0.0,0.0,0.0,0.0,0.0,0.0,0.0,0.0,0.0,0.0,0.0,0.0,0.0,0.0,0.0,0.0,0.0,0.0,0.0,0.0,0.0,0.0,0.0,0.0,0.0,0.0,0.0,0.0,0.0,0.0,0.0,0.0,0.0,0.0,0.0,0.0,0.0,0.0,0.0,0.0,0.0,0.0,0.0,0.0,0.0,0.0,0.0,0.0,0.0,0.0,0.0,0.0,0.0,0.0,0.0,0.0,0.0,0.0,0.0,0.0,0.0,0.0,0.0,0.0,0.0,0.0,0.0,0.0,0.0,0.0,0.0,0.0,0.0,0.0,0.0,0.0,0.0,0.0,0.0,0.0,0.0,0.0,0.0,0.0,0.0,0.0,0.0,0.0,0.0,0.0,0.0,0.0,0.0,0.0,0.0,0.0,0.0,0.0,0.0,0.0,0.0,0.0,0.0,0.0,0.0,0.0,0.0,0.0,0.0,0.0,0.0,0.0,0.0,0.0,0.0,0.0,0.0,0.0,0.0,0.0,0.0,0.0,0.0,0.0,0.0,0.0,0.0,0.0,0.0,0.0,0.0,0.0,0.0,0.0,0.0,0.0,0.0,0.0,0.0,0.0,0.0,0.0,0.0,0.0,0.0,0.0,0.0,0.0,0.0,0.0,0.0,0.0,0.0,0.0,0.0,0.0,0.0,0.0,0.0,0.0,0.0,0.0,0.0,0.0,0.0,0.0,0.0,0.0,0.0,0.0,0.0,0.0,0.0,0.0,0.0,0.0,0.0,0.0,0.0,0.0,0.0,0.0,0.0,0.0,0.0,0.0,0.0,0.0,-4.4676,0.0,0.0,0.0,0.0,0.0,0.0,0.0,0.0,0.0,0.0,0.0,0.0,0.0,0.0,0.0,0.0,0.0,0.0,0.0,0.0,0.0,0.0,0.0,0.0,-3.166,-3.2339,-3.2544,-3.268,-3.2766,-3.2766,0.0,0.0,0.0,0.0,0.0,-3.3111,-3.3197,-3.3283,-3.3283,-3.3496,-3.3624,-3.3624,-3.3937,-3.4131,-3.4187,0.0,0.0,0.0,0.0,0.0,0.0,0.0,0.0,0.0,0.0,0.0,0.0,0.0,0.0,0.0,0.0,0.0,0.0,0.0,0.0,0.0,0.0,0.0,0.0,0.0,0.0,0.0,0.0,0.0,0.0,0.0,0.0,0.0,0.0,0.0,0.0,0.0,0.0,0.0,0.0,0.0,0.0,0.0,0.0,0.0,0.0,0.0,0.0,0.0,0.0,0.0,0.0,0.0,0.0,0.0,0.0,0.0,0.0,0.0,0.0,0.0,0.0,0.0,0.0,0.0,0.0,0.0,0.0,0.0,0.0,0.0,-4.5095,0.0,0.0,0.0,0.0,0.0,0.0,0.0,0.0,0.0,0.0,0.0,0.0,0.0,0.0,0.0,0.0,0.0,0.0,0.0,0.0,0.0,-2.9378,-2.993,-3.0652,-3.1288,-3.1753,-3.2001,-3.2157,-3.2157,-3.2332,0.0,0.0,0.0,-3.2939,-3.3007,-3.2982,-3.2982,-3.2982,-3.3025,-3.3068,-3.3111,-3.3111,-3.3496,-3.4137,-3.3057,0.0,0.0,0.0,0.0,0.0,0.0,0.0,0.0,0.0,0.0,0.0,0.0,0.0,0.0,0.0,0.0,0.0,0.0,0.0,0.0,0.0,0.0,0.0,0.0,0.0,0.0,0.0,0.0,0.0,0.0,0.0,0.0,0.0,0.0,0.0,0.0,0.0,0.0,0.0,0.0,0.0,0.0,0.0,0.0,0.0,0.0,0.0,0.0,0.0,0.0,0.0,0.0,0.0,0.0,0.0,0.0,0.0,0.0,0.0,0.0,0.0,0.0,0.0,-4.8433,-4.8433,-4.8433,-4.8479,-4.8185,-4.7641,-4.641,-4.5657,-4.5359,-4.5359,0.0,0.0,0.0,0.0,0.0,0.0,0.0,0.0,0.0,0.0,0.0,0.0,0.0,0.0,0.0,0.0,0.0,0.0,0.0,-2.8964,-2.9423,-2.9985,-3.0525,-3.1,-3.1092,-3.1092,-3.1092,-3.1339,0.0,0.0,-3.1977,-3.2264,-3.2487,-3.2487,-3.2487,-3.2487,-3.268,-3.2853,-3.3111,-3.3111,-3.3154,-3.3258,-3.2559,-3.2003,-3.1524,0.0,0.0,0.0,0.0,0.0,0.0,0.0,0.0,0.0,0.0,0.0,0.0,0.0,0.0,0.0,0.0,0.0,0.0,0.0,0.0,0.0,0.0,0.0,0.0,0.0,0.0,0.0,0.0,0.0,0.0,0.0,0.0,0.0,0.0,0.0,0.0,0.0,0.0,0.0,0.0,0.0,-4.2826,-4.4294,0.0,0.0,0.0,0.0,0.0,0.0,0.0,0.0,0.0,0.0,0.0,0.0,0.0,-4.824,-4.8009,-4.8143,-4.808,-4.7876,-4.808,-4.8173,-4.8173,-4.8387,-4.8466,-4.8378,-4.8158,0.0,-4.5532,-4.5532,0.0,0.0,0.0,0.0,0.0,0.0,0.0,0.0,0.0,0.0,0.0,0.0,0.0,0.0,0.0,0.0,0.0,0.0,0.0,0.0,0.0,-2.8339,-2.8878,-2.9602,-2.9966,-3.0102,-3.0102,-3.0329,-3.0554,-3.0779,-3.1048,-3.127,-3.156,-3.156,-3.1649,-3.1761,-3.2133,-3.2438,-3.268,-3.281,-3.2939,-3.3111,-3.2817,-3.2215,-3.1361,-3.0834,0.0,0.0,0.0,0.0,0.0,0.0,0.0,0.0,0.0,0.0,0.0,0.0,0.0,0.0,0.0,0.0,0.0,0.0,0.0,0.0,0.0,0.0,0.0,0.0,0.0,0.0,0.0,0.0,0.0,0.0,0.0,0.0,0.0,0.0,0.0,0.0,0.0,0.0,0.0,-4.1144,-4.248,-4.4106,-4.4705,-4.5499,0.0,0.0,0.0,0.0,0.0,0.0,0.0,0.0,0.0,-4.8265,-4.8477,-4.8541,-4.8446,-4.8796,-4.8923,-4.8904,-4.897,-4.9018,-4.9018,-4.9114,-4.8986,-4.8588,-4.8588,-4.7963,-4.6823,-4.6711,-4.6064,-4.5194,0.0,0.0,0.0,0.0,-4.4634,-4.4422,0.0,0.0,0.0,0.0,0.0,0.0,0.0,0.0,0.0,0.0,0.0,0.0,-2.6384,-2.6646,-2.7124,-2.792,-2.8484,-2.8734,-2.8734,-2.9052,-2.9349,-2.9623,-2.9806,-3.0079,-3.0351,-3.0396,-3.0644,-3.1026,-3.1359,-3.1737,-3.2113,-3.2288,-3.2506,-3.281,-3.281,-3.2347,-3.1587,-3.1185,-3.0633,-2.9955,0.0,0.0,0.0,0.0,0.0,0.0,0.0,0.0,0.0,0.0,0.0,0.0,0.0,0.0,0.0,0.0,0.0,0.0,0.0,0.0,0.0,0.0,0.0,0.0,0.0,0.0,0.0,0.0,0.0,0.0,0.0,0.0,0.0,0.0,0.0,0.0,0.0,-4.1191,-4.2133,-4.3724,-4.4523,-4.5323,0.0,0.0,0.0,0.0,0.0,0.0,-4.8577,-4.8534,-4.8613,-4.8788,-4.9059,-4.9222,-4.9222,-4.9733,-5.0014,-5.0064,-4.989,-4.9881,-4.993,-4.9805,-4.9359,-4.8827,-4.8827,-4.8451,-4.7814,-4.7641,-4.6916,-4.5889,-4.6006,-4.5594,-4.4963,-4.4977,-4.4834,-4.4618,0.0,0.0,0.0,0.0,0.0,0.0,0.0,0.0,0.0,0.0,0.0,-2.4717,-2.5215,-2.53,-2.5508,-2.6118,-2.6489,-2.6739,0.0,-2.7369,-2.7835,-2.8092,-2.8283,-2.8541,-2.8819,-2.9073,-2.9555,-3.0261,-3.0261,-3.0668,-3.1362,-3.1362,-3.1605,-3.2089,-3.2089,-3.2118,-3.2164,-3.2139,-3.1537,-3.0583,-3.0532,0.0,0.0,0.0,0.0,0.0,0.0,0.0,0.0,0.0,0.0,0.0,0.0,0.0,0.0,0.0,0.0,0.0,0.0,0.0,0.0,0.0,0.0,0.0,0.0,0.0,0.0,0.0,0.0,0.0,0.0,0.0,0.0,0.0,0.0,0.0,0.0,0.0,0.0,-4.3202,-4.3795,0.0,0.0,0.0,0.0,-4.6639,-4.7226,-4.7921,-4.8816,-4.9416,-5.0017,-5.0646,-5.0703,-5.0652,-5.0652,-5.0761,-5.0863,-5.1142,-5.0486,-5.0348,-5.0598,-5.0008,-4.9522,-4.9248,-4.9248,-4.8726,-4.7872,-4.7796,-4.7393,-4.6783,-4.7011,-4.6586,-4.5869,-4.6048,-4.5795,-4.5463,0.0,0.0,0.0,0.0,0.0,-2.3002,-2.3451,-2.39,-2.4186,-2.4036,-2.3927,-2.4002,-2.4444,-2.4549,-2.473,-2.5174,-2.5493,-2.5808,-2.6093,-2.6302,-2.6695,-2.7268,-2.7363,-2.7505,-2.772,-2.8002,-2.8236,-2.8516,-2.9002,-2.9463,-2.9875,-3.0397,-3.0734,-3.1048,-3.1427,-3.1597,-3.1641,-3.1687,-3.1414,-3.0932,-3.0704,-3.0645,0.0,0.0,0.0,0.0,0.0,0.0,0.0,0.0,0.0,0.0,0.0,0.0,0.0,0.0,0.0,0.0,0.0,0.0,0.0,0.0,0.0,0.0,0.0,0.0,0.0,0.0,0.0,0.0,0.0,0.0,0.0,0.0,0.0,0.0,0.0,0.0,0.0,-4.2991,-4.344,0.0,-4.4942,-4.5737,-4.6372,-4.6943,-4.773,-4.8434,-4.9178,-4.9402,-4.976,-5.0223,-4.9985,-4.9985,-5.0223,-4.9985,-5.0142,-5.0611,-5.0383,-5.0452,-5.0759,-5.0098,-4.9581,-4.9329,-4.8981,-4.8518,-4.8013,-4.8211,-4.7817,-4.7171,-4.6998,-4.6662,-4.6247,-4.5875,-4.5458,-4.5046,0.0,0.0,0.0,0.0,-2.2291,-2.2693,-2.3233,-2.3531,-2.3667,-2.358,-2.345,-2.3481,-2.3713,-2.3797,-2.3959,-2.4191,-2.4669,-2.5059,-2.5292,-2.561,-2.5984,-2.6476,-2.6476,-2.6572,-2.6812,-2.6982,-2.7173,-2.7363,-2.7835,-2.8258,-2.8609,-2.9095,-2.9486,-2.9806,-3.0238,-3.0509,-3.0666,-3.0846,-3.1022,-3.1107,-3.094,-3.0925,-3.096,0.0,0.0,0.0,0.0,0.0,0.0,0.0,0.0,0.0,0.0,0.0,0.0,0.0,0.0,0.0,0.0,0.0,0.0,0.0,0.0,0.0,0.0,0.0,0.0,0.0,0.0,0.0,0.0,0.0,0.0,0.0,0.0,0.0,0.0,-4.1414,-4.2207,-4.3161,-4.3512,-4.4126,-4.5135,-4.5831,-4.6427,-4.7028,-4.7622,-4.8219,-4.8899,-4.8954,-4.9172,-4.9636,-4.9391,-4.9391,-4.9636,-4.95,-4.9717,-5.0202,-5.006,-5.0188,-5.0505,-4.9775,-4.9338,-4.905,-4.8486,-4.808,-4.7846,-4.7908,-4.765,-4.7206,-4.7176,-4.6782,-4.6193,-4.5717,-4.5078,-4.435,0.0,0.0,0.0,-2.2372,-2.2492,-2.271,-2.3374,-2.3513,-2.3406,-2.3144,-2.3101,-2.3101,-2.3101,-2.3101,-2.3101,-2.312,-2.3881,-2.4414,-2.4434,-2.5187,-2.5674,-2.5693,-2.5693,-2.582,-2.6091,-2.6091,-2.6332,-2.686,-2.686,-2.7078,-2.7531,-2.76,-2.7814,-2.8283,-2.8516,-2.8934,-2.935,-2.9624,-3.0275,-3.1119,-3.1186,-3.0974,-3.0719,0.0,0.0,0.0,0.0,0.0,0.0,0.0,0.0,0.0,0.0,0.0,0.0,0.0,0.0,0.0,0.0,0.0,0.0,0.0,0.0,0.0,0.0,0.0,0.0,0.0,0.0,0.0,0.0,0.0,0.0,0.0,0.0,0.0,-4.13,-4.1856,-4.2665,-4.3689,-4.4099,-4.4611,-4.5431,-4.5768,-4.6165,-4.6728,-4.681,-4.7186,-4.808,-4.8133,-4.8456,-4.9098,-4.9125,-4.9098,-4.9098,-4.9301,-4.9643,-4.9956,-4.9636,-4.9611,-4.9858,-4.917,-4.8733,-4.8463,-4.7889,-4.751,-4.7216,-4.6883,-4.6742,-4.6816,-4.7574,-4.6954,-4.5713,-4.5638,-4.476,-4.3444,0.0,0.0,-2.1769,-2.2024,-2.2296,-2.2647,-2.3153,-2.3188,-2.3188,-2.3101,-2.3101,-2.3101,-2.3101,-2.3101,-2.3218,-2.3574,-2.3828,-2.4219,-2.4844,-2.5117,-2.5391,-2.5674,-2.5693,-2.5723,-2.582,-2.582,-2.5868,-2.6014,-2.6235,-2.638,-2.6524,-2.6907,-2.7173,-2.7315,-2.7741,-2.7955,-2.8096,-2.8398,-2.8822,-2.9489,-3.039,-3.0788,-3.0866,0.0,0.0,0.0,0.0,0.0,0.0,0.0,0.0,0.0,0.0,0.0,0.0,0.0,0.0,0.0,0.0,0.0,0.0,0.0,0.0,0.0,0.0,0.0,0.0,0.0,0.0,0.0,0.0,0.0,0.0,0.0,-4.148,-4.1932,-4.1932,-4.276,-4.3463,-4.3765,-4.4199,-4.4583,-4.4825,-4.5519,-4.5981,-4.6155,-4.7133,-4.791,-4.8335,-4.8811,-4.9184,-4.958,-4.8982,-4.8773,-4.9035,-4.8472,-4.8495,-4.8988,-4.8885,-4.8976,-4.9317,-4.8642,-4.8206,-4.7873,-4.6861,-4.6271,-4.5972,-4.5714,-4.5555,-4.5661,-4.6417,-4.6378,-4.5691,-4.4661,-4.3411,-4.2164,0.0,-2.1703,-2.183,-2.1879,-2.2227,-2.2656,-2.3042,-2.3101,-2.3101,-2.3101,-2.3101,-2.3101,-2.3101,-2.3257,-2.3516,-2.3769,-2.4121,-2.4531,-2.5086,-2.5254,-2.5469,-2.5674,-2.5693,-2.5693,-2.5693,-2.5693,-2.5693,-2.5693,-2.5868,-2.5917,-2.5965,-2.6255,-2.64,-2.638,-2.6791,-2.6982,-2.6982,-2.7384,-2.7773,-2.8274,-2.9264,-2.9987,-3.0464,-3.0892,-3.1437,-3.1917,-3.2321,-3.2645,-3.293,-3.3019,0.0,0.0,0.0,0.0,0.0,0.0,0.0,0.0,0.0,0.0,0.0,0.0,0.0,0.0,0.0,0.0,0.0,0.0,0.0,0.0,0.0,0.0,0.0,0.0,-4.2283,-4.266,-4.3112,-4.3539,-4.3991,-4.4443,-4.4794,-4.5171,-4.5623,-4.6094,-4.6491,-4.6718,-4.7506,-4.8044,-4.8227,-4.8621,-4.8861,-4.9019,-4.8528,-4.8349,-4.8531,-4.7966,-4.7802,-4.8191,-4.8075,-4.812,-4.8294,-4.7896,-4.7623,-4.7456,-4.6569,-4.5935,-4.5533,-4.5103,-4.4793,0.0,0.0,0.0,0.0,0.0,-4.238,-4.1611,0.0,-2.1902,-2.191,-2.1958,-2.2305,-2.2715,-2.3042,-2.3101,-2.312,-2.3159,-2.3159,-2.3198,-2.3237,-2.3633,-2.3887,-2.3926,-2.4675,-2.5145,-2.5137,-2.5508,-2.5693,-2.5693,-2.5693,-2.5693,-2.5693,-2.5693,-2.5693,-2.5693,-2.5693,-2.5693,-2.5693,-2.5693,-2.5693,-2.5693,-2.6005,-2.6121,-2.617,-2.6693,-2.715,-2.7537,-2.8028,-2.8795,-2.9758,-3.0056,-3.0744,-3.1668,-3.222,-3.2897,-3.3538,-3.3814,0.0,0.0,0.0,0.0,0.0,0.0,0.0,0.0,0.0,0.0,0.0,0.0,0.0,0.0,0.0,0.0,0.0,0.0,0.0,0.0,0.0,0.0,0.0,0.0,-4.3162,-4.3539,-4.4568,-4.4342,-4.4443,-4.5372,-4.5598,-4.605,-4.7029,-4.7118,-4.7405,-4.7883,-4.7958,-4.8008,-4.8008,0.0,0.0,0.0,0.0,-4.8008,-4.8008,-4.7763,-4.7607,-4.7607,-4.7325,-4.7189,-4.7189,-4.7112,-4.7087,-4.7061,-4.6524,-4.6013,-4.5559,-4.4888,-4.43,-4.3874,-4.4886,-4.4785,-4.3861,-4.2346,-4.1699,-4.1415,0.0,-2.243,-2.2369,-2.2389,-2.2734,-2.3003,-2.3081,-2.3101,-2.3218,-2.3613,-2.3672,-2.3789,-2.4141,-2.4238,-2.4434,-2.4832,-2.5028,-2.5215,-2.5538,-2.5635,-2.5693,-2.5693,-2.5693,-2.5693,-2.5693,-2.5693,-2.5693,-2.5693,-2.5693,-2.5693,-2.5693,-2.5693,-2.5693,-2.5693,-2.6143,-2.6349,-2.6369,-2.6822,-2.715,-2.7412,-2.7512,-2.8173,-2.9125,-2.9785,-3.0456,-3.112,-3.1595,-3.2301,-3.3051,-3.3098,-3.3353,-3.3676,-3.3676,0.0,0.0,0.0,0.0,0.0,0.0,0.0,0.0,0.0,0.0,0.0,0.0,0.0,0.0,0.0,0.0,0.0,0.0,0.0,0.0,-4.4116,-4.4292,-4.4543,-4.5221,-4.5623,-4.5748,-4.5522,-4.6276,-4.6842,-4.7043,-4.7506,-4.7807,-4.7908,-4.8335,-4.8611,-4.8611,-4.9038,-4.9264,-4.9264,-4.8837,-4.8611,-4.8611,-4.8096,-4.7819,-4.7881,0.0,0.0,-4.7136,-4.6683,-4.6481,-4.6456,-4.5901,-4.5599,-4.5422,-4.4389,-4.3658,-4.3265,-4.3929,-4.3679,-4.2894,-4.2582,-4.1707,-4.0711,-2.3612,-2.3118,-2.2818,-2.2864,-2.3087,-2.3319,-2.3319,-2.3364,-2.3535,-2.3769,-2.3965,-2.418,-2.4394,-2.4609,-2.4824,-2.5106,-2.5273,-2.5508,-2.5674,-2.5693,-2.5791,-2.6055,-2.6055,-2.6152,-2.6367,-2.6317,-2.6317,-2.6317,-2.6317,-2.6317,-2.6317,-2.6317,-2.6317,-2.6337,-2.6602,-2.6699,-2.6719,-2.6914,-2.718,-2.753,-2.753,-2.7958,-2.8634,-2.9103,-2.9777,-3.0586,-3.1371,-3.2162,-3.2926,-3.348,-3.3815,-3.403,-3.4149,-3.4291,-3.4386,0.0,0.0,0.0,0.0,0.0,0.0,0.0,0.0,0.0,0.0,0.0,0.0,0.0,0.0,-4.1918,-4.3187,0.0,-4.4166,-4.5296,-4.5472,-4.5748,-4.6577,-4.6928,-4.6903,-4.6376,-4.7029,-4.7631,-4.7933,-4.8184,-4.846,-4.8736,-4.9012,-4.9188,-4.9188,-4.9439,-4.959,-4.959,-4.9339,-4.9188,-4.9188,-4.8636,-4.8335,-4.8335,-4.7782,-4.738,-4.7068,-4.6853,-4.6577,-4.6301,-4.6024,-4.5748,-4.5397,-4.4267,-4.3463,-4.3042,-4.3321,-4.3144,-4.2755,-4.2478,-4.1969,-4.1254,-2.4662,-2.3974,-2.3391,-2.3321,-2.3448,-2.3537,-2.3537,-2.3737,-2.3898,-2.3996,-2.4323,-2.457,-2.4668,-2.498,-2.5195,-2.5195,-2.5527,-2.5693,-2.5693,-2.5771,-2.6016,-2.6367,-2.6465,-2.666,-2.7012,-2.7012,-2.7012,-2.7012,-2.7012,-2.7012,-2.7012,-2.7012,-2.7012,-2.7012,-2.7109,-2.7148,-2.7148,-2.7226,-2.7461,-2.7845,-2.7845,-2.7988,-2.8329,-2.843,-2.9083,-3.01,-3.109,-3.1934,-3.2801,-3.377,-3.4188,-3.4286,-3.458,-3.47,-3.4821,-3.487,-3.5402,0.0,0.0,0.0,0.0,0.0,0.0,0.0,0.0,-3.9672,-4.0826,-4.1546,-4.2276,-4.3116,-4.4051,-4.4585,-4.5321,-4.6426,-4.6627,-4.6928,-4.7782,-4.8008,-4.7908,-4.7506,-4.7832,-4.8259,-4.8736,-4.8862,-4.9163,-4.9715,-4.9766,-4.9766,-4.9766,-4.9766,-4.9715,-4.959,-4.959,-4.959,-4.959,-4.9163,-4.8937,-4.8937,-4.836,-4.7807,-4.728,-4.7179,-4.6828,-4.6301,-4.6301,-4.5924,-4.5246,-4.4342,-4.3564,-4.2986,-4.2986,-4.2986,-4.2911,-4.2539,-4.2313,-4.2087,0.0,-2.5076,-2.4427,-2.3851,-2.3757,-2.3754,-2.3754,-2.3958,-2.4241,-2.4617,-2.4867,-2.5156,-2.5499,-2.5577,-2.5615,-2.5615,-2.5654,-2.5693,-2.5693,-2.6094,-2.6328,-2.6387,-2.6738,-2.6973,-2.7012,-2.7012,-2.7012,-2.7012,-2.7012,-2.7012,-2.7012,-2.7012,-2.7012,-2.7031,-2.7422,-2.7598,-2.7669,-2.7988,-2.8184,-2.8223,-2.8223,-2.8262,-2.8281,-2.8343,-2.8853,-2.9661,-3.0307,-3.1206,-3.2167,-3.2773,-3.3273,-3.3744,-3.4064,-3.4469,-3.4822,-3.5073,-3.5554,-3.606,-3.6314,-3.7087,-3.7979,-3.8431,-3.8984,-3.9472,0.0,-4.0515,-4.1493,-4.1623,-4.2856,-4.4327,-4.5345,-4.5895,-4.6476,-4.7556,-4.7732,-4.7782,-4.7883,-4.836,-4.8661,-4.8611,-4.8636,-4.8711,-4.8761,-4.9213,-4.9741,-5.0293,-5.0318,-5.0318,-5.0318,-5.0318,-5.0092,-4.9615,-4.959,-4.959,-4.959,-4.954,-4.9515,-4.949,-4.8937,-4.8385,-4.7807,-4.733,-4.6828,-4.6301,-4.6301,-4.5698,-4.4719,-4.4593,-4.3915,-4.2986,-4.2986,-4.2986,-4.2961,-4.2911,-4.264,-4.2187,0.0,-2.5872,-2.5373,-2.4573,-2.4229,-2.4013,-2.4013,-2.4444,-2.4831,-2.5011,-2.5397,-2.5748,-2.5897,-2.5771,-2.5693,-2.5693,-2.5693,-2.5791,-2.6094,-2.6289,-2.6602,-2.7109,-2.7305,-2.75,-2.7754,-2.7754,-2.7754,-2.7754,-2.7754,-2.7754,-2.7754,-2.7754,-2.7754,-2.7773,-2.7949,-2.8027,-2.8047,-2.8223,-2.8301,-2.8301,-2.8301,-2.8301,-2.8301,-2.8301,-2.8495,-2.892,-2.9638,-3.037,0.0,0.0,-3.2448,-3.3019,-3.3792,-3.4299,-3.4711,-3.5473,-3.605,-3.6649,-3.7532,-3.8118,-3.8599,-3.9152,-3.9681,-4.0138,-4.0451,-4.1215,-4.2031,-4.2812,-4.4042,-4.519,-4.6079,-4.6784,-4.7506,-4.8284,-4.841,-4.851,-4.8837,-4.9113,-4.9264,-4.9264,-4.9264,-4.9264,-4.9264,-4.9741,-5.0167,-5.0393,-5.072,-5.0921,-5.0921,-5.0594,-5.0318,-5.0067,-4.9766,-4.959,-4.959,-4.959,-4.959,-4.959,-4.9364,-4.8786,-4.7908,-4.7682,-4.7129,-4.6301,-4.6301,-4.5849,-4.5095,-4.4769,-4.4166,-4.3413,-4.3112,-4.2986,-4.2986,-4.2986,-4.2891,-4.264,0.0,-2.6689,-2.6238,-2.5401,-2.4871,-2.4507,-2.4292,-2.4828,-2.526,-2.526,-2.5792,-2.6187,-2.6187,-2.6062,-2.5917,-2.5917,-2.582,-2.6016,-2.6447,-2.6534,-2.6894,-2.7689,-2.7826,-2.7988,-2.8281,-2.8301,-2.8301,-2.8301,-2.8301,-2.8301,-2.8301,-2.8301,-2.8301,-2.8301,-2.8301,-2.8301,-2.8301,-2.8301,-2.8301,-2.8301,-2.8301,-2.8301,-2.8301,-2.8301,-2.8301,-2.8388,-2.9026,-2.9586,0.0,0.0,-3.1483,-3.2053,-3.3106,-3.3737,-3.4251,-3.5432,-3.6284,-3.7162,-3.8359,-3.8827,-3.9067,-3.9681,-4.021,-4.0739,-4.1268,-4.1856,-4.2565,-4.3639,-4.4573,-4.5527,-4.6365,-4.7222,-4.8084,-4.896,-4.9149,-4.9414,-4.9992,-5.0067,-5.0067,-5.0067,-5.0067,-5.0067,-5.0067,-5.0268,-5.0494,-5.0645,-5.1197,-5.1498,-5.1498,-5.0971,-5.0569,-5.0419,-4.9891,-4.959,-4.959,-4.959,-4.959,-4.959,-4.959,-4.9012,-4.7908,-4.7606,-4.7029,-4.6301,-4.6301,-4.5999,-4.5447,-4.4869,-4.4292,-4.374,-4.3187,-4.2986,-4.2986,-4.2986,-4.2986,-4.2911,0.0,0.0,-2.6981,-2.6279,-2.5779,-2.5253,-2.4572,-2.505,-2.5488,-2.5488,-2.6094,-2.6496,-2.6496,-2.6496,-2.6496,-2.6496,-2.6255,-2.6269,-2.6656,-2.6859,-2.7207,-2.7708,-2.8066,-2.8281,-2.8301,-2.8301,-2.8301,-2.8301,-2.8301,-2.8301,-2.8301,-2.8301,-2.8301,-2.8301,-2.8301,-2.8301,-2.8301,-2.8301,-2.8301,-2.8301,-2.8301,-2.8301,-2.8301,-2.8301,-2.8301,-2.8354,-2.8621,0.0,0.0,-2.9848,-3.0214,-3.0631,-3.1653,-3.2497,-3.3404,-3.4772,-3.6056,-3.7291,-3.8183,-3.8816,-3.9372,-4.0178,-4.0763,-4.1293,-4.1822,-4.241,-4.294,-4.3409,-4.4207,-4.5157,-4.6202,-4.6992,-4.8018,-4.9635,-5.0172,-5.0569,-5.1147,-5.1222,-5.1222,-5.1222,-5.1222,-5.1222,0.0,-5.0745,-5.0645,-5.1222,-5.1774,-5.2076,-5.2076,-5.1548,-5.0996,-5.0444,-4.9891,-4.959,-4.959,-4.959,-4.959,-4.959,-4.959,-4.9012,-4.7883,-4.6828,-4.6351,-4.6301,-4.6301,-4.5999,-4.5447,-4.4869,-4.4292,-4.374,-4.3187,-4.2986,-4.2986,-4.2986,-4.2986,-4.2986,0.0,0.0,0.0,-2.6981,-2.6487,-2.5988,-2.5485,-2.5735,-2.5965,-2.5965,-2.6423,0.0,0.0,0.0,0.0,0.0,-2.64,-2.6652,-2.7392,-2.732,-2.7582,-2.8331,-2.8329,-2.8301,-2.8301,-2.8301,-2.8301,-2.8301,-2.8574,-2.8711,-2.8711,-2.9004,-2.9141,-2.9141,-2.9141,-2.9141,-2.9141,-2.9141,-2.8965,-2.8711,-2.8711,-2.8535,-2.8301,-2.8301,-2.8301,-2.8281,0.0,0.0,0.0,-2.9079,-2.9652,-3.0438,-3.1485,-3.2328,-3.3257,-3.4833,-3.6128,-3.7238,-3.8073,-3.8981,-3.984,-4.0445,-4.088,-4.1413,-4.2362,-4.2699,-4.3,-4.389,-4.4739,-4.557,-4.6299,-4.7287,-4.8465,-4.9669,-5.0156,-5.0619,-5.1197,-5.1272,-5.1272,-5.1272,-5.1272,0.0,0.0,0.0,0.0,-5.1825,-5.2327,-5.2503,-5.2126,-5.1574,-5.1021,-5.0444,-4.9891,-4.959,-4.959,-4.959,-4.959,-4.959,-4.8837,-4.8284,-4.7883,-4.6803,-4.6301,-4.6301,-4.6301,-4.62,-4.5999,-4.5422,-4.4869,-4.4292,-4.374,-4.3288,-4.2986,-4.2986,-4.2986,-4.2986,0.0,0.0,0.0,0.0,0.0,0.0,0.0,0.0,0.0,0.0,0.0,0.0,0.0,0.0,0.0,0.0,0.0,-2.7025,-2.7915,-2.7703,-2.795,-2.8794,-2.8674,-2.8601,-2.8601,-2.8601,-2.8601,-2.8601,-2.8982,-2.9199,-2.9199,-2.9707,-2.9905,-2.9905,-2.9793,-2.9738,-2.9738,-2.9626,-2.9414,-2.9141,-2.9141,-2.8984,-2.875,-2.875,-2.875,0.0,0.0,0.0,-2.9001,-2.8844,-2.9178,-2.993,-3.1031,-3.2045,-3.3085,-3.4432,-3.5569,-3.659,-3.7748,-3.8813,-3.976,-4.0534,-4.0966,-4.1413,-4.2338,-4.2556,-4.282,-4.3682,-4.4343,-4.5059,-4.5652,-4.6695,-4.7927,-4.9471,-5.0174,-5.0838,-5.1749,-5.1875,-5.1875,-5.1875,-5.1875,-5.1875,0.0,0.0,0.0,-5.1825,-5.2126,-5.2176,-5.1825,-5.1272,-5.0795,-5.0419,-4.9891,-4.959,-4.959,-4.959,-4.959,-4.959,-4.8435,-4.7908,-4.7883,-4.6803,-4.6301,-4.6301,-4.6301,-4.6301,-4.6276,-4.5723,-4.5271,-4.4869,-4.4091,-4.3589,-4.3237,-4.3062,-4.2986,-4.2986,0.0,0.0,0.0,0.0,0.0,0.0,0.0,0.0,0.0,0.0,0.0,0.0,0.0,0.0,0.0,0.0,0.0,0.0,-2.8186,-2.7975,-2.8206,-2.9092,-2.9132,-2.9079,-2.9079,-2.9079,-2.9079,-2.9079,-2.9574,-2.9816,-2.9856,-3.0299,-3.052,-3.054,-3.0207,-3.0095,-3.0095,-2.9797,-2.9685,-2.9665,-2.9665,-2.9646,-2.9626,-2.9626,0.0,0.0,0.0,0.0,-2.9512,-2.9101,-2.8965,-2.9196,-3.0339,-3.1637,-3.2809,-3.3513,-3.4432,-3.5531,-3.7117,-3.826,-3.9267,-4.0361,-4.0884,-4.1259,-4.1846,-4.2078,-4.2339,-4.2861,-4.305,-4.3506,-4.4365,-4.527,-4.665,-4.8977,-5.0115,-5.122,-5.266,-5.2904,-5.2929,-5.2929,-5.2929,-5.2929,-5.2929,-5.2402,0.0,-5.1322,0.0,-5.1272,-5.1247,-5.072,-5.0393,-5.0368,-4.9866,-4.959,-4.959,-4.959,-4.959,-4.959,-4.8435,-4.7908,-4.7883,-4.6803,-4.6301,-4.6301,-4.6301,-4.6301,-4.6276,-4.5748,-4.5522,-4.5372,-4.4317,-4.384,-4.374,-4.3212,-4.3011,-4.2986,0.0,0.0,0.0,0.0,0.0,0.0,0.0,0.0,0.0,0.0,0.0,0.0,0.0,0.0,0.0,0.0,0.0,0.0,-2.8466,-2.8227,-2.8533,-2.9408,-2.9237,-2.9079,-2.9079,-2.9079,-2.9079,-2.9079,-2.9574,-2.9977,-3.0319,-3.0741,-3.1124,-3.1445,-3.1388,-3.1331,-3.1331,-3.1274,-3.1037,-3.0717,0.0,-3.0538,-3.0238,0.0,0.0,0.0,0.0,-2.9626,-2.9551,-2.9434,-2.9797,-3.0339,-3.093,-3.1754,-3.2583,-3.2977,-3.408,-3.5401,-3.6313,-3.7688,-3.9007,-3.9498,-4.0071,-4.0597,-4.1117,-4.1116,-4.1312,-4.2178,-4.2172,-4.2418,-4.3618,-4.4759,-4.6141,-4.8092,-4.9734,-5.1095,-5.2133,-5.2678,-5.2929,-5.2929,-5.2929,-5.2929,-5.2929,-5.2051,0.0,0.0,-5.1272,-5.1096,-5.067,-5.0494,-5.0218,-4.9816,-4.9665,-4.959,-4.959,-4.959,-4.959,-4.959,-4.8435,-4.7908,-4.7883,-4.6803,-4.6301,-4.6301,-4.6301,-4.6301,-4.6301,-4.615,-4.5849,-4.5472,-4.5171,-4.4543,-4.379,-4.3639,-4.3338,-4.2986,0.0,0.0,0.0,0.0,0.0,0.0,0.0,0.0,0.0,0.0,0.0,0.0,0.0,0.0,0.0,0.0,0.0,0.0,0.0,-2.8478,-2.8768,-2.9723,-2.9606,-2.9501,-2.9501,-2.9501,-2.9501,-2.9501,-2.997,-3.0316,-3.0581,-3.1029,-3.1376,-3.162,-3.1487,-3.143,-3.1374,-3.1462,0.0,0.0,0.0,0.0,0.0,0.0,0.0,0.0,-3.0421,-3.025,-3.0176,-3.0351,-3.0701,-3.1073,-3.1309,-3.1801,-3.2356,-3.2735,-3.3679,-3.4797,-3.5591,-3.6855,-3.8134,-3.8693,-3.9226,-3.9708,-4.0127,-4.0085,-4.0106,-4.0655,-4.0763,-4.1049,-4.2102,-4.3489,-4.5113,-4.6992,-4.8956,-5.0616,-5.1754,-5.2441,-5.2929,-5.2929,-5.2929,-5.2929,-5.2929,-5.1925,-5.1272,0.0,-5.082,-5.0393,-5.0067,-5.0067,-4.9916,-4.9615,-4.959,-4.959,-4.959,-4.959,-4.959,-4.959,-4.8711,-4.8159,-4.7883,-4.7054,-4.6552,-4.6301,0.0,-4.6301,-4.6301,-4.6301,-4.6125,-4.5824,-4.5573,-4.5095,-4.4518,-4.4267,-4.3815,-4.3338,0.0,0.0,0.0,0.0,0.0,0.0,0.0,0.0,0.0,0.0,0.0,0.0,0.0,0.0,0.0,0.0,0.0,0.0,0.0,0.0,-2.9134,-3.0057,-3.0047,-3.0047,-3.0047,-2.9994,-3.0036,-3.0098,-3.0491,-3.0739,-3.0864,-3.1215,0.0,0.0,0.0,0.0,0.0,0.0,0.0,0.0,0.0,0.0,0.0,0.0,0.0,0.0,-3.1441,-3.121,-3.1094,-3.1406,-3.1523,-3.1523,-3.1582,-3.1894,-3.2324,-3.2695,-3.3265,-3.4002,-3.5005,-3.5972,-3.6928,-3.7774,-3.8253,-3.8574,-3.8871,-3.8792,-3.8681,-3.8748,-3.9004,-3.9471,-4.0237,-4.1826,-4.3656,-4.5662,-4.7925,-4.9903,-5.1222,-5.2204,-5.2854,-5.2929,-5.2929,-5.2929,-5.2929,-5.1925,-5.1272,-5.1272,-5.0243,-4.959,-4.959,-4.959,-4.959,-4.959,-4.959,-4.959,-4.959,-4.959,-4.959,-4.959,-4.9038,-4.846,-4.7883,-4.738,-4.6828,-4.6301,-4.6301,0.0,-4.6301,-4.6301,-4.6301,-4.625,-4.5773,-4.5547,-4.5422,-4.492,-4.4342,-4.379,0.0,0.0,0.0,0.0,0.0,0.0,0.0,0.0,0.0,0.0,-2.9071,-2.8254,0.0,0.0,0.0,0.0,0.0,0.0,0.0,0.0,0.0,-3.0651,-3.0464,-3.0339,-3.0339,-3.0099,-3.018,-3.0574,-3.0657,-3.1071,-3.174,-3.1505,0.0,0.0,0.0,0.0,0.0,0.0,0.0,0.0,0.0,0.0,0.0,0.0,0.0,0.0,-3.1498,-3.1504,-3.1781,-3.1544,-3.1523,-3.1582,-3.1953,-3.2344,-3.2695,-3.2773,-3.3277,-3.3948,-3.4465,-3.5108,-3.5788,-3.6197,-3.6542,-3.6868,-3.6868,-3.6688,-3.6553,-3.6935,-3.715,-3.7612,-3.8745,-4.028,-4.2059,-4.3986,-4.6399,-4.8567,-5.0241,-5.1469,-5.2427,-5.2879,-5.2929,-5.2929,-5.2929,-5.1925,0.0,0.0,-5.0243,-4.959,-4.959,-4.959,-4.959,-4.959,-4.959,-4.959,-4.959,-4.959,-4.959,-4.959,-4.9038,-4.846,-4.7883,-4.738,-4.6828,-4.6301,-4.6301,0.0,-4.6301,-4.6301,-4.6301,-4.6301,-4.62,-4.5899,-4.5472,-4.5372,-4.4694,-4.3758,0.0,0.0,0.0,0.0,0.0,0.0,0.0,0.0,-3.038,-3.124,-3.0487,-2.9715,-2.9187,-2.8792,0.0,0.0,0.0,0.0,0.0,0.0,0.0,0.0,-3.0961,-3.0912,-3.1199,-3.0906,-3.1053,-3.1515,0.0,-3.1746,-3.2133,-3.1957,-3.1978,-3.2167,-3.1957,-3.1873,0.0,0.0,0.0,0.0,0.0,0.0,0.0,0.0,0.0,0.0,0.0,-3.2234,-3.2375,-3.2412,-3.2309,-3.2226,-3.2422,-3.2793,-3.3125,-3.3125,-3.3387,-3.3733,-3.4047,-3.436,-3.4735,-3.5273,-3.552,-3.5644,-3.5828,-3.5644,-3.5459,-3.5687,-3.5785,-3.6193,-3.7226,-3.876,-4.0451,-4.246,-4.4813,-4.7068,-4.8758,-5.0444,-5.17,-5.2179,-5.2616,-5.2929,-5.2929,-5.1925,-5.1272,-5.1272,-5.0243,-4.959,-4.959,-4.959,-4.959,-4.959,-4.959,-4.959,-4.959,-4.959,-4.959,-4.959,-4.9314,-4.8736,-4.7908,-4.7657,-4.7079,-4.6301,-4.6301,0.0,-4.6301,-4.6301,-4.6301,-4.6301,-4.6301,-4.615,-4.5924,-4.5924,-4.5279,-4.4353,0.0,0.0,0.0,0.0,0.0,0.0,0.0,-3.0951,-3.1118,-3.203,-3.1825,-3.1342,-3.0603,-2.9988,-2.9799,0.0,0.0,0.0,0.0,0.0,0.0,0.0,0.0,-3.1641,-3.2045,0.0,0.0,-3.2543,-3.2598,0.0,0.0,0.0,0.0,0.0,-3.2599,-3.2556,-3.2469,0.0,0.0,0.0,0.0,0.0,0.0,0.0,0.0,0.0,0.0,-3.2993,-3.2953,-3.323,-3.3099,-3.293,-3.293,-3.3164,-3.3418,-3.3418,-3.3418,-3.3481,-3.3733,-3.3796,-3.3922,-3.4423,-3.461,-3.4673,-3.4922,-3.4797,-3.461,-3.461,-3.4722,-3.51,-3.5949,-3.7315,-3.894,-4.0859,-4.322,-4.5298,-4.7058,-4.9121,-5.0714,-5.1371,-5.2136,-5.2685,-5.2754,-5.185,0.0,-5.1096,-5.0167,-4.959,-4.959,-4.959,-4.959,-4.959,-4.959,-4.959,-4.959,-4.959,-4.959,-4.959,-4.959,-4.9012,-4.7908,-4.7908,-4.733,-4.6301,-4.6301,0.0,0.0,-4.6301,-4.6301,-4.6301,-4.6301,-4.6301,-4.6301,-4.6301,-4.577,-4.5007,0.0,0.0,0.0,0.0,0.0,0.0,0.0,-3.173,-3.2197,-3.2581,-3.2593,-3.2635,-3.2885,-3.2029,-3.1389,0.0,0.0,0.0,0.0,0.0,0.0,0.0,0.0,0.0,0.0,0.0,0.0,-3.331,-3.3541,0.0,0.0,0.0,0.0,0.0,0.0,-3.3316,-3.3039,-3.3541,0.0,0.0,0.0,0.0,0.0,0.0,0.0,0.0,0.0,-3.3639,-3.3658,-3.3391,-3.3296,-3.3359,-3.3359,-3.3398,-3.3418,-3.3418,-3.3418,-3.3418,-3.3418,-3.3418,-3.3481,-3.3544,-3.3544,-3.3544,-3.3607,-3.3544,-3.3544,-3.3544,-3.3897,-3.4457,-3.5236,-3.6088,-3.7289,-3.9315,-4.1303,-4.3309,-4.5344,-4.7329,-4.9155,-5.0837,-5.1445,-5.1836,-5.2108,-5.1624,-5.1071,-5.0544,-4.9941,-4.959,-4.959,-4.959,-4.959,-4.959,-4.959,-4.959,-4.959,-4.959,-4.959,-4.959,-4.959,-4.9012,-4.7908,-4.7908,-4.733,-4.6301,-4.6301,0.0,0.0,-4.6301,-4.6301,-4.6301,-4.6301,-4.6301,-4.6301,-4.6301,-4.5949,-4.5354,0.0,0.0,0.0,0.0,0.0,0.0,0.0,-3.1863,-3.2373,-3.2864,-3.2939,-3.3121,-3.3582,-3.3547,-3.3411,0.0,0.0,0.0,0.0,0.0,0.0,0.0,0.0,0.0,0.0,0.0,-3.4177,-3.4868,-3.5141,0.0,0.0,0.0,0.0,0.0,0.0,-3.5174,-3.4741,-3.4943,0.0,0.0,0.0,0.0,0.0,0.0,0.0,0.0,0.0,0.0,-3.4409,-3.4285,-3.4033,-3.367,-3.367,-3.3544,-3.3418,-3.3418,-3.3418,-3.3418,-3.3418,-3.3418,-3.3418,-3.3418,-3.3418,-3.3418,-3.3418,-3.3418,-3.3418,-3.3418,-3.3555,-3.3951,-3.4786,-3.5369,-3.6329,-3.8153,-3.9635,-4.121,-4.3034,-4.4983,-4.6878,-4.8499,-4.9704,-5.0604,0.0,0.0,-5.0519,-4.9967,-4.9715,-4.959,-4.959,-4.959,-4.959,-4.959,-4.959,-4.959,-4.959,-4.959,-4.959,-4.959,-4.959,-4.9012,-4.7908,-4.7908,-4.733,-4.6301,-4.6301,0.0,0.0,-4.6301,-4.6301,-4.6301,-4.6301,-4.6301,-4.6301,-4.6301,-4.6055,-4.5565,0.0,0.0,0.0,0.0,0.0,-3.0959,-3.1336,-3.2014,-3.2616,-3.3018,-3.3111,-3.3345,-3.4073,-3.45,-3.4774,-3.4981,0.0,0.0,0.0,0.0,0.0,0.0,0.0,0.0,0.0,0.0,-3.5696,-3.62,-3.6526,-3.685,0.0,0.0,-3.7441,-3.7066,0.0,0.0,0.0,0.0,0.0,0.0,0.0,0.0,0.0,0.0,0.0,0.0,0.0,0.0,0.0,0.0,0.0,-3.4047,-3.3922,-3.3733,-3.3544,-3.3418,-3.3418,-3.3418,-3.3418,-3.3418,-3.3418,-3.3418,-3.3418,-3.3418,-3.3418,-3.3418,-3.3418,-3.3418,-3.3418,-3.3691,-3.4551,-3.4903,-3.5627,-3.7157,-3.8255,-3.949,-4.116,-4.2985,-4.4823,-4.6517,-4.8011,-4.9204,-4.9903,-5.0033,-4.9887,-4.9486,-4.9525,-4.959,-4.959,-4.959,-4.959,-4.959,-4.959,-4.959,-4.959,-4.959,-4.959,-4.959,-4.959,-4.9012,-4.7908,-4.7908,-4.733,-4.6301,-4.6301,0.0,0.0,-4.6301,-4.6301,-4.6301,-4.6301,-4.6301,-4.6301,-4.6301,-4.612,-4.5828,0.0,0.0,0.0,0.0,0.0,0.0,0.0,-3.234,-3.3111,-3.3111,-3.3111,-3.3495,-3.46,-3.468,-3.5152,-3.6257,0.0,0.0,0.0,0.0,0.0,0.0,0.0,0.0,0.0,0.0,-3.6602,-3.7089,-3.7441,-3.7868,-3.8421,-3.8684,-3.8526,-3.7974,0.0,0.0,0.0,0.0,0.0,0.0,0.0,0.0,0.0,0.0,0.0,0.0,0.0,0.0,0.0,0.0,0.0,0.0,0.0,-3.3922,-3.3859,-3.3481,-3.3418,-3.3418,-3.3418,-3.3418,-3.3418,-3.3418,-3.3418,-3.3418,-3.3418,-3.3418,-3.3418,-3.3418,-3.3418,-3.3691,-3.4551,-3.4707,-3.5112,-3.6313,-3.7257,-3.8384,-3.9914,-4.1478,-4.3299,-4.5367,-4.6541,-4.7522,-4.8243,-4.878,-4.9137,-4.9137,-4.9396,0.0,-4.959,-4.959,-4.959,-4.959,-4.959,-4.959,-4.959,-4.959,-4.959,-4.959,-4.959,-4.9012,-4.7908,-4.7908,-4.733,-4.6301,0.0,0.0,0.0,-4.6301,-4.6301,-4.6301,-4.6301,-4.6301,-4.6301,-4.6301,-4.6301,-4.618,0.0,0.0,0.0,0.0,0.0,0.0,0.0,-3.2591,-3.3111,-3.3111,-3.3111,-3.3495,-3.46,-3.468,-3.5152,-3.6304,0.0,0.0,0.0,0.0,0.0,0.0,0.0,0.0,0.0,0.0,-3.7805,-3.7998,-3.8655,-3.9026,-3.8998,-3.9655,-3.9578,-3.8893,-3.8579,-3.7838,0.0,0.0,0.0,0.0,0.0,0.0,0.0,0.0,0.0,0.0,0.0,0.0,0.0,0.0,0.0,0.0,0.0,0.0,0.0,-3.3481,-3.3418,-3.3418,-3.3418,-3.3418,-3.3418,-3.3418,-3.3418,-3.3418,-3.3418,-3.3418,-3.3418,-3.3418,-3.3418,-3.3594,-3.416,-3.4512,-3.4949,-3.5622,-3.6392,-3.7305,-3.8364,-3.9708,-4.1246,-4.3161,-4.5142,-4.6596,0.0,0.0,-4.8092,-4.8355,-4.8706,-4.8902,-4.8902,-4.9137,-4.9332,-4.959,-4.959,-4.959,-4.959,-4.959,-4.959,-4.959,-4.9213,-4.8636,-4.7908,-4.7531,-4.6979,0.0,0.0,0.0,0.0,-4.6301,-4.6301,-4.6301,-4.6301,-4.6301,-4.624,-4.6059,-4.5939,-4.5817,0.0,0.0,0.0,0.0,0.0,0.0,0.0,-3.2692,-3.3111,-3.3111,-3.3269,-3.3721,-3.4625,-3.4856,-3.5479,-3.6584,0.0,0.0,0.0,0.0,0.0,0.0,0.0,0.0,0.0,-3.8669,-3.8736,-3.8736,-3.9488,-3.9798,-3.9738,-4.0245,-4.0167,-3.9556,-3.8939,-3.8104,0.0,0.0,0.0,0.0,0.0,0.0,0.0,0.0,0.0,0.0,0.0,0.0,0.0,0.0,0.0,0.0,0.0,0.0,0.0,0.0,-3.3418,-3.3418,-3.3418,-3.3418,-3.3418,-3.3418,-3.3418,-3.3418,-3.3418,-3.3418,-3.3418,-3.3418,-3.3418,-3.3555,-3.3984,-3.4414,-3.4844,-3.5312,-3.5925,-3.6697,-3.7682,-3.8677,-4.0159,-4.2228,-4.3889,0.0,0.0,-4.6338,-4.6874,-4.7364,-4.7762,-4.805,-4.8182,-4.8355,-4.8682,-4.9007,-4.9396,-4.959,-4.959,-4.959,-4.949,-4.9289,-4.8937,-4.836,-4.7606,-4.728,-4.6828,0.0,0.0,0.0,0.0,-4.6301,-4.6301,-4.6301,-4.6301,-4.624,-4.6059,-4.5732,-4.5428,-4.5123,0.0,0.0,0.0,0.0,0.0,0.0,0.0,0.0,0.0,0.0,-3.3545,-3.4123,-3.463,-3.5182,-3.5934,0.0,0.0,0.0,0.0,0.0,0.0,0.0,0.0,0.0,-3.931,-3.931,-3.931,-3.931,-3.9907,-4.0287,-4.0526,-4.0601,-4.0417,-4.0053,-3.8953,-3.7969,0.0,0.0,0.0,0.0,0.0,0.0,0.0,0.0,0.0,0.0,0.0,0.0,0.0,0.0,0.0,0.0,0.0,0.0,0.0,0.0,0.0,0.0,0.0,-3.3418,-3.3418,-3.3418,-3.3418,-3.3418,-3.3418,-3.3418,0.0,-3.3418,-3.3418,-3.3535,-3.3945,-3.4394,-3.4844,-3.5273,-3.5723,-3.6425,-3.7574,-3.8519,-3.9896,0.0,-4.284,0.0,-4.4021,-4.4755,-4.5504,-4.6204,-4.6607,-4.6941,-4.7298,-4.7364,-4.7497,-4.7828,-4.8828,-4.9346,-4.9525,-4.95,-4.9199,-4.8698,-4.8623,-4.8046,-4.7007,-4.6957,-4.6656,0.0,0.0,0.0,0.0,-4.6301,-4.6301,-4.624,-4.624,-4.5999,-4.5635,-4.5281,-4.473,-4.4051,0.0,0.0,0.0,0.0,0.0,0.0,0.0,0.0,0.0,0.0,-3.3545,-3.4123,-3.463,-3.5182,-3.5934,0.0,0.0,0.0,0.0,0.0,0.0,0.0,0.0,0.0,-3.9594,-3.9594,-3.9594,-3.9594,-4.057,-4.0821,-4.0526,-4.1379,-4.1329,-4.0395,-3.9689,-3.8329,0.0,0.0,0.0,0.0,0.0,0.0,0.0,0.0,0.0,0.0,-3.5418,-3.5418,0.0,0.0,0.0,0.0,0.0,0.0,0.0,0.0,-3.3418,-3.3418,-3.3418,0.0,-3.3418,-3.3418,-3.3418,-3.3418,0.0,-3.3418,-3.3418,-3.3418,-3.3418,-3.3457,-3.3555,-3.4199,-3.4726,-3.4844,-3.5508,-3.6327,-3.7152,-3.8726,-4.0354,-4.1651,-4.2018,-4.2419,-4.2909,-4.3653,-4.4274,-4.4709,-4.5324,-4.5731,-4.5799,-4.6092,-4.6294,-4.6429,-4.6561,-4.7327,-4.8837,-4.8417,-4.8184,-4.8036,-4.7131,-4.6463,-4.5968,-4.5552,-4.5282,0.0,0.0,0.0,-4.5939,-4.618,-4.612,-4.5878,-4.5611,-4.5159,-4.4546,-4.3989,-4.3365,-4.2673,0.0,0.0,0.0,0.0,0.0,0.0,0.0,0.0,0.0,0.0,0.0,0.0,0.0,0.0,0.0,0.0,0.0,0.0,0.0,0.0,0.0,0.0,0.0,-3.9697,-3.9697,-3.9697,-3.9697,-3.9697,-4.0802,-4.1125,-4.0902,-4.1756,-4.1886,-4.1254,-3.9981,-3.8437,0.0,0.0,0.0,0.0,0.0,0.0,0.0,0.0,0.0,0.0,-3.5418,-3.5418,0.0,-3.5418,-3.5418,-3.5294,0.0,0.0,0.0,0.0,-3.3418,-3.3418,-3.3418,-3.3418,-3.3418,-3.3418,-3.3418,-3.3418,-3.3418,-3.3418,-3.3418,-3.3418,-3.3418,-3.3418,-3.3418,-3.4121,-3.4707,-3.4707,-3.5449,-3.6425,-3.7574,-3.8794,-4.0007,-4.1063,-4.1381,-4.1664,0.0,-4.2441,-4.2909,-4.3397,-4.3814,-4.4159,-4.4274,-4.4503,-4.4596,-4.4573,-4.4502,-4.5349,-4.7268,-4.6713,-4.6368,-4.6126,-4.5459,-4.4948,-4.4496,-4.4233,-4.4089,0.0,0.0,0.0,-4.5123,-4.5306,-4.5367,-4.5306,-4.4792,-4.4299,-4.374,-4.2925,-4.2166,-4.1527,0.0,0.0,0.0,0.0,0.0,0.0,0.0,0.0,0.0,0.0,0.0,0.0,0.0,0.0,0.0,0.0,0.0,0.0,0.0,0.0,0.0,0.0,0.0,-3.9697,-3.9697,-3.9697,-3.9697,-3.9697,-4.0701,-4.12,-4.13,-4.1907,-4.2103,-4.1913,-3.9968,-3.8391,0.0,0.0,0.0,0.0,0.0,0.0,0.0,0.0,0.0,0.0,0.0,0.0,0.0,-3.5418,-3.5356,-3.5232,-3.461,0.0,0.0,0.0,0.0,0.0,-3.3418,-3.3418,-3.3418,-3.3418,-3.3418,-3.3418,-3.3418,-3.3418,-3.3418,-3.3418,-3.3418,-3.3418,-3.3418,-3.4121,-3.4707,-3.4707,-3.543,-3.6631,-3.8066,-3.8644,-3.9359,-4.0604,-4.077,0.0,-4.1402,-4.1473,-4.1756,-4.237,-4.2511,-4.2608,-4.2779,-4.2849,-4.2769,-4.263,-4.2542,-4.3242,-4.4778,-4.4599,-4.422,-4.3776,-4.3706,-4.3385,-4.2902,-4.2902,-4.2965,-4.3028,0.0,0.0,-4.4175,-4.4175,-4.4299,-4.4484,-4.3802,-4.324,-4.2799,-4.1847,-4.1077,-4.0366,0.0,0.0,0.0,0.0,0.0,0.0,0.0,0.0,0.0,0.0,0.0,0.0,0.0,0.0,0.0,0.0,0.0,0.0,0.0,0.0,0.0,-3.9697,-3.9697,-3.9697,-3.9697,-3.9697,-3.9697,-3.9697,-4.0325,-4.0877,-4.13,-4.1907,-4.1748,-4.0947,-3.969,-3.8278,-3.6822,0.0,0.0,0.0,0.0,0.0,0.0,0.0,0.0,0.0,0.0,0.0,0.0,-3.5418,-3.5232,-3.4922,-3.4548,0.0,0.0,0.0,0.0,0.0,-3.3418,-3.3418,-3.3418,-3.3418,-3.3418,-3.3418,-3.3418,-3.3418,-3.3418,-3.3418,-3.3418,-3.3418,-3.3418,-3.4121,-3.4707,-3.4707,-3.5677,-3.6629,0.0,0.0,-3.8797,-3.9768,0.0,-4.0525,-4.0954,-4.1331,-4.1544,-4.1686,-4.1947,-4.1967,-4.1561,-4.154,-4.1396,-4.1083,-4.0608,-4.0528,-4.0796,-4.1859,-4.2424,-4.2356,-4.1949,-4.1531,-4.1206,-4.1206,-4.1357,-4.1614,0.0,-4.261,-4.3428,-4.3467,-4.3467,-4.3451,-4.2483,-4.1719,-4.1077,-4.0301,-3.9583,-3.8946,0.0,0.0,0.0,0.0,0.0,0.0,0.0,0.0,0.0,0.0,0.0,0.0,0.0,0.0,0.0,0.0,0.0,0.0,0.0,0.0,0.0,-3.9697,-3.9697,-3.9697,-3.9697,-3.9697,-3.9697,-3.9697,-4.0249,-4.0696,-4.1085,-4.1632,-4.1467,-4.0706,-3.9669,-3.8422,-3.7096,-3.654,0.0,0.0,0.0,0.0,0.0,0.0,0.0,0.0,0.0,0.0,0.0,0.0,-3.5046,-3.4797,-3.4298,0.0,0.0,0.0,0.0,0.0,-3.3418,-3.3418,-3.3418,-3.3418,-3.3418,-3.3418,-3.3418,-3.3418,-3.3418,-3.3418,-3.3418,-3.3418,-3.3418,-3.4121,-3.4844,-3.5332,-3.5877,-3.6493,-3.7114,-3.749,-3.8066,0.0,0.0,-3.9666,-3.9877,-4.0228,-4.0459,-4.0459,-4.0578,-4.0543,-4.0333,-4.0312,-4.0103,-3.971,-3.9432,-3.9202,-3.895,-3.9661,-4.0103,-4.0476,-4.028,-4.004,-3.9931,-3.9931,-3.9997,-4.0192,0.0,-4.1357,-4.1975,-4.2166,-4.2229,-4.2125,-4.1293,-4.0647,-4.0105,-3.9386,-3.888,-3.8304,0.0,0.0,0.0,0.0,0.0,0.0,0.0,0.0,0.0,0.0,0.0,0.0,0.0,0.0,0.0,0.0,0.0,0.0,0.0,0.0,-3.9697,-3.9697,-3.9697,-3.9697,-3.9697,-3.9697,-3.9697,-3.9697,-4.0072,-4.0386,-4.0681,-4.1208,-4.1148,-4.0455,-3.9462,-3.8395,-3.7253,-3.6606,-3.5932,0.0,0.0,0.0,0.0,0.0,0.0,0.0,0.0,0.0,0.0,0.0,0.0,0.0,0.0,0.0,0.0,-3.3481,-3.3418,-3.3418,-3.3418,-3.3418,-3.3418,-3.3418,-3.3418,-3.3418,-3.3418,-3.3418,-3.3418,-3.3418,-3.3418,-3.3418,-3.3418,-3.4121,-3.498,-3.5879,-3.6016,-3.6201,-3.6858,-3.6976,-3.7381,-3.8087,-3.8505,-3.8844,-3.8983,-3.926,-3.9399,-3.9468,-3.9468,-3.9426,-3.9323,-3.9302,-3.9096,-3.8641,-3.8688,-3.8523,-3.8191,-3.8191,-3.8437,-3.8967,-3.8967,-3.8967,-3.8967,-3.8967,-3.9012,-3.9144,-3.9735,-4.0279,-4.0712,-4.0993,-4.1057,-4.0993,-4.0344,-3.9735,-3.9254,-3.8747,-3.8437,-3.8125,0.0,0.0,0.0,0.0,0.0,0.0,0.0,0.0,0.0,0.0,0.0,0.0,0.0,0.0,0.0,0.0,0.0,0.0,0.0,0.0,-3.9697,-3.9697,-3.9697,-3.9697,-3.9697,-3.9697,-3.9697,-3.9697,-3.9463,-3.9643,-4.0081,-4.0813,-4.0687,-3.9814,-3.8848,-3.7834,-3.6889,-3.6218,-3.5726,-3.5418,0.0,0.0,0.0,0.0,0.0,0.0,0.0,0.0,0.0,0.0,0.0,0.0,0.0,0.0,-3.3418,-3.3418,-3.3418,-3.3418,-3.3418,-3.3418,-3.3418,-3.3418,-3.3418,-3.3418,-3.3418,-3.3418,-3.3418,-3.3418,-3.3418,-3.3418,-3.3418,-3.4121,-3.498,-3.5879,-3.6016,-3.6035,-3.6055,0.0,-3.6868,-3.7233,-3.7679,-3.8217,-3.8914,-3.9053,-3.9191,-3.9468,-3.9468,-3.9282,-3.8848,-3.8827,-3.8688,-3.8253,-3.8233,-3.8212,-3.8191,-3.8191,-3.8258,-3.8258,-3.8258,-3.8258,-3.8258,-3.8258,-3.8437,-3.8747,-3.9144,-3.967,-4.0344,-4.0344,-4.0344,-4.0279,-3.956,-3.8901,-3.8304,-3.8258,-3.8258,-3.8125,0.0,0.0,0.0,0.0,0.0,0.0,0.0,0.0,0.0,0.0,0.0,0.0,0.0,0.0,0.0,0.0,0.0,0.0,0.0,-3.8868,-3.932,-3.9672,-3.9697,-3.9645,-3.9465,-3.9645,-3.9697,-3.9697,-3.9717,-3.9612,-3.9419,-3.9787,-3.9462,-3.8574,-3.7976,-3.7193,-3.6279,-3.6034,-3.5747,-3.5418,-3.5418,0.0,0.0,0.0,0.0,0.0,0.0,0.0,0.0,0.0,-3.4423,-3.411,-3.3733,-3.3481,-3.3418,-3.3418,-3.3418,-3.3418,-3.3418,-3.3418,-3.3418,-3.3418,-3.3418,-3.3418,-3.3418,-3.3418,-3.3418,-3.3418,-3.3418,-3.3594,-3.4121,-3.4473,-3.498,-3.5879,-3.6016,-3.6016,-3.6016,-3.6152,-3.6338,-3.6455,-3.6798,-3.724,-3.7786,-3.801,-3.8282,-3.8621,-3.8688,-3.8626,-3.844,-3.844,-3.8357,-3.8191,-3.8191,-3.8191,-3.8191,-3.8191,-3.8191,-3.8191,-3.8191,-3.8191,-3.8191,-3.8191,-3.8237,-3.8437,-3.8747,-3.9078,-3.9341,-3.9538,-3.9473,-3.9276,-3.8769,-3.8437,-3.8191,-3.8191,-3.8191,-3.8125,0.0,0.0,0.0,0.0,0.0,0.0,0.0,0.0,0.0,0.0,0.0,0.0,0.0,0.0,0.0,0.0,0.0,0.0,-3.7713,-3.8442,-3.9044,-3.9293,-3.939,-3.9258,-3.8998,-3.8998,-3.9154,-3.9438,-3.9707,-3.9378,-3.846,-3.8908,-3.8475,-3.7317,-3.697,-3.6346,-3.5491,-3.5369,-3.527,-3.5211,-3.5211,-3.5211,0.0,0.0,0.0,0.0,0.0,0.0,0.0,0.0,-3.4423,-3.4173,-3.367,-3.3481,-3.3418,-3.3418,-3.3418,-3.3418,-3.3418,-3.3418,-3.3418,-3.3418,-3.3418,-3.3418,-3.3418,-3.3418,-3.3418,-3.3418,-3.3418,-3.3691,-3.4551,-3.4707,-3.498,-3.5879,-3.6016,-3.6016,-3.6016,-3.6016,-3.6016,-3.6016,-3.62,-3.6471,-3.6876,-3.7213,-3.7616,-3.7971,-3.8125,-3.8191,0.0,-3.8191,-3.8191,-3.8191,-3.8191,-3.8191,-3.8191,-3.8191,-3.8191,-3.8191,-3.8191,-3.8191,-3.8191,-3.8191,-3.8191,-3.8258,-3.8549,-3.8681,-3.8747,-3.9078,-3.9012,-3.8681,-3.8304,-3.8191,-3.8191,-3.8191,-3.8191,-3.8191,0.0,0.0,0.0,0.0,0.0,0.0,0.0,0.0,0.0,0.0,0.0,0.0,0.0,0.0,0.0,0.0,0.0,0.0,-3.7186,-3.829,-3.8742,-3.8413,-3.8625,-3.8684,-3.8421,-3.7791,-3.7897,-3.8788,-3.9249,-3.8635,-3.7002,-3.8202,-3.7798,-3.5976,-3.5806,-3.5265,-3.4606,-3.425,-3.4401,-3.4816,-3.4816,-3.4816,0.0,0.0,0.0,0.0,0.0,0.0,0.0,0.0,-3.4485,-3.3922,-3.3922,-3.367,-3.3418,-3.3418,-3.3418,-3.3418,-3.3418,-3.3418,-3.3418,-3.3418,-3.3418,-3.3418,-3.3418,-3.3418,-3.3418,-3.3418,-3.3418,-3.3691,-3.4551,-3.4707,-3.498,-3.5879,-3.6016,-3.6016,-3.6016,-3.6016,-3.6016,-3.6016,-3.6016,-3.6132,-3.6451,-3.6876,-3.7213,-3.7549,-3.7971,0.0,0.0,-3.8191,-3.8191,-3.8191,-3.8191,-3.8191,-3.8191,-3.8191,-3.8191,-3.8191,-3.8191,-3.8191,-3.8191,-3.8191,-3.8191,-3.8258,-3.8549,-3.8681,-3.8747,-3.9078,-3.9012,-3.8681,-3.8304,-3.8191,-3.8191,-3.8191,-3.8191,-3.8191,0.0,0.0,0.0,0.0,0.0,0.0,0.0,0.0,0.0,0.0,0.0,0.0,0.0,0.0,0.0,0.0,0.0,0.0,-3.7161,-3.7487,-3.7916,-3.8363,-3.828,-3.8136,-3.7868,-3.7227,-3.7173,-3.7601,-3.8129,-3.7895,-3.7002,-3.7291,-3.6916,-3.5896,-3.5676,-3.5323,-3.488,-3.4762,-3.4787,-3.4956,-3.5032,-3.5098,0.0,0.0,0.0,0.0,0.0,0.0,0.0,0.0,0.0,0.0,-3.4047,-3.3859,-3.3733,-3.3481,-3.3418,-3.3418,-3.3418,-3.3418,-3.3418,-3.3418,-3.3418,-3.3418,-3.3418,-3.3418,-3.3418,-3.3418,-3.3418,-3.3691,-3.4551,-3.4707,-3.498,-3.5879,-3.6016,-3.6016,-3.6016,-3.6016,-3.6016,-3.6016,-3.6016,-3.6132,-3.6451,-3.6586,-3.6924,-3.7549,-3.7683,0.0,0.0,-3.8191,-3.8191,-3.8191,-3.8191,-3.8191,-3.8191,-3.8191,-3.8191,-3.8191,-3.8191,-3.8191,-3.8191,-3.8191,-3.8191,-3.8191,-3.8304,-3.837,-3.837,-3.8437,-3.8437,-3.8304,-3.8258,-3.8191,-3.8191,-3.8191,-3.8191,-3.8191,0.0,0.0,0.0,0.0,0.0,0.0,0.0,0.0,0.0,0.0,-3.6405,-3.6405,0.0,0.0,0.0,0.0,0.0,0.0,0.0,-3.7061,-3.7441,-3.7914,-3.7753,-3.7445,-3.6904,-3.6742,-3.6766,-3.6928,-3.7606,-3.7527,-3.6736,-3.7189,-3.6826,-3.5878,-3.5791,-3.5424,-3.4942,-3.4733,-3.4724,-3.4859,-3.4686,-3.4739,-3.4927,0.0,0.0,0.0,0.0,0.0,0.0,0.0,0.0,0.0,-3.4298,-3.3985,-3.3859,-3.3481,-3.3418,-3.3418,-3.3418,-3.3418,-3.3418,-3.3418,-3.3418,-3.3476,-3.3633,-3.3691,-3.3691,-3.3691,-3.3809,-3.4141,-3.4844,-3.498,0.0,-3.5898,-3.6016,-3.6016,-3.6016,-3.6016,-3.6016,-3.6016,-3.6016,-3.6084,-3.6268,-3.6451,-3.6722,-3.7348,-3.7549,0.0,0.0,-3.8191,-3.8191,-3.8191,-3.8191,-3.8191,-3.8191,-3.8191,-3.8191,-3.8191,-3.8191,-3.8191,-3.8191,-3.8191,-3.8191,-3.8191,-3.8191,-3.8191,-3.8191,-3.8191,-3.8191,-3.8191,-3.8191,-3.8191,-3.8191,-3.8191,-3.8191,-3.8191,0.0,0.0,0.0,0.0,0.0,0.0,0.0,0.0,0.0,0.0,-3.6405,-3.6405,0.0,0.0,0.0,0.0,0.0,0.0,0.0,0.0,-3.7143,-3.7244,-3.7221,-3.6808,-3.595,-3.644,-3.6712,-3.6712,-3.7504,-3.7372,-3.6464,-3.7609,-3.7373,-3.5982,-3.6127,-3.5781,-3.508,-3.4513,-3.4471,-3.4726,-3.4122,-3.4106,-3.4526,-3.4687,0.0,0.0,0.0,0.0,0.0,0.0,0.0,0.0,-3.4548,-3.4235,-3.3859,-3.3544,-3.3418,-3.3418,-3.3418,-3.3418,-3.3418,-3.3418,-3.3418,-3.3535,-3.3965,-3.4101,-3.4121,-3.4121,-3.4434,-3.4844,-3.5312,-3.5391,-3.5527,-3.5957,-3.6016,-3.6016,-3.6016,-3.6016,-3.6016,-3.6016,-3.6016,-3.6016,-3.6016,-3.6268,-3.6654,-3.7079,0.0,0.0,-3.8191,-3.8191,-3.8191,-3.8191,-3.8191,-3.8191,-3.8191,-3.8191,-3.8191,-3.8191,-3.8191,-3.8191,-3.8191,-3.8191,-3.8191,-3.8191,-3.8191,-3.8191,-3.8191,-3.8191,-3.8191,-3.8191,-3.8191,-3.8191,-3.8191,-3.8191,-3.8191,-3.8191,0.0,0.0,0.0,0.0,0.0,0.0,0.0,0.0,0.0,0.0,0.0,0.0,0.0,0.0,0.0,0.0,0.0,0.0,0.0,0.0,-3.6841,-3.7494,-3.7508,-3.7269,-3.6796,-3.6766,-3.6712,-3.6712,-3.7369,-3.7637,-3.7601,-3.7655,-3.747,-3.715,-3.6944,-3.6812,-3.6588,-3.6036,-3.5721,-3.5502,-3.481,-3.4417,-3.4355,-3.4289,-3.4277,0.0,0.0,0.0,0.0,0.0,0.0,0.0,-3.4922,-3.4548,-3.4235,-3.3859,-3.3607,-3.3418,-3.3418,-3.3418,-3.3418,-3.3418,-3.3418,-3.3535,-3.3965,-3.4336,-3.457,-3.457,-3.4629,-3.4844,-3.5312,-3.5391,-3.5527,-3.5957,-3.6016,-3.6016,-3.6016,-3.6016,-3.6016,-3.6016,-3.6016,-3.6016,-3.6016,-3.6084,-3.6403,-3.7079,0.0,0.0,-3.8191,-3.8191,-3.8191,-3.8191,-3.8191,-3.8191,-3.8191,-3.8191,-3.8191,0.0,-3.8191,-3.8191,-3.8191,-3.8191,-3.8191,-3.8191,-3.8191,-3.8191,-3.8191,-3.8191,-3.8191,-3.8191,-3.8191,-3.8191,-3.8191,-3.8191,-3.8191,-3.8191,0.0,0.0,0.0,0.0,0.0,0.0,0.0,0.0,0.0,0.0,0.0,0.0,0.0,0.0,0.0,0.0,0.0,0.0,0.0,-3.6405,-3.6716,-3.7394,-3.7387,-3.7416,-3.7358,-3.7036,-3.6982,-3.7143,-3.7435,-3.7732,-3.7974,-3.7974,-3.8027,-3.8133,-3.7844,-3.7737,-3.7708,-3.6958,-3.6526,-3.6168,-3.5201,-3.458,-3.4175,-3.4043,-3.3859,-3.3862,-3.4318,0.0,0.0,0.0,0.0,0.0,0.0,0.0,-3.4548,-3.4047,-3.3796,-3.3607,-3.3418,-3.3418,-3.3418,-3.3418,-3.3418,-3.3535,-3.3965,-3.4394,-3.4766,-3.498,-3.5195,-3.541,-3.5644,-3.5703,-3.5762,-3.5996,-3.6016,-3.6016,-3.6016,-3.6016,-3.6016,-3.6016,-3.6016,-3.6016,-3.6016,-3.6016,-3.6287,-3.7011,0.0,-3.7415,-3.8191,-3.8191,-3.8191,-3.8191,-3.8191,-3.8191,-3.8191,-3.8191,-3.8191,-3.8191,-3.8191,-3.8191,-3.8191,-3.8191,-3.8191,-3.8191,-3.8191,-3.8191,-3.8191,-3.8191,-3.8191,-3.8191,-3.8191,-3.8191,-3.8191,-3.8191,-3.8191,-3.8258,0.0,0.0,0.0,0.0,0.0,0.0,0.0,0.0,0.0,0.0,0.0,0.0,0.0,0.0,0.0,0.0,0.0,0.0,0.0,-3.6505,-3.6718,-3.7196,-3.7278,-3.7421,-3.7613,-3.7257,-3.7197,-3.7435,-3.7382,-3.7518,-3.7761,-3.8185,-3.8526,-3.8788,-3.8631,-3.8579,-3.8579,-3.7708,-3.7227,-3.6796,-3.563,-3.4769,-3.4242,-3.3947,-3.3633,-3.3443,-3.39,-3.4007,-3.4069,-3.4546,0.0,0.0,0.0,0.0,-3.4696,-3.4215,-3.3985,-3.3859,-3.3544,-3.3418,-3.3418,-3.3418,-3.3418,-3.3535,-3.3965,-3.4336,-3.4726,-3.5176,-3.5664,-3.6016,-3.6016,-3.6016,-3.6016,-3.6016,-3.6016,-3.6016,-3.6016,-3.6016,-3.6016,-3.6016,-3.6016,-3.6016,-3.6016,-3.6016,-3.6287,-3.6944,0.0,-3.7415,-3.8037,-3.8191,-3.8191,-3.8191,-3.8191,-3.8191,-3.8191,-3.8191,-3.8191,-3.8191,-3.8191,-3.8191,-3.8191,-3.8191,-3.8191,-3.8191,-3.8191,-3.8191,-3.8191,-3.8191,-3.8191,-3.8191,-3.8191,-3.8191,-3.8191,-3.8191,-3.8191,-3.8258,0.0,0.0,0.0,0.0,0.0,0.0,0.0,0.0,0.0,0.0,-3.6405,-3.6405,-3.6405,-3.6405,0.0,0.0,0.0,0.0,-3.6405,0.0,0.0,-3.719,-3.764,-3.7797,-3.7612,-3.7281,-3.7036,-3.682,-3.6603,-3.6603,-3.6928,-3.7921,-3.8526,-3.8788,-3.905,-3.931,-3.949,-3.8841,-3.8315,-3.7708,-3.6503,-3.5521,-3.4769,-3.4264,-3.3721,-3.3272,-3.3712,-3.3684,-3.3534,-3.4069,-3.4155,0.0,0.0,0.0,-3.4432,-3.4696,-3.436,-3.3859,-3.3859,-3.3607,-3.3418,-3.3418,-3.3418,-3.3535,-3.3965,-3.4121,-3.4277,-3.4707,-3.5449,-3.6016,-3.6016,-3.6016,-3.6016,-3.6016,-3.6016,-3.6016,-3.6016,-3.6016,-3.6016,-3.6016,-3.6016,-3.6016,-3.6016,-3.6016,-3.6152,-3.6519,-3.6876,-3.728,-3.7683,-3.8037,-3.8191,-3.8191,-3.8191,-3.8191,-3.8191,-3.8191,-3.8191,-3.8191,-3.8191,-3.8191,-3.8191,-3.8191,-3.8191,-3.8191,-3.8191,-3.8191,-3.8191,-3.8191,-3.8191,-3.8191,-3.8191,-3.8191,-3.8191,-3.8191,-3.8191,-3.8258,0.0,0.0,0.0,0.0,0.0,0.0,0.0,0.0,0.0,0.0,0.0,-3.6405,-3.6405,-3.6405,0.0,0.0,0.0,0.0,-3.6405,-3.6631,0.0,0.0,-3.6899,-3.696,-3.7128,-3.6526,-3.6195,-3.62,-3.5785,-3.5643,-3.573,-3.6417,-3.7334,-3.8368,-3.8841,-3.9206,-3.9465,-3.9206,-3.8841,-3.8368,-3.7388,-3.6449,-3.5576,-3.5046,-3.4345,-3.3713,-3.3905,-3.3705,-3.3367,-3.3768,-3.3796,-3.3762,-3.4277,0.0,0.0,0.0,-3.4166,-3.4121,-3.4175,-3.4047,-3.3922,-3.3733,-3.367,-3.3666,-3.3716,-3.3887,-3.4121,-3.4316,-3.4844,-3.5351,-3.5625,-3.5859,-3.6016,-3.6016,-3.6016,-3.6016,-3.6016,-3.6016,-3.6016,-3.6016,-3.6016,-3.6016,-3.6016,-3.6016,-3.6152,0.0,-3.6856,-3.728,-3.7549,-3.7971,-3.8191,-3.8191,-3.8191,-3.8191,-3.8191,-3.8191,-3.8191,-3.8191,-3.8191,-3.8191,-3.8191,-3.8191,-3.8191,-3.8191,-3.8191,-3.8191,-3.8191,-3.8191,-3.8191,-3.8191,-3.8191,-3.8191,-3.8191,-3.8191,-3.8191,-3.8258,0.0,0.0,0.0,0.0,0.0,0.0,0.0,0.0,0.0,0.0,0.0,0.0,-3.6405,0.0,0.0,0.0,0.0,0.0,-3.6405,0.0,0.0,0.0,0.0,-3.6252,-3.6514,-3.5858,-3.5489,-3.5504,-3.5024,-3.4813,-3.4869,-3.5069,-3.6036,-3.7601,-3.8315,-3.8788,-3.9154,-3.931,-3.9206,-3.8893,-3.8185,-3.7388,-3.6611,-3.6036,-3.5268,-3.4513,-3.4457,-3.403,-3.3473,-3.3753,-3.3628,-3.3402,-3.3879,-3.3945,0.0,0.0,0.0,-3.4126,-3.4203,-3.4262,-3.422,-3.409,-3.4047,-3.3922,-3.3607,-3.3799,-3.4034,-3.397,-3.4238,-3.4687,-3.5137,-3.5566,-3.5898,-3.5996,-3.6016,-3.6016,-3.6016,-3.6016,-3.6016,-3.6016,-3.6016,-3.6016,-3.6016,-3.6016,-3.6084,0.0,-3.6742,-3.7079,-3.7415,-3.7837,-3.8104,-3.8191,-3.8191,-3.8191,-3.8191,-3.8191,-3.8191,-3.8191,-3.8191,-3.8191,-3.8191,-3.8191,-3.8191,-3.8191,-3.8191,-3.8191,-3.8191,-3.8191,-3.8191,-3.8191,-3.8191,-3.8191,-3.8191,-3.8191,-3.8191,-3.8325,0.0,0.0,0.0,0.0,0.0,0.0,0.0,0.0,0.0,0.0,0.0,0.0,-3.6405,-3.6405,-3.6405,-3.6405,0.0,0.0,0.0,0.0,0.0,0.0,0.0,0.0,-3.5639,-3.5538,-3.5199,-3.4683,-3.4294,-3.4255,-3.4534,-3.4513,-3.5235,-3.644,-3.7548,-3.8315,-3.8841,-3.9438,-3.9517,-3.9258,-3.8893,-3.8421,-3.7814,-3.7227,-3.6472,-3.5708,-3.5433,-3.4791,-3.4052,-3.4073,-3.3678,-3.3308,-3.3712,-3.3663,-3.3492,0.0,0.0,0.0,-3.3801,-3.3819,-3.392,-3.426,-3.436,-3.4298,-3.3922,-3.3879,-3.3836,-3.352,-3.3809,-3.4238,-3.4668,-3.5117,-3.5566,-3.5957,-3.6016,-3.6016,-3.6016,-3.6016,-3.6016,-3.6016,-3.6016,-3.6016,-3.6016,-3.6016,-3.6016,0.0,-3.6336,-3.6722,-3.7079,-3.7415,-3.7837,-3.8191,-3.8191,-3.8191,-3.8191,-3.8191,-3.8191,-3.8191,-3.8191,-3.8191,-3.8191,-3.8191,-3.8191,-3.8191,-3.8191,-3.8191,-3.8191,-3.8191,-3.8191,-3.8191,-3.8191,-3.8191,-3.8191,-3.8191,-3.8191,-3.8325,0.0,0.0,0.0,0.0,0.0,0.0,0.0,0.0,0.0,0.0,0.0,0.0,0.0,-3.6405,-3.6405,-3.6405,-3.6405,0.0,0.0,0.0,0.0,0.0,0.0,0.0,-3.502,-3.4555,-3.4276,-3.4314,-3.3857,-3.3819,-3.4255,-3.4602,-3.5212,-3.6036,-3.715,-3.808,-3.8841,-3.9438,-3.9645,-3.9542,-3.9258,-3.8893,-3.8473,-3.8104,-3.7495,-3.6881,-3.658,-3.5927,-3.5157,-3.4991,-3.4401,-3.3791,-3.3941,-3.3663,-3.3346,-3.3551,-3.3558,-3.3543,-3.3897,-3.4226,-3.4431,-3.4329,-3.4532,-3.461,-3.4298,-3.4235,-3.411,-3.3796,-3.3851,-3.4123,-3.4636,-3.5078,-3.5527,-3.5957,-3.6016,-3.6016,-3.6016,-3.6269,-3.6445,-3.6445,-3.668,-3.6738,-3.6465,-3.6445,-3.6328,0.0,0.0,-3.6654,-3.7079,-3.7415,-3.777,-3.8191,-3.8191,-3.8191,-3.8191,-3.8191,-3.8191,-3.8191,-3.8437,-3.8482,-3.857,-3.8769,-3.8835,-3.8835,-3.8835,-3.857,-3.8191,-3.8191,-3.8191,-3.8258,-3.8437,-3.8482,-3.857,-3.8769,-3.8835,-3.8967,0.0,0.0,0.0,0.0,0.0,0.0,0.0,0.0,-3.6606,-3.643,0.0,0.0,0.0,0.0,-3.6405,-3.6405,-3.6405,-3.6405,-3.6405,-3.6405,0.0,0.0,0.0,0.0,-3.5008,-3.4396,-3.4239,-3.4499,-3.3868,-3.3922,-3.4534,-3.4769,-3.5356,-3.6309,-3.7257,-3.808,-3.8841,-3.9438,-3.9697,-3.9697,-3.9542,-3.931,-3.905,-3.8788,-3.8396,-3.7897,-3.7601,-3.7012,-3.634,-3.6091,-3.5378,-3.4624,-3.4457,-3.3861,-3.3188,-3.3194,-3.3161,-3.3265,-3.372,-3.4051,-3.4362,-3.443,-3.4677,-3.48,-3.4632,-3.4548,-3.4485,-3.411,-3.4047,-3.4203,-3.4744,-3.5126,-3.5485,-3.5937,-3.6016,-3.6074,-3.6211,-3.6484,-3.6719,-3.6875,-3.7129,-3.7187,-3.6914,-3.6758,-3.6543,0.0,0.0,0.0,-3.7079,-3.728,-3.7703,-3.8191,-3.8304,-3.837,-3.837,-3.8503,-3.8503,-3.857,-3.8747,-3.888,-3.888,-3.9078,-3.921,-3.921,-3.921,-3.8967,-3.8503,-3.8503,-3.8503,-3.857,-3.888,-3.9078,-3.9057,-3.9538,-3.9735,-3.9866,0.0,0.0,0.0,0.0,0.0,0.0,0.0,0.0,-3.701,-3.6531,0.0,0.0,0.0,0.0,0.0,-3.643,-3.6405,-3.6405,-3.6405,-3.6405,0.0,0.0,0.0,0.0,-3.5645,-3.5303,-3.5125,-3.5149,-3.4446,-3.4558,-3.5423,-3.5102,-3.5685,-3.7143,-3.7708,-3.8315,-3.8841,-3.9438,-3.9697,-3.9697,-3.9697,-3.9697,-3.9697,-3.9413,-3.9102,-3.8788,-3.8526,-3.8027,-3.7524,-3.7227,-3.658,-3.574,-3.508,-3.4099,-3.3126,-3.2841,-3.2727,-3.283,0.0,0.0,0.0,-3.4567,-3.4816,-3.4818,-3.4882,-3.4922,-3.4797,-3.4485,-3.4423,-3.4564,-3.5006,-3.5191,-3.5376,-3.5927,-3.6016,-3.6172,-3.6601,-3.668,-3.6855,-3.7266,-3.7324,-3.7324,-3.7324,-3.6953,-3.6699,0.0,-3.6289,-3.6375,-3.7079,-3.7146,-3.7482,-3.8191,-3.857,-3.8681,-3.8681,-3.9012,-3.921,-3.921,-3.921,-3.9276,-3.9276,-3.9276,-3.9276,-3.9276,-3.9276,-3.9276,-3.9276,-3.921,-3.921,-3.9276,-3.9648,-3.9779,-3.9844,-4.056,-4.0906,-4.0971,0.0,0.0,0.0,0.0,0.0,-3.8442,-3.7864,-3.7789,-3.7739,0.0,0.0,0.0,-3.7563,-3.7186,-3.7008,-3.7008,-3.6631,-3.6405,-3.6405,-3.6405,-3.6405,-3.6405,-3.6495,-3.6478,-3.6161,-3.5905,-3.5872,-3.6028,-3.5215,-3.5125,-3.5708,-3.5817,-3.6309,-3.712,-3.7921,-3.8631,-3.9206,-3.9542,-3.9697,-3.9697,-3.9697,-3.9697,-3.9697,-3.9645,-3.9542,-3.9438,-3.9154,-3.8788,-3.8396,-3.8133,-3.7441,-3.6526,-3.53,-3.4435,-3.3749,-3.3239,-3.2898,-3.2747,-3.2871,0.0,0.0,0.0,0.0,0.0,0.0,-3.5232,-3.517,-3.4859,-3.4735,-3.4814,-3.507,-3.5385,-3.5756,-3.625,-3.6138,-3.6172,-3.6601,-3.6934,-3.7285,-3.7695,-3.8027,-3.8105,-3.7773,-3.7637,0.0,0.0,-3.6562,-3.669,-3.7099,-3.7636,-3.7971,-3.8191,-3.857,-3.8681,-3.8681,-3.9254,-3.9583,-3.9583,-4.0323,-4.0712,-4.0712,-4.1206,-4.1335,-4.1077,-4.1335,-4.1271,-4.1035,-4.0236,-4.0127,-4.0388,-4.1013,-4.1399,-4.1633,-4.2079,-4.2397,-4.265,0.0,0.0,0.0,0.0,0.0,-3.9019,-3.8442,-3.8366,-3.8291,0.0,0.0,0.0,-3.8015,-3.7713,-3.7538,-3.7538,-3.7236,-3.7036,-3.7036,-3.7036,-3.7036,-3.7036,-3.7216,-3.7219,-3.7072,-3.6772,-3.6804,-3.71,-3.608,-3.5826,-3.62,-3.6145,-3.6363,-3.6982,-3.7814,-3.8579,-3.9102,-3.9542,-3.9697,-3.9697,-3.9697,-3.9697,-3.9697,-3.9697,-3.9697,-3.9697,-3.9517,-3.931,-3.9102,-3.8893,-3.8133,-3.7066,-3.585,-3.4991,-3.4345,-3.3749,-3.3239,-3.2898,-3.2898,-3.3028,-3.3223,-3.3658,0.0,0.0,-3.5045,-3.5293,-3.5356,0.0,-3.5108,-3.5128,-3.5206,-3.5648,-3.6111,-3.6289,-3.641,-3.664,-3.7114,-3.7359,-3.7661,-3.8125,-3.8418,-3.8476,-3.8223,-3.8027,-3.7656,-3.6992,-3.6758,-3.6809,-3.7099,-3.777,-3.8191,-3.8191,-3.8636,-3.9012,-3.9123,-3.9975,-4.0495,-4.0797,-4.1527,-4.1975,-4.2166,-4.242,-4.242,-4.2229,-4.2293,-4.2356,-4.2379,-4.1911,-4.1655,-4.1719,-4.2356,-4.2736,-4.2988,-4.3467,-4.3778,-4.3965,0.0,0.0,-3.9697,-3.9697,-3.9697,-3.9521,-3.9044,-3.902,-3.8768,0.0,-3.8191,-3.8191,-3.8191,-3.814,-3.809,-3.809,-3.804,-3.8015,-3.8015,-3.8015,-3.8015,-3.8015,-3.8065,-3.809,-3.809,-3.7917,-3.794,-3.8128,-3.7016,-3.659,-3.682,-3.62,-3.62,-3.6766,-3.7601,-3.8315,-3.8841,-3.9438,-3.9697,-3.9697,-3.9697,-3.9697,-3.9697,-3.9697,-3.9697,-3.9697,-3.9697,-3.9697,-3.9645,-3.9362,-3.8607,-3.7548,-3.6665,-3.574,-3.4914,-3.4345,-3.3749,-3.3296,-3.3203,-3.2955,-3.283,-3.3265,-3.372,0.0,-3.4712,-3.5107,-3.5418,0.0,-3.5418,-3.5418,-3.5418,-3.5889,-3.6292,-3.6333,-3.6806,-3.732,-3.7719,-3.7827,-3.8023,-3.8563,-3.8627,-3.8574,-3.8574,-3.8223,-3.7793,-3.7324,-3.6925,-3.6838,-3.7099,-3.7837,-3.8258,-3.8258,-3.8901,-3.9407,-3.9779,-4.0841,-4.1678,-4.2356,-4.2776,-4.3153,-4.3467,-4.3216,-4.3028,-4.3028,-4.2736,-4.2925,-4.3514,-4.3864,-4.3615,-4.3091,-4.374,-4.3989,-4.4051,-4.4669,-4.4915,-4.4976,0.0,-3.9697,-3.9697,-3.9697,-3.9697,-3.9647,-3.9546,-3.9521,-3.9496,-3.9371,-3.9371,-3.9371,-3.9371,-3.8969,-3.8693,-3.8693,-3.8266,-3.8015,-3.8015,-3.8015,-3.8015,-3.8015,-3.8467,-3.8693,-3.8693,-3.8865,-3.8985,-3.9057,-3.8146,-3.7583,-3.7435,-3.682,-3.6688,-3.7036,-3.7708,-3.8315,-3.8841,-3.9438,-3.9697,-3.9697,-3.9697,-3.9697,-3.9697,-3.9697,-3.9697,-3.9697,-3.9697,-3.9697,-3.9645,-3.9362,-3.8945,-3.8421,-3.7601,-3.6665,-3.5795,-3.4969,-3.4345,-3.3805,-3.3296,-3.3146,-3.3116,-3.3323,-3.372,0.0,-3.4712,-3.5107,-3.5418,0.0,-3.5418,-3.5418,-3.5418,-3.581,-3.6243,-3.6614,-3.713,-3.7478,-3.7674,-3.7768,-3.7975,-3.8438,-3.8577,-3.8574,-3.8574,-3.8496,-3.8125,-3.7363,-3.7133,-3.7044,-3.7079,-3.8083,-3.8615,-3.8615,-3.9231,-3.9822,-4.0214,-4.1164,-4.2061,-4.2696,-4.3615,-4.4175,-4.4546,-4.4755,-4.4669,-4.4422,-4.4631,-4.4631,-4.4546,-4.5184,-4.5,-4.4484,-4.4878,-4.5184,-4.5453,-4.5574,-4.5757,-4.5999,-3.9697,-3.9697,-3.9697,-3.9697,-3.9697,-3.9697,-3.9697,-3.9697,-3.9697,-3.9697,-3.9923,-4.0099,-4.0099,-3.9848,-3.9697,-3.9697,-3.917,-3.8843,-3.8843,-3.8843,-3.8843,-3.8843,-3.912,-3.927,-3.927,-3.9443,-3.949,-3.949,-3.8631,-3.7974,-3.7548,-3.6982,-3.6712,-3.6766,-3.7601,-3.8185,-3.8631,-3.9387,-3.9697,-3.9697,-3.9697,-3.9697,-3.9697,-3.9697,-3.9697,-3.9697,-3.9697,-3.9697,-3.9697,-3.9542,-3.931,-3.8945,-3.8368,-3.7708,-3.6935,-3.6231,-3.5488,-3.4847,-3.4211,-3.384,-3.3643,-3.3512,-3.3905,0.0,0.0,-3.5043,-3.5418,-3.5418,-3.5418,-3.5418,-3.5418,-3.579,-3.6183,-3.6411,-3.7032,-3.7522,-3.7554,-3.7867,-3.8107,-3.8427,-3.8454,-3.8521,-3.8521,-3.8287,-3.796,-3.7311,-3.7188,-3.728,-3.7636,-3.8283,-3.888,-3.9188,-3.9866,-4.0517,-4.1035,-4.2229,-4.3114,-4.3802,-4.4631,-4.5245,-4.555,-4.5574,-4.5453,-4.5306,-4.5331,-4.5331,-4.5306,-4.5635,-4.5696,-4.555,-4.5757,-4.5878,-4.6059,-4.6059,-4.612,-4.6301,-3.9894,-3.9946,-3.9946,-3.9998,-4.0023,-4.0023,-4.0023,-4.0023,-4.0023,-4.0023,-4.04,-4.0676,-4.0676,-4.0676,-4.0676,-4.0676,-4.0275,-3.9973,-3.9848,-3.9848,-3.9798,-3.9697,-3.9697,-3.9697,-3.9697,-3.9697,-3.9697,-3.9697,-3.8945,-3.8291,-3.7737,-3.7281,-3.6904,-3.6742,-3.7708,-3.8315,-3.8631,-3.9387,-3.9697,-3.9697,-3.9697,-3.9697,-3.9697,-3.9697,-3.9697,-3.9697,-3.9697,-3.9697,-3.9722,-3.9823,-3.9692,-3.9484,-3.9269,-3.8872,-3.834,-3.775,-3.699,-3.6255,-3.5624,-3.5055,-3.4571,-3.4232,-3.4508,-3.4829,0.0,0.0,0.0,-3.5479,-3.5418,0.0,0.0,0.0,0.0,0.0,0.0,0.0,0.0,-3.7801,0.0,-3.8384,-3.8386,-3.8377,-3.8377,-3.7997,-3.7659,-3.7302,-3.734,-3.7569,-3.8191,-3.8747,-3.9386,-3.9975,-4.0755,-4.1527,-4.2189,-4.3302,-4.4237,-4.4915,-4.5489,-4.5999,-4.6301,-4.5999,-4.5878,-4.5878,-4.5635,-4.5635,-4.5878,-4.5878,-4.6059,-4.6301,-4.6301,-4.6301,-4.6301,-4.6301,-4.6301,-4.6301,-4.0537,-4.0753,-4.0807,-4.11,-4.11,-4.11,-4.11,-4.11,-4.11,-4.11,-4.115,-4.12,-4.12,-4.12,-4.12,-4.12,-4.1125,-4.0953,-4.045,-4.0425,-4.0199,-3.9722,-3.9697,-3.9697,-3.9697,-3.9697,-3.9697,-3.9697,-3.9362,-3.8998,-3.8631,-3.8368,-3.821,-3.821,-3.8579,-3.8893,-3.9206,-3.9542,-3.9697,-3.9697,-3.9697,-3.9697,-3.9697,-3.9697,-3.9697,-3.9697,-3.9697,-3.9697,-3.9772,0.0,-4.0373,-4.0395,0.0,-4.0483,-4.0104,-3.9478,0.0,0.0,0.0,0.0,0.0,0.0,-3.6077,-3.5994,-3.5994,0.0,-3.5849,-3.5849,0.0,0.0,0.0,0.0,0.0,0.0,0.0,0.0,-3.6825,-3.7257,-3.7765,-3.8269,-3.8324,-3.8377,-3.8377,-3.7995,-3.7714,-3.7674,-3.7881,-3.8125,-3.8191,-3.967,-4.0755,-4.1142,-4.2079,-4.2925,-4.3553,-4.3989,-4.4607,-4.5281,-4.5611,-4.5999,-4.6301,-4.624,-4.624,-4.624,-4.618,-4.618,-4.624,-4.624,-4.624,-4.6301,-4.6301,-4.6301,-4.6301,-4.6301,-4.6301,-4.6301,-3.9657,-3.9946,-4.0166,-4.0493,-4.0572,-4.0681,-4.1006,-4.1168,-4.1275,-4.1275,-4.1605,-4.1806,-4.1806,-4.1806,-4.1806,-4.1806,-4.153,-4.1175,-4.0949,-4.0949,-4.0752,-4.0199,-4.0174,-4.0023,-3.9697,-3.9697,-3.9697,-3.9697,-3.9413,-3.9102,-3.8788,-3.8684,-3.8579,-3.8421,-3.8893,-3.9154,-3.931,-3.9594,-3.9697,-3.9697,-3.9697,-3.9697,-3.9697,-3.9697,-3.9697,-3.9697,-3.9697,-3.9697,-3.9772,0.0,-4.0526,0.0,0.0,0.0,0.0,-4.0439,0.0,0.0,0.0,0.0,0.0,0.0,0.0,0.0,-3.7067,0.0,-3.6462,0.0,0.0,0.0,0.0,0.0,0.0,0.0,-3.6311,0.0,0.0,0.0,-3.7277,0.0,0.0,0.0,-3.7935,0.0,0.0,0.0,-3.8274,-3.8814,-3.967,-4.0777,-4.1719,-4.242,-4.324,-4.3927,-4.436,-4.4939,-4.5306,-4.5611,-4.5939,-4.618,-4.6301,-4.6301,-4.6301,-4.6301,-4.6301,-4.6301,-4.6301,-4.6301,-4.6301,-4.6301,-4.6301,-4.6301,-4.6301,-4.6301,-4.6301,-4.6301,-3.8413,-3.9014,-3.9714,-4.0105,-4.0272,-4.055,-4.1235,-4.1563,-4.1781,-4.1781,-4.2133,-4.2439,-4.2439,-4.2439,-4.2439,-4.2439,-4.2007,-4.1731,-4.158,-4.1555,-4.1329,-4.0752,-4.0752,-4.0475,-3.9923,-3.9923,-3.9848,-3.9697,-3.9542,-3.9258,-3.905,-3.905,-3.8945,-3.8788,-3.9206,-3.9413,-3.9413,-3.9645,-3.9697,-3.9697,-3.9697,-3.9697,-3.9697,-3.9697,-3.9697,-3.9697,-3.9697,-3.9697,-3.9798,-4.0501,-4.0752,0.0,-4.1555,0.0,-4.1727,0.0,0.0,0.0,-4.0494,0.0,0.0,0.0,0.0,0.0,0.0,0.0,0.0,0.0,0.0,0.0,0.0,0.0,0.0,0.0,0.0,-3.6664,0.0,-3.6834,0.0,0.0,0.0,0.0,0.0,0.0,0.0,0.0,0.0,-3.9779,-4.1035,-4.1847,-4.2736,-4.3678,-4.436,-4.4853,-4.522,-4.5671,-4.5939,-4.5939,-4.618,-4.6301,-4.6301,-4.6301,-4.6301,-4.6301,-4.6301,-4.6301,-4.6301,-4.6301,-4.6301,-4.6301,-4.6301,-4.6301,-4.6301,-4.6301,-4.6301,-4.6301,-3.6946,-3.8424,-3.9919,-4.0558,-4.0928,-4.1386,-4.2294,-4.2743,-4.2936,-4.2936,-4.2936,-4.2961,-4.2961,-4.2961,-4.2961,-4.2961,-4.2936,-4.2766,-4.2213,-4.2187,-4.1882,-4.1275,-4.125,-4.1,-4.0501,-4.0501,-4.0224,-3.9697,-3.9697,-3.9697,-3.9697,-3.9697,-3.9645,-3.9645,-3.9697,-3.9697,-3.9697,-3.9697,-3.9697,-3.9697,-3.9697,-3.9697,-3.9697,0.0,-3.9697,-3.9697,-3.9697,0.0,0.0,-4.0953,-4.125,0.0,0.0,0.0,0.0,0.0,0.0,0.0,0.0,0.0,0.0,-4.1501,0.0,0.0,0.0,0.0,-3.9026,0.0,0.0,0.0,0.0,0.0,-3.7374,-3.7374,0.0,0.0,0.0,0.0,0.0,0.0,0.0,0.0,0.0,-3.801,-3.8439,0.0,-4.0301,0.0,-4.1742,-4.2988,-4.4051,-4.473,-4.5367,-4.5878,-4.624,-4.624,-4.6301,-4.6301,-4.6301,-4.6301,-4.6301,-4.6301,-4.6301,-4.6301,-4.6301,-4.6301,-4.6301,-4.6301,-4.6301,-4.6301,-4.6301,-4.6301,-4.6301,-4.6301,-4.6301,-4.6301,-3.6279,-3.695,-3.7834,-3.8885,-3.938,-4.0083,-4.1663,-4.2344,-4.2737,-4.2986,-4.2986,-4.3112,-4.3489,-4.3514,-4.3514,-4.3514,-4.3514,-4.3288,-4.2735,-4.2766,-4.2459,-4.1907,-4.1882,-4.163,-4.1025,-4.0701,-4.0425,-4.0249,-3.9873,-3.9697,-3.9697,-3.9697,-3.9697,-3.9697,-3.9697,-3.9697,-3.9697,-3.9697,-3.9697,-3.9697,-3.9697,-3.9697,-3.9697,0.0,-3.9697,-3.9697,-3.9697,-3.9697,0.0,-4.0924,-4.1275,-4.1476,-4.2635,-4.2986,-4.2986,-4.2986,-4.293,0.0,0.0,0.0,-4.2457,-4.2231,0.0,0.0,0.0,0.0,0.0,0.0,0.0,0.0,0.0,0.0,-3.918,-3.8967,-3.8648,0.0,0.0,0.0,0.0,0.0,0.0,0.0,0.0,0.0,0.0,0.0,-4.0778,0.0,0.0,-4.4175,-4.4976,-4.5428,-4.5878,-4.618,-4.6301,-4.5949,-4.5773,-4.5773,-4.5372,-4.5196,-4.5196,-4.5598,-4.5773,-4.5773,-4.615,-4.6301,-4.6301,-4.6301,-4.6301,-4.6301,-4.6301,-4.6301,-4.6301,-4.6301,-4.6301,-4.624,-3.5809,-3.5932,-3.6462,-3.7774,-3.8611,-3.9638,-4.1067,-4.1891,-4.2531,-4.3094,-4.3206,-4.3489,-4.4041,-4.4091,-4.4091,-4.4091,-4.4091,-4.3865,-4.3313,-4.3263,-4.3037,-4.2514,-4.2514,-4.2183,-4.163,-4.1279,-4.1003,-4.0749,-4.0249,-3.9998,-3.9973,-3.9798,-3.9697,-3.9697,-3.9697,-3.9697,-3.9697,-3.9697,-3.9697,-3.9697,0.0,-3.9697,0.0,0.0,-3.9697,-3.9722,0.0,-3.9998,-4.0149,-4.1254,-4.163,-4.1781,-4.2685,-4.2986,-4.2986,-4.2986,-4.2986,-4.2986,-4.2986,-4.2986,0.0,-4.2737,-4.2513,0.0,-4.2004,0.0,-4.1263,0.0,0.0,0.0,0.0,0.0,0.0,-4.0257,-3.9943,0.0,0.0,-3.9121,0.0,0.0,0.0,0.0,0.0,0.0,-3.9063,-4.0343,-4.126,0.0,0.0,0.0,-4.5041,-4.5341,-4.5579,-4.5723,-4.5723,-4.5347,-4.5171,-4.5171,-4.4794,-4.4618,-4.4644,-4.502,-4.5296,-4.5497,-4.5874,-4.6125,-4.6301,-4.6301,-4.6301,-4.6301,-4.6301,-4.6301,-4.6301,-4.6301,-4.624,-4.6059,-3.5479,-3.5418,-3.5849,-3.7132,-3.8693,-3.9931,-4.0571,-4.1435,-4.2396,-4.3251,-4.3669,-4.4041,-4.4618,-4.4669,-4.4669,-4.4669,-4.4669,-4.4443,-4.3865,-4.384,-4.3589,-4.3037,-4.3011,-4.276,-4.2263,-4.2213,-4.1907,-4.1326,-4.0774,-4.0551,-4.0501,-3.9973,-3.9722,-3.9697,-3.9697,-3.9697,-3.9697,-3.9697,-3.9697,-3.9697,-3.9697,-3.9697,-3.9697,-3.9697,-3.9722,-3.9798,-4.0325,-4.0526,-4.0727,-4.1835,-4.2213,-4.2313,-4.2811,-4.2986,-4.2986,-4.2986,-4.2986,-4.2986,-4.2986,-4.2986,-4.2986,-4.2986,0.0,0.0,0.0,0.0,-4.2344,0.0,0.0,0.0,0.0,0.0,0.0,0.0,0.0,0.0,0.0,0.0,0.0,0.0,0.0,0.0,0.0,-3.8908,-3.9696,-4.1112,-4.1848,-4.2652,0.0,0.0,-4.4353,-4.456,-4.4618,-4.4618,-4.4618,-4.4593,-4.4593,-4.4593,-4.4543,-4.4543,-4.4543,-4.4568,-4.4895,-4.5447,-4.5472,-4.5799,-4.6301,-4.6301,-4.6301,-4.6301,-4.6301,-4.6301,-4.6301,-4.6301,-4.6059,-4.5757,-3.5479,-3.5603,-3.5972,-3.6545,-3.7637,-3.8693,-3.9556,-4.0996,-4.2296,-4.2905,-4.3796,-4.4644,-4.5196,-4.5271,-4.5271,-4.5271,-4.5271,-4.502,-4.4443,-4.4418,-4.4166,-4.3614,-4.3589,-4.3338,-4.2841,-4.2414,-4.2137,-4.1957,-4.1404,-4.0874,-4.0526,-4.0375,-4.0099,-3.9697,-3.9697,-3.9697,-3.9697,-3.9697,-3.9697,-3.9697,-3.9697,-3.9697,-3.9697,0.0,-3.9948,-4.0325,-4.0475,-4.0777,-4.1229,-4.1932,-4.2213,-4.2313,-4.2811,-4.2986,-4.2986,-4.2986,-4.2986,-4.2986,-4.2986,-4.2986,-4.2986,-4.2986,-4.2986,-4.2986,0.0,0.0,0.0,0.0,0.0,0.0,0.0,0.0,0.0,0.0,0.0,0.0,0.0,0.0,0.0,-4.1239,0.0,0.0,0.0,-3.9918,-4.0564,-4.1377,-4.2252,0.0,0.0,0.0,0.0,-4.4618,-4.4618,-4.4618,-4.4618,-4.4217,-4.4016,-4.4016,-4.3589,-4.3388,-4.3413,-4.3815,-4.4317,-4.4869,-4.5296,-4.5799,-4.6301,-4.6301,-4.6301,-4.6301,-4.6301,-4.6301,-4.6301,-4.6301,-4.6059,-4.5757,-3.6081,-3.6144,-3.6415,-3.6728,-3.7514,-3.8431,-3.9451,-4.1034,-4.2469,-4.3477,-4.4444,-4.5221,-4.5773,-4.5849,-4.5849,-4.5849,-4.5849,-4.5598,-4.5045,-4.4995,-4.4744,-4.4192,-4.4166,-4.389,-4.3338,-4.3037,0.0,-4.2564,-4.1957,-4.153,-4.1229,-4.0752,-4.035,-4.0049,-3.9798,-3.9697,-3.9697,-3.9697,-3.9848,-4.0049,-4.0049,-4.0199,0.0,-4.04,-4.0752,-4.1229,-4.1229,-4.143,-4.1781,-4.2389,-4.2564,-4.2615,-4.2886,-4.2986,-4.2986,-4.2986,-4.2986,-4.2986,-4.2986,-4.2986,-4.2986,-4.2986,-4.2986,-4.2986,-4.2986,-4.2986,-4.2986,0.0,0.0,-4.2986,0.0,0.0,0.0,0.0,0.0,0.0,0.0,0.0,0.0,0.0,-4.2231,0.0,0.0,-4.1009,-4.1268,-4.1755,-4.2356,0.0,0.0,0.0,0.0,-4.3915,-4.3915,-4.3915,-4.3915,-4.3589,-4.3438,-4.3438,-4.3112,-4.2986,-4.2986,-4.3288,-4.3865,-4.4644,-4.497,-4.5573,-4.6301,-4.6301,-4.6301,-4.6301,-4.6301,-4.618,-4.6059,-4.6059,-4.5878,-4.5514,-3.6869,-3.6869,-3.6997,-3.7381,-3.806,-3.8982,-4.0349,-4.1573,-4.288,-4.4301,-4.5241,-4.5874,-4.6376,-4.6476,-4.6502,-4.6426,-4.6426,-4.6175,-4.5623,-4.5598,-4.5347,-4.4769,-4.4744,-4.4468,-4.3915,-4.384,-4.3564,0.0,-4.259,-4.2288,-4.2187,-4.1178,-4.0651,-4.0501,-4.0023,-3.9798,-3.9798,-3.9798,-4.0124,-4.0626,-4.0626,-4.0849,-4.1275,-4.1275,-4.1681,-4.2213,-4.2213,-4.2263,-4.2389,-4.2811,-4.2986,-4.2986,-4.2986,-4.2986,-4.2986,-4.2986,-4.2986,-4.2986,-4.2986,-4.2986,-4.2986,-4.2986,-4.2986,-4.2986,-4.2986,-4.2986,-4.2986,-4.2986,-4.2986,-4.2986,0.0,0.0,0.0,0.0,0.0,0.0,0.0,0.0,0.0,0.0,0.0,0.0,0.0,0.0,0.0,0.0,0.0,0.0,0.0,0.0,0.0,-4.2986,-4.2986,-4.2986,-4.2986,0.0,-4.2986,-4.2986,-4.2986,-4.2986,-4.2986,-4.2986,-4.3589,-4.4618,-4.4618,-4.5271,-4.6301,-4.6301,-4.6301,-4.6301,-4.6301,-4.612,-4.5817,-4.5757,-4.5514,-4.5208,-3.6869,-3.6997,-3.7381,-3.8017,-3.908,-4.0446,-4.2545,-4.2867,-4.3348,-4.4326,-4.5828,-4.6878,-4.6979,-4.738,-4.7456,-4.7029,-4.6979,0.0,0.0,0.0,0.0,-4.5372,-4.5321,-4.507,-4.4493,-4.4041,-4.374,0.0,0.0,-4.2665,-4.2213,-4.2011,-4.1379,-4.0501,-4.0425,-4.0375,-4.0375,-4.0375,0.0,-4.115,-4.115,-4.12,-4.1275,-4.1275,-4.1681,-4.2213,-4.2213,-4.2514,-4.2836,-4.2936,-4.2986,-4.2986,-4.2986,-4.2986,-4.2986,-4.2986,-4.2986,-4.2986,-4.2986,-4.2986,-4.2986,-4.2986,-4.2986,-4.2986,-4.2986,-4.2986,-4.2986,-4.2986,-4.2986,-4.2986,-4.2986,0.0,0.0,0.0,0.0,0.0,0.0,0.0,0.0,0.0,0.0,-4.2986,0.0,0.0,0.0,0.0,0.0,0.0,0.0,0.0,0.0,0.0,-4.2986,0.0,0.0,0.0,-4.2986,-4.2986,-4.2986,-4.2986,-4.2986,-4.2986,-4.3589,-4.4618,-4.4618,-4.5271,-4.6301,-4.6301,-4.6301,-4.6301,-4.6301,-4.612,-4.5757,-4.5514,-4.5208,-4.4902,-3.7835,-3.8205,-3.8873,-3.9822,-4.0944,-4.2349,-4.4413,-4.4963,-4.5378,-4.5995,-4.6897,-4.7531,-4.7531,-4.7757,-4.7807,-4.7556,-4.7531,-4.7305,-4.6778,-4.6728,-4.6502,-4.5949,-4.5924,-4.5648,-4.507,-4.4518,-4.4091,-4.379,0.0,0.0,-4.264,-4.2338,-4.1936,-4.1354,-4.1078,-4.0899,0.0,0.0,0.0,-4.1756,-4.1756,-4.1932,-4.2183,-4.2183,-4.2359,-4.264,-4.264,-4.276,-4.2986,-4.2986,-4.2986,-4.2986,-4.2986,-4.2986,-4.2986,-4.2986,-4.2986,-4.2986,-4.2986,-4.2986,-4.2986,-4.2986,-4.2986,-4.2986,-4.2986,-4.2986,-4.2986,-4.2986,-4.2986,-4.2986,-4.2986,-4.2986,0.0,0.0,0.0,0.0,0.0,0.0,-4.2986,0.0,0.0,0.0,0.0,0.0,0.0,0.0,0.0,0.0,0.0,0.0,0.0,0.0,0.0,0.0,0.0,0.0,0.0,-4.2986,-4.2986,-4.2986,-4.2986,-4.3263,-4.384,-4.4644,-4.4945,-4.5547,-4.6301,-4.6301,-4.618,-4.6059,-4.6059,-4.5757,-4.527,-4.5086,-4.484,-4.4532,-3.9242,-3.9817,-4.0716,-4.1903,-4.2951,-4.4214,-4.6022,-4.6846,-4.7368,-4.7583,-4.7908,-4.8083,-4.8083,-4.8184,-4.8234,-4.8109,-4.8083,-4.7857,-4.733,-4.7143,-4.6928,-4.6502,-4.6376,-4.61,-4.5673,-4.5095,-4.4543,0.0,0.0,0.0,0.0,0.0,0.0,0.0,0.0,0.0,0.0,0.0,-4.1831,-4.2389,-4.2389,-4.264,-4.2986,-4.2986,-4.2986,-4.2986,-4.2986,-4.2986,-4.2986,-4.2986,-4.2986,-4.2986,-4.2986,-4.2986,-4.2986,-4.2986,-4.2986,-4.2986,-4.2986,-4.2986,-4.2986,-4.2986,-4.2986,-4.2986,-4.2986,-4.2986,-4.2986,-4.2986,-4.2986,-4.2986,-4.2986,-4.2986,0.0,0.0,0.0,0.0,0.0,0.0,-4.2986,0.0,0.0,0.0,-4.2986,0.0,0.0,0.0,0.0,0.0,-4.2986,-4.2986,-4.2986,0.0,0.0,-4.2986,-4.2986,0.0,-4.2986,-4.2986,-4.2986,-4.2986,-4.2986,-4.3539,-4.4091,-4.4644,-4.5246,-4.5739,-4.618,-4.618,-4.5999,-4.5696,-4.5696,-4.5331,-4.4779,-4.4779,-4.4594,-4.4285,-4.1007,-4.1815,-4.2748,-4.3519,-4.45,-4.5725,-4.7375,-4.7922,-4.8131,-4.7921,-4.836,-4.8686,-4.8686,-4.9138,-4.9238,-4.8736,-4.8686,-4.8435,-4.7883,-4.738,-4.7043,-4.7054,-4.6577,-4.6276,-4.6225,-4.5698,-4.5121,0.0,0.0,-4.3463,-4.2986,-4.2936,0.0,0.0,0.0,0.0,0.0,-4.2137,-4.2464,-4.2911,-4.2911,-4.2992,-4.2986,-4.2986,-4.2986,-4.2986,-4.2986,-4.2986,-4.2986,-4.2986,-4.2986,-4.2986,-4.2986,-4.2986,-4.2986,-4.2986,-4.2986,-4.2986,-4.2986,-4.2986,-4.2986,-4.2986,-4.2986,-4.2986,-4.2986,-4.2986,-4.2986,-4.2986,-4.2986,-4.2986,-4.2986,-4.2986,-4.2986,0.0,0.0,0.0,0.0,0.0,-4.2986,-4.2986,0.0,0.0,0.0,-4.2986,0.0,0.0,-4.2986,0.0,-4.2986,-4.2986,-4.2986,-4.2986,0.0,-4.2986,-4.2986,-4.2986,-4.2986,-4.2986,-4.2986,-4.2986,-4.2986,-4.3539,-4.4091,-4.4644,-4.5246,-4.562,-4.5817,-4.5817,-4.5635,-4.5331,-4.5331,-4.5147,-4.4779,-4.4779,-4.4594,-4.4285,-4.2793,-4.3456,-4.436,-4.5384,-4.6278,0.0,0.0,-4.9152,-4.9436,-4.8987,-4.9113,-4.9264,-4.9264,-4.9464,-4.9515,-4.9289,-4.9264,-4.9038,-4.846,-4.8234,-4.7832,-4.7093,-4.6928,-4.6652,-4.6326,-4.5773,-4.5372,0.0,0.0,-4.3689,-4.3463,-4.3137,0.0,0.0,0.0,-4.2434,-4.2715,-4.2715,-4.2816,-4.2986,-4.2986,-4.2986,-4.2986,-4.2986,-4.2986,-4.2986,-4.2986,-4.2986,-4.2986,-4.2986,-4.2986,-4.2986,-4.2986,-4.2986,-4.2986,-4.2986,-4.2986,-4.2986,-4.2986,-4.2986,-4.2986,-4.2986,-4.2986,-4.2986,-4.2986,-4.2986,-4.2986,-4.2986,-4.2986,-4.2986,-4.2986,-4.2986,-4.2986,0.0,0.0,0.0,0.0,0.0,0.0,-4.2986,0.0,-4.2986,0.0,0.0,0.0,0.0,0.0,0.0,-4.2986,-4.2986,0.0,-4.2986,0.0,-4.2986,-4.2986,-4.2986,-4.2986,-4.2986,-4.2986,-4.2986,-4.3011,-4.389,-4.4653,-4.535,-4.5575,-4.5619,-4.5514,-4.5514,-4.5331,-4.5025,-4.5025,-4.4779,-4.447,-4.447,-4.4409,-4.4285,-4.4774,0.0,-4.621,0.0,-4.8012,-4.8729,-4.9601,-5.0287,-5.0519,-5.0142,-5.0092,-4.9967,-4.964,-4.959,-4.959,-4.959,-4.959,-4.9439,-4.9038,-4.8862,-4.8435,-4.7657,-4.7305,0.0,-4.6552,-4.6024,-4.5648,-4.5497,-4.4694,-4.4141,-4.379,-4.3237,0.0,0.0,-4.2986,-4.2986,-4.2986,-4.2986,-4.2986,-4.2986,-4.2986,-4.2986,-4.2986,-4.2986,-4.2986,-4.2986,-4.2986,-4.2986,-4.2986,-4.2986,-4.2986,-4.2986,-4.2986,-4.2986,-4.2986,-4.2986,-4.2986,-4.2986,-4.2986,-4.2986,-4.2986,-4.2986,-4.2986,-4.2986,-4.2986,-4.2986,-4.2986,-4.2986,-4.2986,-4.2986,-4.2986,-4.2986,-4.2986,-4.2986,0.0,0.0,0.0,-4.2986,0.0,-4.2986,-4.2986,-4.2986,-4.2986,-4.2986,0.0,0.0,0.0,0.0,0.0,0.0,0.0,0.0,0.0,0.0,0.0,-4.2762,-4.2762,-4.2762,-4.2762,-4.2837,-4.3037,-4.4078,-4.4982,-4.5635,-4.5635,-4.5453,-4.5147,-4.5147,-4.4963,-4.4656,-4.4656,-4.4532,-4.4285,-4.4285,-4.4285,-4.4285,-4.6851,-4.7473,-4.8238,-4.9173,-4.9669,-5.0199,-5.1105,-5.1272,-5.1272,-5.1272,-5.1272,-5.0845,-4.9715,-4.959,-4.959,-4.959,-4.959,-4.959,-4.959,-4.9063,-4.8761,0.0,0.0,-4.7068,-4.7068,-4.6577,-4.6024,-4.5497,0.0,0.0,-4.379,0.0,-4.2986,-4.2986,-4.2986,-4.2986,-4.2986,-4.2986,-4.2986,-4.2986,-4.2986,-4.2986,-4.2986,-4.2986,-4.2986,-4.2986,-4.2986,-4.2986,-4.2986,-4.2986,-4.2986,-4.2986,-4.2986,-4.2986,-4.2986,-4.2986,-4.2986,-4.2986,-4.2986,-4.2986,-4.2986,-4.2986,-4.2986,-4.2986,-4.2986,-4.2986,-4.2986,-4.2986,-4.2986,-4.2986,-4.2986,-4.2986,-4.2986,-4.2986,0.0,0.0,0.0,-4.2986,0.0,-4.2986,-4.2986,-4.2986,-4.2986,-4.2986,0.0,0.0,0.0,0.0,0.0,0.0,0.0,-4.211,-4.211,0.0,-4.211,-4.211,-4.211,-4.211,-4.211,-4.2381,-4.2946,-4.4028,-4.4814,-4.5331,-4.5331,-4.5147,-4.4779,-4.4779,-4.4594,-4.4285,-4.4285,-4.4285,-4.4285,-4.4285,-4.4285,-4.4285,-4.882,-4.9158,-4.9595,-5.0498,-5.0797,-5.0938,-5.1247,-5.1599,-5.1699,-5.1322,-5.1599,-5.1574,-5.082,-5.0393,-5.0167,0.0,-4.9816,-4.959,0.0,-4.9439,-4.9163,-4.8786,-4.8435,-4.7908,-4.7093,-4.6954,-4.6602,-4.605,0.0,0.0,0.0,-4.4192,-4.4091,-4.4091,-4.4091,-4.389,-4.3539,-4.3539,-4.3313,-4.2986,-4.2986,-4.2986,-4.2986,-4.2986,-4.2986,-4.2986,-4.2986,-4.2986,-4.2986,-4.2986,-4.2986,-4.2986,-4.2986,-4.2986,-4.2986,-4.2986,-4.2986,-4.2986,-4.2986,-4.2986,-4.2986,-4.2986,-4.2986,-4.2986,-4.2986,-4.2986,-4.2986,-4.2986,-4.2986,-4.2986,-4.2986,-4.2986,-4.2986,-4.2986,-4.2986,0.0,-4.2986,0.0,-4.2986,-4.2986,-4.2818,-4.2625,0.0,-4.2481,0.0,0.0,0.0,0.0,0.0,0.0,0.0,0.0,-4.211,0.0,-4.211,-4.211,-4.211,-4.211,-4.2479,-4.3118,-4.4028,-4.4372,-4.4694,-4.4963,-4.4963,-4.4779,-4.447,-4.447,-4.4409,-4.4285,-4.4285,-4.4285,-4.4285,-4.4285,-4.4285,-4.4285,-5.029,-5.0414,-5.0655,-5.1498,-5.1599,-5.1649,-5.1875,-5.2201,-5.2302,-5.195,-5.2201,-5.2277,-5.195,-5.1398,0.0,-5.077,-5.0218,-4.9916,-4.9916,-4.9715,-4.9439,-4.9088,-4.8887,-4.846,-4.7757,-4.733,0.0,-4.6627,-4.5849,-4.5296,-4.4945,-4.4719,-4.4618,-4.4618,-4.4618,-4.4443,-4.4116,-4.4116,-4.3915,-4.3589,-4.3589,-4.3589,-4.3589,-4.3589,-4.3589,-4.3589,-4.3589,-4.3589,-4.3589,-4.3589,-4.3589,-4.3589,-4.3589,-4.3589,-4.3514,-4.3112,-4.2986,-4.2986,-4.2986,-4.2986,-4.2986,-4.2874,-4.2793,-4.2793,-4.2793,-4.2793,-4.2874,-4.2986,-4.293,-4.2793,-4.2793,-4.2762,-4.265,-4.265,-4.265,-4.2706,-4.2818,0.0,-4.2793,0.0,0.0,0.0,0.0,-4.2199,-4.211,0.0,0.0,0.0,0.0,0.0,0.0,-4.1769,-4.1769,0.0,-4.1769,-4.1769,-4.1867,-4.2062,-4.2793,-4.35,-4.4159,-4.4293,-4.4463,-4.4594,-4.4594,-4.447,-4.4285,-4.4285,-4.4285,-4.4285,-4.4285,-4.4285,-4.4285,-4.4285,-4.4285,-4.4285,-5.1222,-5.1348,-5.1498,0.0,-5.2176,0.0,-5.2854,-5.2929,-5.2929,-5.2929,-5.2929,-5.2929,-5.2929,-5.2477,-5.195,-5.1448,0.0,0.0,0.0,-4.9941,-4.964,-4.959,-4.9113,-4.8812,-4.8761,-4.7782,-4.7143,-4.7068,-4.6075,-4.5547,-4.5522,-4.4995,-4.4744,-4.4744,-4.4744,-4.4719,-4.4694,-4.4694,-4.4669,-4.4618,-4.4618,-4.4618,-4.4618,-4.4618,-4.4618,-4.4618,-4.4618,-4.4618,-4.4618,-4.4618,-4.4618,-4.4618,-4.4618,-4.4618,-4.4418,-4.3338,-4.3037,-4.3011,-4.2986,-4.2986,-4.2874,-4.2513,-4.2457,-4.2457,-4.2457,-4.2457,-4.2594,-4.2874,-4.2681,-4.2457,-4.2457,-4.2256,-4.211,-4.211,-4.211,-4.2199,-4.2425,0.0,0.0,0.0,0.0,0.0,0.0,-4.2054,-4.2054,0.0,0.0,0.0,0.0,0.0,-4.1435,-4.1172,-4.1172,-4.1172,-4.1172,-4.122,-4.1533,-4.2145,-4.3048,-4.3529,-4.3577,-4.4045,-4.4285,-4.4285,-4.4285,-4.4285,-4.4285,-4.4285,-4.4285,-4.4285,-4.4285,-4.4285,-4.4285,-4.4285,-4.4285,-4.4285,0.0,0.0,-5.2076,-5.2628,-5.2729,-5.2779,-5.2904,-5.2929,-5.2929,-5.2929,-5.2929,-5.2929,-5.2929,-5.2804,-5.2678,-5.2553,-5.1649,-5.0896,-5.0444,-5.0293,-5.0042,-4.9615,-4.9464,-4.9213,-4.8786,-4.851,-4.7983,-4.7068,-4.6451,-4.6125,-4.6125,-4.5974,-4.5924,-4.5924,-4.5924,-4.5673,-4.5271,-4.5271,-4.502,-4.4618,-4.4618,-4.4618,-4.4618,-4.4618,-4.4618,-4.4618,-4.4618,-4.4618,-4.4618,-4.4618,-4.4618,-4.4618,-4.4618,-4.4618,-4.4493,-4.3815,-4.3614,-4.3457,-4.2806,-4.265,-4.2538,-4.2256,-4.2199,-4.2199,-4.2199,-4.2199,-4.2224,-4.2312,-4.2256,-4.2199,-4.2199,-4.2167,-4.211,-4.211,-4.211,-4.211,-4.2199,-4.2199,0.0,0.0,-4.1948,-4.1777,-4.172,-4.1516,-4.1402,0.0,0.0,0.0,0.0,-4.1287,-4.1287,-4.1172,-4.1172,-4.1172,-4.1172,-4.1581,-4.2254,-4.3144,-4.3385,-4.3721,-4.4093,-4.4213,-4.4285,-4.4285,-4.4285,-4.4285,-4.4285,-4.4285,-4.4285,-4.4285,-4.4285,-4.4285,-4.4285,-4.4285,-4.4285,-4.4285,-5.123,-5.1561,-5.1866,-5.2327,-5.2377,-5.2446,-5.2654,-5.2654,-5.2723,-5.2861,-5.2929,-5.2929,-5.2929,-5.2929,-5.2929,-5.2929,-5.2151,-5.1523,-5.1222,-5.0695,-5.0293,-4.9992,-4.9715,-4.9464,-4.9163,-4.8912,-4.8234,-4.7068,-4.6828,-4.6552,-4.6301,-4.6301,-4.6301,-4.6301,-4.6301,-4.615,-4.5874,-4.5874,-4.5673,-4.5397,-4.5397,-4.5397,-4.5397,-4.5397,-4.5397,-4.5397,-4.5397,-4.5397,-4.5397,-4.5397,-4.5397,-4.5397,-4.5397,-4.5397,-4.5296,-4.4719,-4.4277,-4.3886,-4.3415,-4.2995,-4.2552,-4.2021,-4.1802,-4.1688,-4.1859,-4.1859,-4.1915,-4.2054,-4.1972,-4.1859,-4.1859,-4.1745,-4.1712,-4.1712,-4.1712,-4.1745,-4.1859,-4.1859,0.0,-4.1859,-4.172,-4.1549,-4.1435,-4.1287,-4.1172,-4.1172,-4.1172,0.0,-4.1172,-4.1172,-4.1172,-4.1172,-4.1172,-4.1293,-4.1533,-4.2303,-4.2952,-4.3505,-4.377,-4.3997,-4.4285,-4.4285,-4.4285,-4.4285,-4.4285,-4.4285,-4.4285,-4.4285,-4.4285,-4.4285,-4.4285,-4.4285,-4.4285,-4.4285,-4.4285,-4.4285,-5.0693,-5.093,-5.1071,-5.1446,-5.1586,-5.1796,-5.2213,-5.2377,-5.2515,-5.2861,-5.2929,-5.2929,-5.2929,-5.2929,-5.2929,-5.2929,-5.2503,-5.2201,-5.2126,-5.1122,-5.0519,-5.0419,-4.9891,-4.959,-4.959,-4.9063,-4.8309,-4.738,-4.7143,-4.6903,-4.6426,-4.6351,-4.6301,-4.6301,-4.6301,-4.6301,-4.6301,-4.6301,-4.6301,-4.6301,-4.6301,-4.6301,-4.6301,-4.6301,-4.6301,-4.6301,-4.6301,-4.6301,-4.6301,-4.6301,-4.6301,-4.6301,-4.6301,-4.6301,-4.6225,-4.5748,-4.5035,-4.4401,-4.4169,-4.3505,-4.269,-4.1971,-4.1571,-4.135,-4.1613,-4.1598,-4.1606,-4.194,-4.1745,-4.1549,-4.1549,-4.1344,-4.1172,-4.1172,-4.1172,-4.1287,-4.1492,0.0,-4.1549,-4.1549,-4.1549,-4.1435,-4.123,-4.1172,-4.1172,-4.1172,-4.1172,-4.1172,-4.1172,-4.1172,-4.122,-4.1293,-4.1293,-4.1581,-4.2206,-4.3072,-4.3553,-4.3649,-4.4069,-4.4285,-4.4285,-4.4285,-4.4285,-4.4285,-4.4285,-4.4285,-4.4285,-4.4285,-4.4285,-4.4285,-4.4285,-4.4285,-4.4285,-4.4285,-4.4285,-4.4285,-4.9246,-4.9533,-4.989,-5.0269,-5.0624,-5.1047,-5.1771,-5.2213,-5.2515,-5.2861,-5.2929,-5.2929,-5.2929,-5.2929,-5.2929,-5.2929,-5.2854,-5.2603,-5.2126,-5.1498,-5.0921,-5.0444,-4.9891,-4.959,-4.959,-4.9063,-4.8686,-4.851,-4.7581,-4.7043,-4.7004,-4.6527,-4.6301,-4.6301,-4.6301,-4.6301,-4.6301,-4.6301,-4.6301,-4.6301,-4.6301,-4.6301,-4.6301,-4.6301,-4.6301,-4.6301,-4.6301,-4.6301,-4.6301,-4.6301,-4.6301,-4.6301,-4.6301,-4.6301,-4.6301,-4.62,-4.5885,-4.531,-4.4072,-4.3305,-4.2793,-4.2662,-4.2241,-4.1904,-4.1904,-4.1601,-4.1287,-4.1369,-4.1287,-4.123,-4.123,-4.123,-4.1172,-4.1172,-4.1172,-4.1172,-4.123,0.0,-4.123,-4.123,-4.123,-4.123,-4.1172,-4.1172,-4.1172,-4.1172,-4.1172,-4.1172,-4.1172,-4.1172,-4.1389,-4.1846,-4.1904,-4.2303,-4.3265,-4.3433,-4.3746,-4.4165,-4.4237,-4.4285,-4.4285,-4.4285,-4.4285,-4.4285,-4.4285,-4.4285,-4.4285,-4.4285,-4.4285,-4.4285,-4.4285,-4.4285,-4.4285,-4.4285,-4.4285,-4.4285,-4.8282,-4.8499,-4.8694,-4.9078,-4.9485,-4.9985,-5.0789,-5.1352,-5.1935,-5.256,-5.2792,-5.2929,-5.2929,-5.2929,-5.2929,-5.2929,-5.2929,-5.2829,-5.2578,-5.2026,-5.1473,-5.0921,-5.0343,-4.9891,-4.9615,-4.9339,-4.9063,-4.8761,-4.8259,-4.7707,-4.7068,-4.6878,-4.6602,-4.6301,-4.6301,-4.6301,-4.6301,-4.6301,-4.6301,-4.6301,-4.6301,-4.6301,-4.6301,-4.6301,-4.6301,-4.6301,-4.6301,-4.6301,-4.6301,-4.6301,-4.6301,-4.6301,-4.6301,-4.6301,-4.6301,-4.6301,-4.6059,-4.5523,-4.4228,-4.3649,-4.3336,-4.2891,-4.2627,-4.2458,-4.2458,-4.2265,-4.2,-4.1677,-4.1605,-4.1533,-4.1244,-4.1172,-4.1172,-4.1172,-4.1172,0.0,0.0,-4.1172,-4.1172,-4.1172,-4.1172,-4.1172,-4.1172,-4.1172,-4.1172,-4.1172,-4.1172,-4.1317,-4.1605,-4.1605,-4.1846,-4.2434,-4.2663,-4.3024,-4.3505,-4.3818,-4.4021,-4.4285,-4.4285,-4.4285,-4.4285,-4.4285,-4.4285,-4.4285,-4.4285,-4.4285,-4.4285,-4.4285,-4.4285,-4.4285,-4.4285,-4.4285,-4.4285,-4.4285,-4.4285,-4.4285,-4.7868,-4.7941,-4.8086,-4.845,-4.8789,-4.9342,-5.0222,-5.0954,-5.1656,-5.2446,-5.2723,-5.2929,-5.2929,-5.2929,-5.2929,-5.2929,-5.2929,-5.2929,-5.2929,-5.2528,-5.2,-5.1322,-5.0594,-5.0017,-4.9615,-4.959,-4.9389,-4.8962,-4.8837,-4.8335,-4.7506,-4.738,-4.7029,-4.6502,-4.6502,-4.6426,-4.6301,-4.6301,-4.6301,-4.6301,-4.6301,-4.6301,-4.6301,-4.6301,-4.6301,-4.6326,-4.6451,-4.6502,-4.6527,-4.6627,-4.6677,-4.6652,-4.6552,-4.6502,-4.6476,-4.6351,-4.612,-4.5657,-4.4609,-4.4244,-4.4026,-4.3337,-4.3024,-4.2928,-4.2928,-4.2916,-4.2699,-4.2289,-4.2217,-4.199,-4.1461,-4.1365,-4.1317,-4.1196,0.0,0.0,0.0,-4.1172,-4.1172,-4.1172,-4.1172,-4.1172,-4.1172,-4.1172,-4.1172,-4.1172,-4.1293,-4.1557,-4.2,-4.2145,-4.2399,-4.2988,-4.3313,-4.3577,-4.3697,-4.4069,-4.4285,-4.4285,-4.4285,-4.4285,-4.4285,-4.4285,-4.4285,-4.4285,-4.4285,-4.4285,-4.4285,-4.4285,-4.4285,-4.4285,-4.4285,-4.4285,-4.4285,-4.4285,-4.4285,-4.4309,-4.8305,-4.84,-4.845,-4.8766,-4.9198,-4.9866,-5.093,-5.1446,-5.203,-5.2792,-5.2861,-5.2929,-5.2929,-5.2929,-5.2929,-5.2929,-5.2929,-5.2929,-5.2929,-5.2879,-5.2402,-5.1322,-5.0243,-4.964,-4.959,-4.959,-4.9565,-4.954,-4.9012,-4.8736,-4.8636,-4.8109,-4.7581,-4.7018,-4.7018,-4.6803,-4.6301,-4.6301,-4.6301,-4.6301,-4.6301,-4.6301,-4.6301,-4.6301,-4.6301,-4.6376,-4.6878,-4.7018,-4.7154,-4.7631,-4.7782,-4.7707,-4.723,-4.7018,-4.6979,-4.6451,-4.6301,-4.612,-4.5403,-4.4951,-4.4645,-4.4288,-4.3842,-4.3457,-4.3457,-4.3096,-4.2819,-4.2771,-4.2771,-4.2602,-4.2014,-4.1918,-4.1749,-4.1268,0.0,0.0,-4.1172,-4.1172,-4.1172,-4.1172,-4.1172,-4.1172,-4.1172,-4.1172,-4.1172,-4.1172,-4.1629,-4.1942,-4.1966,-4.2506,-4.2928,-4.3433,-4.3481,-4.377,-4.4213,-4.4261,-4.4285,-4.4285,-4.4285,-4.4285,-4.4285,-4.4285,-4.4285,-4.4285,-4.4285,-4.4285,-4.4285,-4.4285,-4.4285,-4.4285,-4.4285,-4.4285,-4.4285,-4.4285,-4.4285,-4.4357,-4.8982,-4.9054,-4.9126,-4.9246,-4.9628,-5.0056,-5.0694,-5.1352,-5.2005,-5.2515,-5.2792,-5.2929,-5.2929,-5.2929,-5.2929,-5.2929,-5.2929,-5.2929,-5.2929,-5.2929,-5.2427,-5.1322,-5.0193,-4.959,-4.959,-4.959,-4.959,-4.959,-4.9389,-4.9113,-4.8761,-4.856,-4.8159,-4.7606,-4.7606,-4.7506,-4.7305,-4.7305,-4.7305,-4.7305,-4.7305,-4.7305,-4.7305,-4.7305,-4.7305,-4.733,-4.7531,-4.7606,-4.7631,-4.7832,-4.7908,-4.7883,-4.7682,-4.7606,-4.7506,-4.6979,-4.6577,-4.618,-4.5757,-4.5392,-4.5025,-4.4717,-4.4302,-4.4034,-4.4034,-4.389,-4.3649,-4.3289,-4.3216,-4.3072,-4.2602,-4.253,-4.2338,-4.1749,0.0,-4.1557,-4.122,-4.1172,-4.1172,-4.1172,-4.1172,-4.1172,-4.1172,-4.1485,-4.1677,-4.1677,-4.2217,-4.2591,-4.2904,-4.3457,-4.3842,-4.3949,-4.4034,-4.4069,-4.4285,-4.4285,-4.4285,-4.4285,-4.4285,-4.4285,-4.4285,-4.4285,-4.4285,-4.4285,-4.4285,-4.4285,-4.4285,-4.4285,-4.4285,-4.4285,-4.4285,-4.4285,-4.4333,-4.4645,-4.4765,-4.4861,-5.0127,-5.0198,-5.0198,-5.0198,-5.0411,-5.0789,-5.1141,-5.1632,-5.2144,-5.2515,-5.2792,-5.2929,-5.2929,-5.2929,-5.2929,-5.2929,-5.2929,-5.2929,-5.2929,-5.2754,-5.2251,-5.1322,-5.0193,-4.959,-4.959,-4.959,-4.959,-4.959,-4.959,-4.9389,-4.9038,-4.9038,-4.8736,-4.8184,-4.8184,-4.8083,-4.7908,-4.7908,-4.7908,-4.7908,-4.7908,-4.7908,-4.7908,-4.7908,-4.7908,-4.7933,-4.8109,-4.8184,-4.8209,-4.8385,-4.8435,-4.841,-4.8234,-4.8058,-4.7807,-4.728,-4.6853,-4.6466,-4.6049,-4.5696,-4.5331,-4.4902,-4.4532,-4.4285,-4.4285,-4.4285,-4.4189,-4.3866,-4.377,-4.3601,-4.3096,-4.3,-4.2832,-4.2303,-4.2265,-4.2145,-4.1725,-4.1677,-4.1677,-4.1677,-4.1677,-4.1677,-4.1677,-4.2073,-4.2265,-4.2265,-4.2711,-4.3216,-4.3746,-4.4069,-4.4285,-4.4285,-4.4285,-4.4285,-4.4285,-4.4285,-4.4285,-4.4285,-4.4285,-4.4285,-4.4285,-4.4285,-4.4285,-4.4285,-4.4285,-4.4285,-4.4285,-4.4285,-4.4285,-4.4285,-4.4285,-4.4381,-4.4573,-4.4933,-4.5237,-4.5453,-5.1681,-5.182,-5.182,-5.182,-5.182,-5.196,-5.2377,-5.2377,-5.2515,-5.2861,-5.2929,-5.2929,-5.2929,-5.2929,-5.2929,-5.2929,-5.2929,-5.2929,-5.2929,-5.2402,-5.185,-5.1322,-5.0193,-4.959,-4.959,-4.959,-4.959,-4.959,-4.959,-4.959,-4.959,-4.959,-4.9314,-4.8786,-4.8786,-4.846,-4.7933,-4.7933,-4.7933,-4.7933,-4.7933,-4.7933,-4.7933,-4.7933,-4.7933,-4.7983,-4.856,-4.8786,-4.8862,-4.9414,-4.959,-4.949,-4.8962,-4.8385,-4.7807,-4.7305,-4.7093,-4.7029,-4.6476,-4.6059,-4.5635,-4.4963,-4.4532,-4.4285,-4.4285,-4.4285,-4.4285,-4.4285,-4.4285,-4.4117,-4.3625,-4.3529,-4.3361,-4.2916,-4.2819,-4.2819,-4.2819,-4.2819,-4.2819,-4.2819,-4.2819,-4.2819,-4.2819,-4.2819,-4.2819,-4.2819,-4.3241,-4.377,-4.4261,-4.4285,-4.4285,-4.4285,-4.4285,-4.4285,-4.4285,-4.4285,-4.4285,-4.4285,-4.4285,-4.4285,-4.4285,-4.4285,-4.4285,-4.4285,-4.4285,-4.4285,-4.4285,-4.4285,-4.4285,-4.4285,-4.4285,-4.4621,-4.5077,-4.5077,-4.5477,-4.6006,-5.2515,-5.2585,-5.2585,-5.2585,-5.2585,-5.2585,-5.2723,-5.2723,-5.2792,-5.2861,-5.2929,-5.2929,-5.2929,-5.2929,-5.2929,-5.2929,-5.2929,-5.2929,-5.2929,-5.2402,-5.2026,-5.1875,-5.077,-4.9992,-4.9615,-4.959,-4.959,-4.959,-4.959,-4.959,-4.959,-4.959,-4.9515,-4.9339,-4.9339,-4.9264,-4.9088,-4.9088,-4.9088,-4.9088,-4.9088,-4.9088,-4.9088,-4.9088,-4.9088,-4.9113,-4.9289,-4.9339,-4.9364,-4.954,-4.959,-4.9565,-4.9389,-4.8962,-4.8485,-4.8335,-4.7983,-4.7556,-4.7029,-4.6634,-4.6167,-4.5368,-4.4902,-4.4594,-4.4347,-4.4285,-4.4285,-4.4285,-4.4285,-4.4237,-4.4069,-4.4045,-4.3853,-4.3385,-4.3289,-4.3168,-4.2867,-4.2819,-4.2819,-4.2819,-4.2819,-4.2819,-4.2819,-4.3072,-4.3289,-4.3289,-4.3794,-4.4117,-4.4285,-4.4285,-4.4285,-4.4285,-4.4285,-4.4285,-4.4285,-4.4285,-4.4285,-4.4285,-4.4285,-4.4285,-4.4285,-4.4285,-4.4285,-4.4285,-4.4285,-4.4285,-4.4285,-4.4285,-4.4285,-4.4285,-4.4285,-4.4621,-4.5125,-4.5486,-4.603,-4.6559,-5.2377,-5.2446,-5.2515,-5.2654,-5.2723,-5.2723,-5.2861,-5.2929,-5.2929,-5.2929,-5.2929,-5.2929,-5.2929,-5.2929,-5.2929,-5.2929,-5.2929,-5.2929,-5.2929,-5.2628,-5.2327,-5.2126,-5.1448,-5.072,-4.9941,-4.9715,-4.959,-4.959,-4.959,-4.959,-4.959,-4.959,-4.959,-4.959,-4.959,-4.959,-4.959,-4.959,-4.959,-4.959,-4.959,-4.959,-4.959,-4.959,-4.959,-4.959,-4.959,-4.959,-4.959,-4.959,-4.959,-4.959,-4.959,-4.9364,-4.9063,-4.8837,-4.851,-4.8134,-4.7581,-4.7245,-4.6873,-4.6019,-4.5294,-4.4779,-4.4532,-4.4409,-4.4285,-4.4285,-4.4285,-4.4285,-4.4285,-4.4285,-4.4165,-4.389,-4.3842,-4.3746,-4.3433,-4.3385,-4.3385,-4.3385,-4.3385,-4.3385,-4.3385,-4.3673,-4.3842,-4.3842,-4.4093,-4.4285,-4.4285,-4.4285,-4.4285,-4.4285,-4.4285,-4.4285,-4.4285,-4.4285,-4.4285,-4.4285,-4.4285,-4.4285,-4.4285,-4.4285,-4.4285,-4.4285,-4.4285,-4.4285,-4.4285,-4.4285,-4.4285,-4.4309,-4.4525,-4.4909,-4.5438,-4.6054,-4.6583,-4.7064,-5.1516,-5.1586,-5.1726,-5.2144,-5.2213,-5.2446,-5.2792,-5.2861,-5.2861,-5.2929,-5.2929,-5.2929,-5.2929,-5.2929,-5.2929,-5.2929,-5.2929,-5.2929,-5.2929,-5.2929,-5.2703,-5.2201,-5.2126,-5.1624,-5.0594,-4.9967,-4.9665,-4.9665,-4.9615,-4.959,-4.959,-4.959,-4.959,-4.959,-4.959,-4.959,-4.959,-4.959,-4.959,-4.959,-4.959,-4.959,-4.959,-4.959,-4.959,-4.959,-4.959,-4.959,-4.959,-4.959,-4.959,-4.959,-4.959,-4.959,-4.949,-4.8987,-4.8837,-4.8711,-4.8134,-4.7983,-4.7795,-4.696,-4.5884,-4.5024,-4.4865,-4.4532,-4.4347,-4.4285,-4.4285,-4.4285,-4.4285,-4.4285,-4.4285,-4.4285,-4.4285,-4.4285,-4.4285,-4.4285,-4.4285,-4.4285,-4.4285,-4.4285,-4.4285,-4.4285,-4.4285,-4.4285,-4.4285,-4.4285,-4.4285,-4.4285,-4.4285,-4.4285,-4.4285,-4.4285,-4.4285,-4.4285,-4.4285,-4.4285,-4.4285,-4.4285,-4.4285,-4.4285,-4.4285,-4.4285,-4.4285,-4.4285,-4.4285,-4.4285,-4.4285,-4.4333,-4.4861,-4.5453,-4.5982,-4.6511,-4.704,-4.7497,-4.9961,-5.0269,-5.0506,-5.0553,-5.1071,-5.1562,-5.198,-5.2283,-5.2585,-5.2861,-5.2929,-5.2929,-5.2929,-5.2929,-5.2929,-5.2929,-5.2929,-5.2929,-5.2929,-5.2929,-5.2879,-5.2754,-5.2327,-5.1975,-5.1749,-5.0745,-5.0243,-5.0243,-4.9816,-4.959,-4.959,-4.959,-4.959,-4.959,-4.959,-4.959,-4.959,-4.959,-4.959,-4.959,-4.959,-4.959,-4.959,-4.959,-4.959,-4.959,-4.959,-4.959,-4.959,-4.959,-4.959,-4.959,-4.959,-4.959,-4.9565,-4.9464,-4.9414,-4.9289,-4.8736,-4.8586,-4.846,-4.7758,-4.7284,-4.655,-4.5158,-4.4717,-4.4594,-4.4347,-4.4285,-4.4285,-4.4285,-4.4285,-4.4285,-4.4285,-4.4285,-4.4285,-4.4285,-4.4285,-4.4285,-4.4285,-4.4285,-4.4285,-4.4285,-4.4285,-4.4285,-4.4285,-4.4285,-4.4285,-4.4285,-4.4285,-4.4285,-4.4285,-4.4285,-4.4285,-4.4285,-4.4285,-4.4285,-4.4285,-4.4285,-4.4285,-4.4285,-4.4285,-4.4285,-4.4285,-4.4285,-4.4285,-4.4285,-4.4285,-4.4285,-4.4333,-4.4861,-4.5453,-4.5982,-4.6511,-4.704,-4.7497,-4.8358,-4.867,-4.9031,-4.9175,-4.9842,-5.0577,-5.1117,-5.1702,-5.2283,-5.2585,-5.2792,-5.2929,-5.2929,-5.2929,-5.2929,-5.2929,-5.2929,-5.2929,-5.2929,-5.2929,-5.2929,-5.2929,-5.2653,-5.2503,-5.2503,-5.1674,-5.1096,-5.082,-5.0268,-4.9992,-4.9992,-4.9715,-4.959,-4.959,-4.959,-4.959,-4.959,-4.959,-4.959,-4.959,-4.959,-4.959,-4.959,-4.959,-4.959,-4.959,-4.959,-4.959,-4.959,-4.959,-4.959,-4.959,-4.959,-4.959,-4.959,-4.959,-4.959,-4.954,-4.9238,-4.9163,-4.9038,-4.846,-4.8209,-4.7682,-4.6007,-4.5514,-4.5318,-4.4889,-4.4779,-4.4717,-4.4594,-4.4532,-4.447,-4.4347,-4.4285,-4.4285,-4.4285,-4.4285,-4.4285,-4.4285,-4.4285,-4.4285,-4.4285,-4.4285,-4.4285,-4.4285,-4.4285,-4.4405,-4.4645,-4.4669,-4.4765,-4.5029,-4.5029,-4.5029,-4.5029,-4.5029,-4.5029,-4.5029,-4.4789,-4.4669,-4.4669,-4.4933,-4.5029,-4.5029,-4.5029,-4.5029,-4.5029,-4.5029,-4.5029,-4.5101,-4.5669,-4.6054,-4.6367,-4.6896,-4.7257,-4.7497,-4.6677,-4.7067,-4.7507,-4.7872,-4.8694,-4.958,-5.0269,-5.1117,-5.1841,-5.2352,-5.2723,-5.2929,-5.2929,-5.2929,-5.2929,-5.2929,-5.2929,-5.2929,-5.2929,-5.2929,-5.2929,-5.2929,-5.2929,-5.2929,-5.2929,-5.2477,-5.1975,-5.1423,-5.0845,-5.0519,-5.0419,-4.9941,-4.969,-4.959,-4.959,-4.959,-4.959,-4.959,-4.959,-4.959,-4.959,-4.959,-4.959,-4.959,-4.959,-4.959,-4.959,-4.959,-4.959,-4.959,-4.959,-4.959,-4.959,-4.959,-4.959,-4.959,-4.959,-4.959,-4.959,-4.959,-4.949,-4.9038,-4.8912,-4.8573,-4.7259,-4.6625,-4.6179,-4.5699,-4.5601,-4.5454,-4.511,-4.4962,-4.4814,-4.4532,-4.4409,-4.4409,-4.447,-4.4409,-4.4409,-4.4409,-4.4347,-4.4285,-4.4285,-4.4285,-4.4285,-4.4285,-4.4381,-4.4621,-4.5053,-4.5149,-4.5414,-4.591,-4.5934,-4.5934,-4.5934,-4.5934,-4.5934,-4.591,-4.5573,-4.5357,-4.5221,-4.5718,-4.5934,-4.5934,-4.5934,-4.5934,-4.5934,-4.5934,-4.5934,-4.5982,-4.6511,-4.6704,-4.6776,-4.7305,-4.7497,-4.7497,-4.5084,-4.5704,-4.6225,-4.6299,-4.7552,-4.8812,-4.9509,-5.0577,-5.1562,-5.2283,-5.2723,-5.2929,-5.2929,-5.2929,-5.2929,-5.2929,-5.2929,-5.2929,-5.2929,-5.2929,-5.2929,-5.2929,-5.2929,-5.2929,-5.2929,-5.2854,-5.2553,-5.2,-5.1448,-5.0921,-5.0419,-5.0343,-5.0042,-4.959,-4.959,-4.959,-4.959,-4.959,-4.959,-4.959,-4.959,-4.959,-4.959,-4.959,-4.959,-4.959,-4.959,-4.959,-4.959,-4.959,-4.959,-4.959,-4.959,-4.959,-4.959,-4.959,-4.959,-4.959,-4.959,-4.959,-4.9565,-4.9515,-4.949,-4.9314,-4.8623,-4.7845,-4.7246,-4.6858,-4.677,-4.6622,-4.6006,-4.5746,-4.55,-4.5221,-4.4902,-4.484,-4.5147,-4.4902,-4.4717,-4.4717,-4.447,-4.4285,-4.4285,-4.4285,-4.4285,-4.4285,-4.4717,-4.5005,-4.5077,-4.5573,-4.5862,-4.5934,-4.5934,-4.5934,-4.5934,-4.5934,-4.5934,-4.5934,-4.6319,-4.6271,-4.5814,-4.5886,-4.5934,-4.5934,-4.5934,-4.5934,-4.5934,-4.5934,-4.5934,-4.5982,-4.6511,-4.6704,-4.6776,-4.7305,-4.7497,-4.7497,-4.4125,-4.4805,-4.533,-4.533,-4.667,-4.8013,-4.874,-5.0009,-5.1141,-5.1935,-5.2585,-5.2929,-5.2929,-5.2929,-5.2929,-5.2929,-5.2929,-5.2929,-5.2929,-5.2929,-5.2929,-5.2929,-5.2929,-5.2929,-5.2929,-5.2929,-5.2804,-5.2578,-5.2026,-5.1448,-5.0896,-5.0569,-5.0117,-4.9615,-4.9916,-5.0067,-5.0067,-5.0393,-5.0343,-5.0067,-5.0067,-4.9866,-4.959,-4.959,-4.959,-4.959,-4.959,-4.959,-4.959,-4.959,-4.959,-4.959,-4.959,-4.959,-4.959,-4.959,-4.959,-4.959,-4.959,-4.959,-4.959,-4.959,-4.959,-4.954,-4.9289,-4.8974,-4.8432,-4.7658,-4.747,-4.7421,-4.6985,-4.681,-4.6513,-4.5847,-4.5625,-4.5465,-4.5294,-4.5147,-4.5025,-4.484,-4.447,-4.4405,-4.4693,-4.4717,-4.4837,-4.5149,-4.539,-4.5694,-4.6006,-4.6247,-4.6487,-4.68,-4.68,-4.68,-4.68,-4.68,-4.68,-4.68,-4.704,-4.6872,-4.6367,-4.668,-4.68,-4.68,-4.68,-4.68,-4.68,-4.68,-4.68,-4.6824,-4.7064,-4.7161,-4.7185,-4.7425,-4.7497,-4.7497]},{"header":{"parameterUnit":"m.s-1","parameterCategory":1,"la1":30.6,"la2":28.766,"lo1":-90.7593,"lo2":-88.6598,"dy":0.0162,"dx":0.0183,"nx":116,"ny":114,"refTime":"2024-06-12T00:00:00:Z","depth":0,"parameterNumber":3,"parameterNumberName":"V-component_of_WINDS"},"data":[0.0,0.0,0.0,0.0,0.0,0.0,0.0,0.0,0.0,0.0,0.0,0.0,0.0,0.0,0.0,0.0,0.0,0.0,0.0,0.0,0.0,0.0,0.0,0.0,0.0,0.0,0.0,0.0,0.0,0.0,0.0,0.0,0.0,0.0,0.0,0.0,0.0,0.0,0.0,0.0,0.0,0.0,0.0,0.0,0.0,0.0,0.0,0.0,0.0,0.0,0.0,0.0,0.0,0.0,0.0,0.0,0.0,0.0,0.0,0.0,0.0,0.0,0.0,0.0,0.0,0.0,0.0,0.0,0.0,0.0,0.0,0.0,0.0,0.0,0.0,0.0,0.0,0.0,0.0,0.0,0.0,0.0,0.0,0.0,0.0,0.0,0.0,0.0,0.0,0.0,0.0,0.0,0.0,0.0,0.0,0.0,0.0,0.0,0.0,0.0,0.0,0.0,0.0,0.0,0.0,0.0,0.0,0.0,0.0,0.0,0.0,0.0,0.0,0.0,0.0,0.0,0.0,0.0,0.0,0.0,0.0,0.0,0.0,0.0,0.0,0.0,0.0,0.0,0.0,0.0,0.0,0.0,0.0,0.0,0.0,0.0,0.0,0.0,0.0,0.0,0.0,0.0,0.0,0.0,0.0,0.0,0.0,0.0,0.0,0.0,0.0,0.0,0.0,0.0,0.0,0.0,0.0,0.0,0.0,0.0,0.0,0.0,0.0,0.0,0.0,0.0,0.0,0.0,0.0,0.0,0.0,0.0,0.0,0.0,0.0,0.0,0.0,0.0,0.0,0.0,0.0,0.0,0.0,0.0,0.0,0.0,0.0,0.0,0.0,0.0,0.0,0.0,0.0,0.0,0.0,0.0,0.0,0.0,0.0,0.0,0.0,0.0,0.0,0.0,0.0,0.0,0.0,0.0,0.0,0.0,0.0,0.0,0.0,0.0,0.0,0.0,0.0,0.0,0.0,0.0,0.0,0.0,0.0,0.0,0.0,0.0,0.0,0.0,0.0,0.0,0.0,0.0,0.0,0.0,0.0,0.0,0.0,0.0,0.0,0.0,0.0,0.0,0.0,0.0,0.0,0.0,0.0,0.0,0.0,0.0,0.0,0.0,0.0,0.0,0.0,0.0,0.0,0.0,0.0,0.0,0.0,0.0,0.0,0.0,0.0,0.0,0.0,0.0,0.0,0.0,0.0,0.0,0.0,0.0,0.0,0.0,0.0,0.0,0.0,0.0,0.0,0.0,0.0,0.0,0.0,0.0,0.0,0.0,0.0,0.0,0.0,0.0,0.0,0.0,0.0,0.0,0.0,0.0,0.0,0.0,0.0,0.0,0.0,0.0,0.0,0.0,0.0,0.0,0.0,0.0,0.0,0.0,0.0,0.0,0.0,0.0,0.0,0.0,0.0,0.0,0.0,0.0,0.0,0.0,0.0,0.0,0.0,0.0,0.0,0.0,0.0,0.0,0.0,0.0,0.0,0.0,0.0,0.0,0.0,0.0,0.0,0.0,0.0,0.0,0.0,0.0,0.0,0.0,0.0,0.0,0.0,0.0,0.0,0.0,0.0,0.0,0.0,0.0,0.0,0.0,0.0,0.0,0.0,0.0,0.0,0.0,0.0,0.0,0.0,0.0,0.0,0.0,0.0,0.0,0.0,0.0,0.0,0.0,0.0,0.0,0.0,0.0,0.0,0.0,0.0,0.0,0.0,0.0,0.0,0.0,0.0,0.0,0.0,0.0,0.0,0.0,0.0,0.0,0.0,0.0,0.0,0.0,0.0,0.0,0.0,0.0,0.0,0.0,0.0,0.0,0.0,0.0,0.0,0.0,0.0,0.0,0.0,0.0,0.0,0.0,0.0,0.0,0.0,0.0,0.0,0.0,0.0,0.0,0.0,0.0,0.0,0.0,0.0,0.0,0.0,0.0,0.0,0.0,0.0,0.0,0.0,0.0,0.0,0.0,0.0,0.0,0.0,0.0,0.0,0.0,0.0,0.0,0.0,0.0,0.0,0.0,0.0,0.0,0.0,0.0,0.0,0.0,0.0,0.0,0.0,0.0,0.0,0.0,0.0,0.0,0.0,0.0,0.0,0.0,0.0,0.0,0.0,0.0,0.0,0.0,0.0,0.0,0.0,0.0,0.0,0.0,0.0,0.0,0.0,0.0,0.0,0.0,0.0,0.0,0.0,0.0,0.0,0.0,0.0,0.0,0.0,0.0,0.0,0.0,0.0,0.0,0.0,0.0,0.0,0.0,0.0,0.0,0.0,0.0,0.0,0.0,0.0,0.0,0.0,0.0,0.0,0.0,0.0,0.0,0.0,0.0,0.0,0.0,0.0,0.0,0.0,0.0,0.0,0.0,0.0,0.0,0.0,0.0,0.0,0.0,0.0,0.0,0.0,0.0,0.0,0.0,0.0,0.0,0.0,0.0,0.0,0.0,0.0,0.0,0.0,0.0,0.0,0.0,0.0,0.0,0.0,0.0,0.0,0.0,0.0,0.0,0.0,0.0,0.0,0.0,0.0,0.0,0.0,0.0,0.0,0.0,0.0,0.0,0.0,0.0,0.0,0.0,0.0,0.0,0.0,0.0,0.0,0.0,0.0,0.0,0.0,0.0,0.0,0.0,0.0,0.0,0.0,0.0,0.0,0.0,0.0,0.0,0.0,0.0,0.0,0.0,0.0,0.0,0.0,0.0,0.0,0.0,0.0,0.0,0.0,0.0,0.0,0.0,0.0,0.0,0.0,0.0,0.0,0.0,0.0,0.0,0.0,0.0,0.0,0.0,0.0,0.0,0.0,0.0,0.0,0.0,0.0,0.0,0.0,0.0,0.0,0.0,0.0,0.0,0.0,0.0,0.0,0.0,0.0,0.0,0.0,0.0,0.0,0.0,0.0,0.0,0.0,0.0,0.0,0.0,0.0,0.0,0.0,0.0,0.0,0.0,0.0,0.0,0.0,0.0,0.0,0.0,0.0,0.0,0.0,0.0,0.0,0.0,0.0,0.0,0.0,0.0,0.0,0.0,0.0,0.0,0.0,0.0,0.0,0.0,0.0,0.0,0.0,0.0,0.0,0.0,0.0,0.0,0.0,0.0,0.0,0.0,0.0,0.0,0.0,0.0,0.0,0.0,0.0,0.0,0.0,0.0,0.0,0.0,0.0,0.0,0.0,0.0,0.0,0.0,0.0,0.0,0.0,0.0,0.0,0.0,0.0,0.0,0.0,0.0,0.0,0.0,0.0,0.0,0.0,0.0,0.0,0.0,0.0,0.0,0.0,0.0,0.0,0.0,0.0,0.0,0.0,0.0,0.0,0.0,0.0,0.0,0.0,0.0,0.0,0.0,0.0,0.0,0.0,0.0,0.0,0.0,0.0,0.0,0.0,0.0,0.0,0.0,0.0,0.0,0.0,0.0,0.0,0.0,0.0,0.0,0.0,0.0,0.0,0.0,0.0,0.0,0.0,0.0,0.0,0.0,0.0,0.0,0.0,0.0,0.0,0.0,0.0,0.0,0.0,0.0,0.0,0.0,0.0,0.0,0.0,0.0,0.0,0.0,0.0,0.0,0.0,0.0,0.0,0.0,0.0,0.0,0.0,0.0,0.0,0.0,0.0,0.0,0.0,0.0,0.0,0.0,0.0,0.0,0.0,0.0,0.0,0.0,0.0,0.0,0.0,0.0,0.0,0.0,0.0,0.0,0.0,0.0,0.0,0.0,0.0,0.0,0.0,0.0,0.0,0.0,0.0,0.0,0.0,0.0,0.0,0.0,0.0,0.0,0.0,0.0,0.0,0.0,0.0,0.0,0.0,0.0,0.0,0.0,0.0,0.0,0.0,0.0,0.0,0.0,0.0,0.0,0.0,0.0,0.0,0.0,0.0,0.0,0.0,0.0,0.0,0.0,0.0,0.0,0.0,0.0,0.0,0.0,0.0,0.0,0.0,0.0,0.0,0.0,0.0,0.0,0.0,0.0,0.0,0.0,0.0,0.0,0.0,0.0,0.0,0.0,0.0,0.0,0.0,0.0,0.0,0.0,0.0,0.0,0.0,0.0,0.0,0.0,0.0,0.0,0.0,0.0,0.0,0.0,0.0,0.0,0.0,0.0,0.0,0.0,0.0,0.0,0.0,0.0,0.0,0.0,0.0,0.0,0.0,0.0,0.0,0.0,0.0,0.0,0.0,0.0,0.0,0.0,0.0,0.0,0.0,0.0,0.0,0.0,0.0,0.0,0.0,0.0,0.0,0.0,0.0,0.0,0.0,0.0,0.0,0.0,0.0,0.0,0.0,0.0,0.0,0.0,0.0,0.0,0.0,0.0,0.0,0.0,0.0,0.0,0.0,0.0,0.0,0.0,0.0,0.0,0.0,0.0,0.0,0.0,0.0,0.0,0.0,0.0,0.0,0.0,0.0,0.0,0.0,0.0,0.0,0.0,0.0,0.0,0.0,0.0,0.0,0.0,0.0,0.0,0.0,0.0,0.0,0.0,0.0,0.0,0.0,0.0,0.0,0.0,0.0,0.0,0.0,0.0,0.0,0.0,0.0,0.0,0.0,0.0,0.0,0.0,0.0,0.0,0.0,0.0,0.0,0.0,0.0,0.0,0.0,0.0,0.0,0.0,0.0,0.0,0.0,0.0,0.0,0.0,0.0,0.0,0.0,0.0,0.0,0.0,0.0,0.0,0.0,0.0,0.0,0.0,0.0,0.0,0.0,0.0,0.0,0.0,0.0,0.0,0.0,0.0,0.0,0.0,0.0,0.0,0.0,0.0,0.0,0.0,0.0,0.0,0.0,0.0,0.0,0.0,0.0,0.0,0.0,0.0,0.0,0.0,0.0,0.0,0.0,0.0,0.0,0.0,0.0,0.0,0.0,0.0,0.0,0.0,0.0,0.0,0.0,0.0,0.0,0.0,0.0,0.0,0.0,0.0,0.0,0.0,0.0,0.0,0.0,0.0,0.0,0.0,0.0,0.0,0.0,0.0,0.0,0.0,0.0,0.0,0.0,0.0,0.0,0.0,0.0,0.0,0.0,0.0,0.0,0.0,0.0,0.0,0.0,0.0,0.0,0.0,0.0,0.0,0.0,0.0,0.0,0.0,0.0,0.0,0.0,0.0,0.0,0.0,0.0,0.0,0.0,0.0,0.0,0.0,0.0,0.0,0.0,0.0,0.0,0.0,0.0,0.0,0.0,0.0,0.0,0.0,0.0,0.0,0.0,0.0,0.0,0.0,0.0,0.0,0.0,0.0,0.0,0.0,0.0,0.0,0.0,0.0,0.0,0.0,0.0,0.0,0.0,0.0,0.0,0.0,0.0,0.0,0.0,0.0,0.0,0.0,0.0,0.0,0.0,0.0,0.0,0.0,0.0,0.0,0.0,0.0,0.0,0.0,0.0,0.0,0.0,0.0,0.0,0.0,0.0,0.0,0.0,0.0,0.0,0.0,0.0,0.0,0.0,0.0,0.0,0.0,0.0,0.0,0.0,0.0,0.0,0.0,0.0,0.0,0.0,0.0,0.0,0.0,0.0,0.0,0.0,0.0,0.0,0.0,0.0,0.0,0.0,0.0,0.0,0.0,0.0,0.0,0.0,0.0,0.0,0.0,0.0,0.0,0.0,0.0,0.0,0.0,0.0,0.0,0.0,0.0,0.0,0.0,0.0,0.0,0.0,0.0,0.0,0.0,0.0,0.0,0.0,0.0,0.0,0.0,0.0,0.0,0.0,0.0,0.0,0.0,0.0,0.0,0.0,0.0,0.0,0.0,0.0,0.0,0.0,0.0,0.0,0.0,0.0,0.0,0.0,0.0,0.0,0.0,0.0,0.0,0.0,0.0,0.0,0.0,0.0,0.0,0.0,0.0,0.0,0.0,0.0,0.0,0.0,0.0,0.0,0.0,0.0,0.0,0.0,0.0,0.0,0.0,0.0,0.0,0.0,0.0,0.0,0.0,0.0,0.0,0.0,0.0,0.0,0.0,0.0,0.0,0.0,0.0,0.0,0.0,0.0,0.0,0.0,0.0,0.0,0.0,0.0,0.0,0.0,0.0,0.0,0.0,0.0,0.0,0.0,0.0,0.0,0.0,0.0,0.0,0.0,0.0,0.0,0.0,3.7487,0.0,0.0,0.0,0.0,0.0,0.0,0.0,0.0,0.0,0.0,0.0,0.0,0.0,0.0,0.0,0.0,0.0,0.0,0.0,0.0,0.0,0.0,0.0,0.0,3.875,3.9405,3.9743,3.9732,3.9661,3.9661,0.0,0.0,0.0,0.0,0.0,3.9373,3.9301,3.9228,3.9228,3.9046,3.8936,3.8936,3.8612,3.8074,3.7391,0.0,0.0,0.0,0.0,0.0,0.0,0.0,0.0,0.0,0.0,0.0,0.0,0.0,0.0,0.0,0.0,0.0,0.0,0.0,0.0,0.0,0.0,0.0,0.0,0.0,0.0,0.0,0.0,0.0,0.0,0.0,0.0,0.0,0.0,0.0,0.0,0.0,0.0,0.0,0.0,0.0,0.0,0.0,0.0,0.0,0.0,0.0,0.0,0.0,0.0,0.0,0.0,0.0,0.0,0.0,0.0,0.0,0.0,0.0,0.0,0.0,0.0,0.0,0.0,0.0,0.0,0.0,0.0,0.0,0.0,0.0,3.7839,0.0,0.0,0.0,0.0,0.0,0.0,0.0,0.0,0.0,0.0,0.0,0.0,0.0,0.0,0.0,0.0,0.0,0.0,0.0,0.0,0.0,3.7772,3.8481,3.9057,3.96,4.0278,4.0231,4.0156,4.0156,4.0016,0.0,0.0,0.0,3.9517,3.9511,3.9481,3.9481,3.9481,3.9445,3.9409,3.9373,3.9373,3.9046,3.8331,3.72,0.0,0.0,0.0,0.0,0.0,0.0,0.0,0.0,0.0,0.0,0.0,0.0,0.0,0.0,0.0,0.0,0.0,0.0,0.0,0.0,0.0,0.0,0.0,0.0,0.0,0.0,0.0,0.0,0.0,0.0,0.0,0.0,0.0,0.0,0.0,0.0,0.0,0.0,0.0,0.0,0.0,0.0,0.0,0.0,0.0,0.0,0.0,0.0,0.0,0.0,0.0,0.0,0.0,0.0,0.0,0.0,0.0,0.0,0.0,0.0,0.0,0.0,0.0,4.2288,4.2288,4.2288,4.2235,4.1979,4.1414,3.955,3.8566,3.8314,3.8314,0.0,0.0,0.0,0.0,0.0,0.0,0.0,0.0,0.0,0.0,0.0,0.0,0.0,0.0,0.0,0.0,0.0,0.0,0.0,3.809,3.8869,3.9522,4.0142,4.086,4.0888,4.0888,4.0888,4.0749,0.0,0.0,4.02,4.0021,3.994,3.994,3.994,3.994,3.9732,3.9589,3.9373,3.9373,3.9337,3.9199,3.846,3.7804,3.7237,0.0,0.0,0.0,0.0,0.0,0.0,0.0,0.0,0.0,0.0,0.0,0.0,0.0,0.0,0.0,0.0,0.0,0.0,0.0,0.0,0.0,0.0,0.0,0.0,0.0,0.0,0.0,0.0,0.0,0.0,0.0,0.0,0.0,0.0,0.0,0.0,0.0,0.0,0.0,0.0,0.0,4.0729,4.0588,0.0,0.0,0.0,0.0,0.0,0.0,0.0,0.0,0.0,0.0,0.0,0.0,0.0,4.2212,4.2475,4.25,4.2631,4.2919,4.2631,4.2526,4.2526,4.2341,4.2131,4.2054,4.1771,0.0,3.9493,3.9493,0.0,0.0,0.0,0.0,0.0,0.0,0.0,0.0,0.0,0.0,0.0,0.0,0.0,0.0,0.0,0.0,0.0,0.0,0.0,0.0,0.0,4.0098,4.0673,4.1789,4.1721,4.1623,4.1623,4.1458,4.1292,4.1125,4.0922,4.0752,4.0578,4.0578,4.0509,4.047,4.0126,3.9879,3.9732,3.9625,3.9517,3.9373,3.911,3.8392,3.7375,3.6746,0.0,0.0,0.0,0.0,0.0,0.0,0.0,0.0,0.0,0.0,0.0,0.0,0.0,0.0,0.0,0.0,0.0,0.0,0.0,0.0,0.0,0.0,0.0,0.0,0.0,0.0,0.0,0.0,0.0,0.0,0.0,0.0,0.0,0.0,0.0,0.0,0.0,0.0,0.0,4.2699,4.2759,4.306,4.2609,4.2335,0.0,0.0,0.0,0.0,0.0,0.0,0.0,0.0,0.0,4.2421,4.2889,4.3229,4.3335,4.3648,4.3857,4.3937,4.3804,4.375,4.375,4.3643,4.3434,4.3176,4.3176,4.2527,4.1517,4.0875,4.0131,3.9287,0.0,0.0,0.0,0.0,3.88,3.9043,0.0,0.0,0.0,0.0,0.0,0.0,0.0,0.0,0.0,0.0,0.0,0.0,4.0435,4.0449,4.0883,4.2183,4.2229,4.2201,4.2201,4.2173,4.211,4.2013,4.1787,4.1591,4.1393,4.136,4.1225,4.0987,4.0684,4.0439,4.0191,4.0051,3.9874,3.9625,3.9625,3.8892,3.7644,3.7165,3.6507,3.5699,0.0,0.0,0.0,0.0,0.0,0.0,0.0,0.0,0.0,0.0,0.0,0.0,0.0,0.0,0.0,0.0,0.0,0.0,0.0,0.0,0.0,0.0,0.0,0.0,0.0,0.0,0.0,0.0,0.0,0.0,0.0,0.0,0.0,0.0,0.0,0.0,0.0,4.4854,4.4886,4.5476,4.4914,4.4442,0.0,0.0,0.0,0.0,0.0,0.0,4.3071,4.3413,4.3676,4.3832,4.4464,4.4808,4.4808,4.5175,4.533,4.5276,4.5118,4.5012,4.4957,4.4746,4.454,4.4255,4.4255,4.3914,4.3336,4.2242,4.1234,4.0332,4.0257,3.9897,3.9432,3.9357,3.9579,3.9823,0.0,0.0,0.0,0.0,0.0,0.0,0.0,0.0,0.0,0.0,0.0,3.946,4.0255,4.0293,4.0624,4.1394,4.2084,4.2481,0.0,4.296,4.3171,4.3052,4.2833,4.2614,4.2426,4.2301,4.2013,4.1555,4.1555,4.1256,4.078,4.078,4.0543,4.0161,4.0161,3.9485,3.8332,3.8302,3.7584,3.6447,3.6387,0.0,0.0,0.0,0.0,0.0,0.0,0.0,0.0,0.0,0.0,0.0,0.0,0.0,0.0,0.0,0.0,0.0,0.0,0.0,0.0,0.0,0.0,0.0,0.0,0.0,0.0,0.0,0.0,0.0,0.0,0.0,0.0,0.0,0.0,0.0,0.0,0.0,0.0,4.725,4.6862,0.0,0.0,0.0,0.0,4.4259,4.4718,4.5178,4.5422,4.5981,4.654,4.7125,4.7178,4.7234,4.7234,4.7232,4.7121,4.676,4.6262,4.5834,4.5558,4.4929,4.4884,4.5127,4.5127,4.4944,4.4544,4.3415,4.2579,4.2031,4.1775,4.1489,4.1119,4.0919,4.1143,4.1568,0.0,0.0,0.0,0.0,0.0,3.7536,3.8269,3.9002,3.9468,3.9513,3.9625,3.9945,4.0682,4.0756,4.1057,4.1793,4.2011,4.2322,4.2789,4.3027,4.3244,4.3532,4.3472,4.3383,4.3199,4.3017,4.2863,4.2678,4.2396,4.2077,4.1786,4.1456,4.1158,4.0922,4.0681,4.0351,3.9868,3.913,3.8193,3.7274,3.7412,3.7258,0.0,0.0,0.0,0.0,0.0,0.0,0.0,0.0,0.0,0.0,0.0,0.0,0.0,0.0,0.0,0.0,0.0,0.0,0.0,0.0,0.0,0.0,0.0,0.0,0.0,0.0,0.0,0.0,0.0,0.0,0.0,0.0,0.0,0.0,0.0,0.0,0.0,4.87,4.8457,0.0,4.8089,4.8091,4.7915,4.7355,4.773,4.7908,4.7594,4.7812,4.7948,4.7973,4.8164,4.8164,4.7973,4.8164,4.8001,4.7506,4.7292,4.7047,4.6716,4.6107,4.6033,4.6303,4.5875,4.5741,4.5762,4.5154,4.4201,4.2941,4.2317,4.2107,4.21,4.1579,4.1746,4.219,0.0,0.0,0.0,0.0,3.719,3.7861,3.8858,3.9453,3.9781,3.9833,3.991,4.0163,4.0661,4.0702,4.0879,4.1377,4.1775,4.2225,4.2723,4.3261,4.3675,4.4064,4.4064,4.4006,4.386,4.371,4.3591,4.3472,4.3171,4.2896,4.2615,4.2333,4.2013,4.1787,4.1524,4.1325,4.116,4.029,3.9263,3.8243,3.8378,3.8189,3.7809,0.0,0.0,0.0,0.0,0.0,0.0,0.0,0.0,0.0,0.0,0.0,0.0,0.0,0.0,0.0,0.0,0.0,0.0,0.0,0.0,0.0,0.0,0.0,0.0,0.0,0.0,0.0,0.0,0.0,0.0,0.0,0.0,0.0,0.0,4.9029,4.9637,5.0312,5.0165,5.0095,5.0348,5.0456,5.0334,4.9774,4.9964,5.0041,4.976,4.9707,4.9711,4.9745,4.9933,4.9933,4.9745,4.9825,4.9609,4.9118,4.8873,4.8572,4.8243,4.7649,4.7541,4.7782,4.713,4.7042,4.7224,4.6771,4.5915,4.4797,4.3514,4.2961,4.2794,4.2445,4.2498,4.2922,0.0,0.0,0.0,3.7233,3.7526,3.8078,3.9682,3.9918,3.9935,4.0087,4.0113,4.0113,4.0113,4.0113,4.0113,4.0146,4.1467,4.2286,4.232,4.3735,4.4581,4.4615,4.4615,4.4497,4.4293,4.4293,4.415,4.3831,4.3831,4.3651,4.332,4.3323,4.3139,4.2833,4.2678,4.2396,4.2013,4.1917,4.0915,3.9385,3.9382,3.8852,3.8105,0.0,0.0,0.0,0.0,0.0,0.0,0.0,0.0,0.0,0.0,0.0,0.0,0.0,0.0,0.0,0.0,0.0,0.0,0.0,0.0,0.0,0.0,0.0,0.0,0.0,0.0,0.0,0.0,0.0,0.0,0.0,0.0,0.0,4.9329,4.9883,5.0734,5.2067,5.1977,5.2002,5.2378,5.2188,5.1837,5.133,5.1308,5.1494,5.1785,5.1843,5.2076,5.2652,5.268,5.2652,5.2652,5.2408,5.2085,5.1731,5.0952,5.0375,5.0076,4.9493,4.9375,4.964,4.8945,4.877,4.9,4.8126,4.7773,4.7536,4.5543,4.4267,4.3475,4.3498,4.3508,4.3729,0.0,0.0,3.641,3.7576,3.8231,3.8931,3.9902,4.0062,4.0062,4.0113,4.0113,4.0113,4.0113,4.0113,4.0316,4.0832,4.1271,4.1948,4.3031,4.3504,4.3978,4.4581,4.4615,4.4553,4.4497,4.4497,4.4468,4.4384,4.4207,4.4121,4.4035,4.3802,4.3591,4.3502,4.3232,4.3047,4.2956,4.2803,4.233,4.1629,4.0976,4.058,4.0225,0.0,0.0,0.0,0.0,0.0,0.0,0.0,0.0,0.0,0.0,0.0,0.0,0.0,0.0,0.0,0.0,0.0,0.0,0.0,0.0,0.0,0.0,0.0,0.0,0.0,0.0,0.0,0.0,0.0,0.0,0.0,4.9434,4.9972,4.9972,5.096,5.1798,5.2157,5.2557,5.2897,5.2949,5.3179,5.3246,5.3095,5.3745,5.4153,5.4036,5.4449,5.4744,5.4703,5.44,5.4168,5.3984,5.3598,5.3155,5.2648,5.2423,5.2177,5.1856,5.1258,5.1132,5.1337,5.0252,4.9946,5.0169,4.9238,4.8852,4.8646,4.6722,4.5875,4.5791,4.5052,4.4855,4.5018,0.0,3.5766,3.6693,3.7706,3.8497,3.9242,4.0011,4.0113,4.0113,4.0113,4.0113,4.0113,4.0113,4.0383,4.073,4.117,4.1779,4.2489,4.3341,4.3741,4.4113,4.4581,4.4615,4.4615,4.4615,4.4615,4.4615,4.4615,4.4468,4.444,4.4412,4.4241,4.4155,4.4121,4.3827,4.371,4.371,4.3505,4.349,4.3539,4.288,4.2138,4.1358,4.1088,4.0969,4.0944,4.0725,4.0766,4.0938,4.0866,0.0,0.0,0.0,0.0,0.0,0.0,0.0,0.0,0.0,0.0,0.0,0.0,0.0,0.0,0.0,0.0,0.0,0.0,0.0,0.0,0.0,0.0,0.0,0.0,5.0391,5.084,5.1379,5.1887,5.2426,5.2965,5.3384,5.3832,5.4371,5.469,5.4917,5.5185,5.5746,5.6005,5.5847,5.6179,5.6332,5.6143,5.5949,5.5742,5.5583,5.4936,5.4508,5.4112,5.3745,5.3442,5.3285,5.2961,5.2891,5.2936,5.1948,5.1466,5.1353,5.0534,5.0077,0.0,0.0,0.0,0.0,0.0,4.6149,4.6214,0.0,3.5828,3.6827,3.7841,3.8633,3.9343,4.0011,4.0113,4.0146,4.0214,4.0214,4.0282,4.035,4.0933,4.1373,4.1441,4.2632,4.3443,4.3538,4.4181,4.4615,4.4615,4.4615,4.4615,4.4615,4.4615,4.4615,4.4615,4.4615,4.4615,4.4615,4.4615,4.4615,4.4615,4.4479,4.4456,4.4428,4.4206,4.4523,4.5157,4.4854,4.3712,4.2204,4.204,4.2122,4.2313,4.1895,4.2012,4.2352,4.2132,0.0,0.0,0.0,0.0,0.0,0.0,0.0,0.0,0.0,0.0,0.0,0.0,0.0,0.0,0.0,0.0,0.0,0.0,0.0,0.0,0.0,0.0,0.0,0.0,5.1439,5.1887,5.3114,5.2845,5.2965,5.4072,5.4341,5.488,5.6047,5.6278,5.6496,5.7064,5.7154,5.7214,5.7214,0.0,0.0,0.0,0.0,5.7214,5.7214,5.6296,5.5864,5.5864,5.4923,5.4525,5.4525,5.4436,5.4406,5.4377,5.3757,5.3166,5.2526,5.1866,5.1187,5.0471,4.9415,4.8767,4.8393,4.7758,4.7444,4.7329,0.0,3.6512,3.7599,3.8584,3.9377,3.9943,4.0079,4.0113,4.0316,4.0899,4.1001,4.1204,4.1813,4.1982,4.232,4.2902,4.324,4.3673,4.4344,4.4513,4.4615,4.4615,4.4615,4.4615,4.4615,4.4615,4.4615,4.4615,4.4615,4.4615,4.4615,4.4615,4.4615,4.4615,4.5167,4.5409,4.5443,4.5992,4.6207,4.6189,4.6129,4.5637,4.4849,4.4367,4.4004,4.3729,4.3387,4.306,4.2783,4.2747,4.2498,4.2242,4.2242,0.0,0.0,0.0,0.0,0.0,0.0,0.0,0.0,0.0,0.0,0.0,0.0,0.0,0.0,0.0,0.0,0.0,0.0,0.0,0.0,5.2576,5.2785,5.3084,5.3892,5.4371,5.4521,5.4251,5.5149,5.5948,5.6188,5.6615,5.6974,5.7094,5.7603,5.7932,5.7932,5.8441,5.871,5.871,5.8201,5.7932,5.7932,5.7191,5.6862,5.681,0.0,0.0,5.5803,5.5266,5.5027,5.4997,5.4341,5.3983,5.3774,5.255,5.1685,5.0994,5.0423,4.9916,4.9562,4.9419,4.8832,4.8089,3.5759,3.6728,3.7603,3.8622,3.9488,3.9986,3.9986,4.0366,4.0764,4.117,4.1508,4.188,4.2252,4.2625,4.2997,4.3375,4.3775,4.4181,4.4581,4.4615,4.4784,4.5128,4.5128,4.5297,4.5669,4.5698,4.5698,4.5698,4.5698,4.5698,4.5698,4.5698,4.5698,4.5732,4.6075,4.6244,4.6278,4.6616,4.6959,4.7207,4.7207,4.7228,4.7187,4.5792,4.531,4.524,4.4699,4.4471,4.4396,4.4029,4.3772,4.3556,4.3512,4.34,4.3325,0.0,0.0,0.0,0.0,0.0,0.0,0.0,0.0,0.0,0.0,0.0,0.0,0.0,0.0,5.0289,5.1468,0.0,5.2636,5.3982,5.4192,5.4521,5.5508,5.5927,5.5897,5.5269,5.6047,5.6765,5.7124,5.7423,5.7752,5.8082,5.8411,5.862,5.862,5.8919,5.9099,5.9099,5.88,5.862,5.862,5.7962,5.7603,5.7603,5.6944,5.6466,5.6218,5.5837,5.5508,5.5179,5.485,5.4521,5.4102,5.2755,5.1798,5.1182,5.0947,5.0738,5.0504,5.0176,4.9686,4.9164,3.6136,3.6829,3.7525,3.8622,3.9412,3.9858,3.9858,4.0601,4.1186,4.1354,4.2023,4.2557,4.2726,4.3267,4.3639,4.3639,4.4215,4.4615,4.4615,4.475,4.506,4.5669,4.5838,4.6177,4.6786,4.6786,4.6786,4.6786,4.6786,4.6786,4.6786,4.6786,4.6786,4.6786,4.6955,4.7022,4.7022,4.7158,4.7564,4.8108,4.8108,4.8477,4.8821,4.7082,4.6543,4.6684,4.5984,4.5926,4.5985,4.5326,4.5061,4.4986,4.4761,4.4816,4.4871,4.4833,4.521,0.0,0.0,0.0,0.0,0.0,0.0,0.0,0.0,4.9652,5.0529,5.085,5.1514,5.2188,5.2732,5.3253,5.4012,5.5329,5.5568,5.5927,5.6944,5.7214,5.7094,5.6615,5.7004,5.7513,5.8082,5.8231,5.859,5.9249,5.9308,5.9308,5.9308,5.9308,5.9249,5.9099,5.9099,5.9099,5.9099,5.859,5.8321,5.8321,5.7633,5.6974,5.6346,5.6226,5.5807,5.5179,5.5179,5.473,5.3922,5.2845,5.1917,5.1229,5.1229,5.1229,5.1139,5.0584,5.0315,5.0046,0.0,3.7177,3.7886,3.9306,3.9636,3.9729,3.9729,4.0471,4.1257,4.1897,4.2746,4.3572,4.4276,4.4412,4.4479,4.4479,4.4547,4.4615,4.4615,4.5196,4.5602,4.5703,4.6312,4.6718,4.6786,4.6786,4.6786,4.6786,4.6786,4.6786,4.6786,4.6786,4.6786,4.6819,4.7496,4.78,4.7804,4.8477,4.8815,4.8883,4.8883,4.8951,4.8984,4.8723,4.8377,4.7932,4.7572,4.7035,4.6477,4.6052,4.5692,4.5395,4.5204,4.5534,4.6002,4.5811,4.623,4.6678,4.648,4.7363,4.8501,4.9189,4.9897,5.0408,0.0,5.1277,5.2047,5.2093,5.2805,5.3772,5.5008,5.506,5.5388,5.6675,5.6885,5.6944,5.7064,5.7633,5.7992,5.7932,5.7962,5.8052,5.8112,5.865,5.9279,5.9937,5.9967,5.9967,5.9967,5.9967,5.9697,5.9129,5.9099,5.9099,5.9099,5.9039,5.9009,5.8979,5.8321,5.7663,5.6974,5.6406,5.5807,5.5179,5.5179,5.4461,5.3294,5.3144,5.2336,5.1229,5.1229,5.1229,5.1199,5.1139,5.0704,5.0166,0.0,3.7295,3.8154,3.9135,3.9441,3.9573,3.9573,4.0682,4.1634,4.1936,4.3115,4.4041,4.4406,4.4525,4.4615,4.4615,4.4615,4.4784,4.5196,4.5534,4.6075,4.6955,4.7293,4.7631,4.8071,4.8071,4.8071,4.8071,4.8071,4.8071,4.8071,4.8071,4.8071,4.8105,4.8409,4.8545,4.8578,4.8883,4.9018,4.9018,4.9018,4.9018,4.9018,4.9018,4.8861,4.861,4.8129,4.7671,0.0,0.0,4.6234,4.5972,4.6087,4.6247,4.6378,4.6439,4.6981,4.7654,4.8255,4.8789,4.9404,5.0112,5.079,5.1374,5.1775,5.2516,5.3316,5.3943,5.4509,5.5187,5.6023,5.6251,5.6615,5.7543,5.7693,5.7812,5.8201,5.853,5.871,5.871,5.871,5.871,5.871,5.9279,5.9787,6.0057,6.0446,6.0685,6.0685,6.0296,5.9967,5.9668,5.9308,5.9099,5.9099,5.9099,5.9099,5.9099,5.883,5.8141,5.7094,5.6825,5.6166,5.5179,5.5179,5.464,5.3743,5.3354,5.2636,5.1738,5.1379,5.1229,5.1229,5.1229,5.1003,5.0704,0.0,3.7245,3.8087,3.865,3.904,3.9315,3.9448,4.0815,4.1832,4.1832,4.3244,4.4236,4.4236,4.4355,4.444,4.444,4.4497,4.4834,4.5578,4.5843,4.6583,4.7838,4.8075,4.8477,4.8984,4.9018,4.9018,4.9018,4.9018,4.9018,4.9018,4.9018,4.9018,4.9018,4.9018,4.9018,4.9018,4.9018,4.9018,4.9018,4.9018,4.9018,4.9018,4.9018,4.9018,4.8923,4.8547,4.8162,0.0,0.0,4.6896,4.6746,4.7061,4.7188,4.7251,4.7449,4.7933,4.854,4.9542,4.992,5.0229,5.079,5.1467,5.2144,5.2821,5.3453,5.4237,5.5231,5.5786,5.6222,5.7001,5.7157,5.7558,5.8607,5.8704,5.889,5.9578,5.9668,5.9668,5.9668,5.9668,5.9668,5.9668,5.9907,6.0176,6.0356,6.1014,6.1373,6.1373,6.0745,6.0266,6.0086,5.9458,5.9099,5.9099,5.9099,5.9099,5.9099,5.9099,5.8411,5.7094,5.6735,5.6047,5.5179,5.5179,5.482,5.4162,5.3473,5.2785,5.2127,5.1468,5.1229,5.1229,5.1229,5.1229,5.1139,0.0,0.0,3.7565,3.8059,3.8399,3.8794,3.9228,4.0679,4.1694,4.1694,4.3108,4.4097,4.4097,4.4097,4.4097,4.4097,4.4241,4.4596,4.5366,4.6287,4.7124,4.7872,4.8612,4.8984,4.9018,4.9018,4.9018,4.9018,4.9018,4.9018,4.9018,4.9018,4.9018,4.9018,4.9018,4.9018,4.9018,4.9018,4.9018,4.9018,4.9018,4.9018,4.9018,4.9018,4.9018,4.8987,4.8832,0.0,0.0,4.8,4.777,4.7736,4.805,4.8521,4.8945,4.9088,4.9174,4.9375,4.9874,5.0472,5.1079,5.1541,5.2175,5.2852,5.3529,5.416,5.4837,5.5561,5.6076,5.677,5.8084,5.7901,5.8121,6.0078,6.0191,6.0266,6.0954,6.1044,6.1044,6.1044,6.1044,6.1044,0.0,6.0475,6.0356,6.1044,6.1702,6.2061,6.2061,6.1433,6.0775,6.0116,5.9458,5.9099,5.9099,5.9099,5.9099,5.9099,5.9099,5.8411,5.7064,5.5807,5.5239,5.5179,5.5179,5.482,5.4162,5.3473,5.2785,5.2127,5.1468,5.1229,5.1229,5.1229,5.1229,5.1229,0.0,0.0,0.0,3.7565,3.7915,3.8258,3.8595,4.0203,4.1352,4.1352,4.2907,0.0,0.0,0.0,0.0,0.0,4.4155,4.4687,4.5928,4.638,4.7177,4.8459,4.8821,4.9018,4.9018,4.9018,4.9018,4.9018,4.9492,4.9729,4.9729,5.0236,5.0473,5.0473,5.0473,5.0473,5.0473,5.0473,5.0168,4.9729,4.9729,4.9424,4.9018,4.9018,4.9018,4.8984,0.0,0.0,0.0,4.8515,4.8625,4.8829,4.9184,4.9662,5.0127,5.0095,5.0184,5.0439,5.0986,5.1378,5.1803,5.2471,5.2678,5.3006,5.4099,5.4529,5.5037,5.6176,5.6751,5.7289,5.8206,5.8265,5.8663,6.0253,6.0306,6.0326,6.1014,6.1104,6.1104,6.1104,6.1104,0.0,0.0,0.0,0.0,6.1762,6.2361,6.257,6.2121,6.1463,6.0805,6.0116,5.9458,5.9099,5.9099,5.9099,5.9099,5.9099,5.8201,5.7543,5.7064,5.5777,5.5179,5.5179,5.5179,5.5059,5.482,5.4132,5.3473,5.2785,5.2127,5.1588,5.1229,5.1229,5.1229,5.1229,0.0,0.0,0.0,0.0,0.0,0.0,0.0,0.0,0.0,0.0,0.0,0.0,0.0,0.0,0.0,0.0,0.0,4.4645,4.6115,4.6334,4.7096,4.8639,4.8801,4.8798,4.8798,4.8798,4.8798,4.8798,4.9571,4.9942,4.9942,5.0686,5.1023,5.1023,5.1088,5.112,5.112,5.1185,5.0947,5.0473,5.0473,5.0202,4.9796,4.9796,4.9796,0.0,0.0,0.0,4.9605,4.9335,4.9411,4.969,5.0391,5.0911,5.1313,5.141,5.1392,5.1534,5.2194,5.2334,5.2405,5.2945,5.2908,5.3006,5.4068,5.4591,5.5178,5.6289,5.7012,5.7543,5.817,5.8441,5.9053,6.0415,6.0596,6.0856,6.1672,6.1822,6.1822,6.1822,6.1822,6.1822,0.0,0.0,0.0,6.1762,6.2121,6.2181,6.1762,6.1104,6.0535,6.0086,5.9458,5.9099,5.9099,5.9099,5.9099,5.9099,5.7723,5.7094,5.7064,5.5777,5.5179,5.5179,5.5179,5.5179,5.5149,5.4491,5.3952,5.3473,5.2546,5.1947,5.1528,5.1319,5.1229,5.1229,0.0,0.0,0.0,0.0,0.0,0.0,0.0,0.0,0.0,0.0,0.0,0.0,0.0,0.0,0.0,0.0,0.0,0.0,4.5996,4.6216,4.6943,4.8416,4.8483,4.8515,4.8515,4.8515,4.8515,4.8515,4.922,4.9622,4.9689,5.0425,5.0794,5.0827,5.1026,5.1092,5.1092,5.1221,5.1286,5.1252,5.1252,5.1219,5.1185,5.1185,0.0,0.0,0.0,0.0,5.1116,5.0405,5.0168,5.0441,5.1764,5.2264,5.2506,5.2987,5.2768,5.2553,5.3503,5.3269,5.2824,5.3077,5.2922,5.2928,5.356,5.4467,5.5302,5.5984,5.6871,5.7604,5.808,5.8468,5.9175,6.0616,6.1201,6.1859,6.2897,6.3049,6.3079,6.3079,6.3079,6.3079,6.3079,6.245,0.0,6.1164,0.0,6.1104,6.1074,6.0446,6.0057,6.0027,5.9428,5.9099,5.9099,5.9099,5.9099,5.9099,5.7723,5.7094,5.7064,5.5777,5.5179,5.5179,5.5179,5.5179,5.5149,5.4521,5.4251,5.4072,5.2815,5.2247,5.2127,5.1498,5.1259,5.1229,0.0,0.0,0.0,0.0,0.0,0.0,0.0,0.0,0.0,0.0,0.0,0.0,0.0,0.0,0.0,0.0,0.0,0.0,4.5777,4.6062,4.6791,4.8225,4.842,4.8515,4.8515,4.8515,4.8515,4.8515,4.922,4.989,5.0459,5.1162,5.1798,5.2334,5.2368,5.2402,5.2402,5.2437,5.2169,5.1631,0.0,5.1329,5.0826,0.0,0.0,0.0,0.0,5.1185,5.1183,5.098,5.1221,5.1764,5.264,5.3242,5.3563,5.3551,5.4014,5.4513,5.4475,5.42,5.3935,5.3868,5.354,5.3388,5.4072,5.4563,5.5198,5.6355,5.6992,5.7587,5.8545,5.886,5.9325,6.0324,6.1007,6.1709,6.2268,6.278,6.3079,6.3079,6.3079,6.3079,6.3079,6.2032,0.0,0.0,6.1104,6.0894,6.0386,6.0176,5.9847,5.9368,5.9189,5.9099,5.9099,5.9099,5.9099,5.9099,5.7723,5.7094,5.7064,5.5777,5.5179,5.5179,5.5179,5.5179,5.5179,5.4999,5.464,5.4192,5.3832,5.3084,5.2187,5.2007,5.1648,5.1229,0.0,0.0,0.0,0.0,0.0,0.0,0.0,0.0,0.0,0.0,0.0,0.0,0.0,0.0,0.0,0.0,0.0,0.0,0.0,4.5908,4.6601,4.8032,4.8195,4.826,4.826,4.826,4.826,4.826,4.9026,4.9593,5.0026,5.0759,5.1326,5.1726,5.1761,5.1796,5.183,5.2233,0.0,0.0,0.0,0.0,0.0,0.0,0.0,0.0,5.2033,5.2132,5.2266,5.257,5.2909,5.3281,5.3686,5.4258,5.4792,5.5022,5.5365,5.5686,5.5599,5.5287,5.4842,5.4497,5.4114,5.3907,5.4229,5.4794,5.5455,5.6214,5.7147,5.7949,5.8349,5.9176,5.9866,6.0147,6.1134,6.1951,6.2228,6.2774,6.3079,6.3079,6.3079,6.3079,6.3079,6.1882,6.1104,0.0,6.0565,6.0057,5.9668,5.9668,5.9488,5.9129,5.9099,5.9099,5.9099,5.9099,5.9099,5.9099,5.8052,5.7393,5.7064,5.6077,5.5478,5.5179,0.0,5.5179,5.5179,5.5179,5.497,5.461,5.4311,5.3743,5.3054,5.2755,5.2217,5.1648,0.0,0.0,0.0,0.0,0.0,0.0,0.0,0.0,0.0,0.0,0.0,0.0,0.0,0.0,0.0,0.0,0.0,0.0,0.0,0.0,4.6511,4.7869,4.7968,4.7968,4.7968,4.8001,4.8067,4.8166,4.8796,4.9193,4.9392,4.9955,0.0,0.0,0.0,0.0,0.0,0.0,0.0,0.0,0.0,0.0,0.0,0.0,0.0,0.0,5.311,5.3382,5.372,5.4397,5.46,5.46,5.4702,5.5243,5.5987,5.663,5.6614,5.6449,5.6706,5.633,5.5661,5.509,5.4758,5.4581,5.437,5.5144,5.5888,5.5985,5.7419,5.8518,5.8137,5.9457,6.0503,6.0185,6.1203,6.2177,6.2414,6.2769,6.2989,6.3079,6.3079,6.3079,6.3079,6.1882,6.1104,6.1104,5.9877,5.9099,5.9099,5.9099,5.9099,5.9099,5.9099,5.9099,5.9099,5.9099,5.9099,5.9099,5.8441,5.7752,5.7064,5.6466,5.5807,5.5179,5.5179,0.0,5.5179,5.5179,5.5179,5.5119,5.4551,5.4281,5.4132,5.3533,5.2845,5.2187,0.0,0.0,0.0,0.0,0.0,0.0,0.0,0.0,0.0,0.0,4.2397,4.2992,0.0,0.0,0.0,0.0,0.0,0.0,0.0,0.0,0.0,4.7538,4.7704,4.7737,4.7737,4.7935,4.8299,4.8928,4.9061,4.9723,5.0917,5.0419,0.0,0.0,0.0,0.0,0.0,0.0,0.0,0.0,0.0,0.0,0.0,0.0,0.0,0.0,5.3076,5.3617,5.4224,5.4498,5.46,5.4702,5.5344,5.6021,5.663,5.6765,5.706,5.7345,5.7218,5.6872,5.6447,5.6139,5.5868,5.5701,5.5701,5.5959,5.6421,5.7011,5.8034,5.8897,5.8955,5.9858,6.0486,6.0264,6.0606,6.1194,6.1904,6.216,6.248,6.3019,6.3079,6.3079,6.3079,6.1882,0.0,0.0,5.9877,5.9099,5.9099,5.9099,5.9099,5.9099,5.9099,5.9099,5.9099,5.9099,5.9099,5.9099,5.8441,5.7752,5.7064,5.6466,5.5807,5.5179,5.5179,0.0,5.5179,5.5179,5.5179,5.5179,5.5059,5.47,5.4192,5.4072,5.3264,5.2264,0.0,0.0,0.0,0.0,0.0,0.0,0.0,0.0,3.8972,4.0529,4.139,4.1948,4.2269,4.2586,0.0,0.0,0.0,0.0,0.0,0.0,0.0,0.0,4.7336,4.7601,4.7927,4.8163,4.8626,4.935,0.0,4.9712,5.0439,5.0041,5.0074,5.0371,5.0041,4.991,0.0,0.0,0.0,0.0,0.0,0.0,0.0,0.0,0.0,0.0,0.0,5.4047,5.4962,5.5439,5.568,5.5818,5.6156,5.6799,5.7374,5.7374,5.7538,5.7698,5.7514,5.7327,5.7101,5.6724,5.6569,5.6492,5.6375,5.6492,5.6746,5.7111,5.7969,5.8773,5.9142,5.9971,6.0683,6.0921,6.1257,6.1619,6.1989,6.2293,6.2578,6.2739,6.2984,6.3079,6.3079,6.1882,6.1104,6.1104,5.9877,5.9099,5.9099,5.9099,5.9099,5.9099,5.9099,5.9099,5.9099,5.9099,5.9099,5.9099,5.877,5.8082,5.7094,5.6795,5.6107,5.5179,5.5179,0.0,5.5179,5.5179,5.5179,5.5179,5.5179,5.4999,5.473,5.473,5.4201,5.3447,0.0,0.0,0.0,0.0,0.0,0.0,0.0,3.7967,3.8686,3.9908,4.037,4.0845,4.1547,4.2041,4.2557,0.0,0.0,0.0,0.0,0.0,0.0,0.0,0.0,4.7355,4.8072,0.0,0.0,4.9755,4.972,0.0,0.0,0.0,0.0,0.0,4.9485,4.942,4.9524,0.0,0.0,0.0,0.0,0.0,0.0,0.0,0.0,0.0,0.0,5.4639,5.5665,5.6272,5.6757,5.7036,5.7036,5.7442,5.7881,5.7881,5.7881,5.7845,5.7698,5.7662,5.7588,5.7289,5.7176,5.7139,5.6987,5.7063,5.7176,5.7176,5.793,5.8705,5.9243,6.0008,6.083,6.1585,6.1867,6.2063,6.2166,6.2449,6.2627,6.2596,6.2825,6.2927,6.2869,6.1792,0.0,6.0894,5.9787,5.9099,5.9099,5.9099,5.9099,5.9099,5.9099,5.9099,5.9099,5.9099,5.9099,5.9099,5.9099,5.8411,5.7094,5.7094,5.6406,5.5179,5.5179,0.0,0.0,5.5179,5.5179,5.5179,5.5179,5.5179,5.5179,5.5179,5.491,5.4477,0.0,0.0,0.0,0.0,0.0,0.0,0.0,3.7982,3.8712,3.9611,3.9803,4.0122,4.0974,4.1647,4.2131,0.0,0.0,0.0,0.0,0.0,0.0,0.0,0.0,0.0,0.0,0.0,0.0,5.0326,5.0079,0.0,0.0,0.0,0.0,0.0,0.0,4.8816,4.9098,4.9844,0.0,0.0,0.0,0.0,0.0,0.0,0.0,0.0,0.0,5.5299,5.6154,5.6404,5.7094,5.778,5.778,5.7848,5.7881,5.7881,5.7881,5.7881,5.7881,5.7881,5.7845,5.7808,5.7808,5.7808,5.7772,5.7808,5.7808,5.7808,5.8417,5.9085,5.967,6.0208,6.085,6.1564,6.1523,6.1566,6.2126,6.196,6.2074,6.2779,6.2686,6.2465,6.2238,6.1523,6.0864,6.0236,5.9518,5.9099,5.9099,5.9099,5.9099,5.9099,5.9099,5.9099,5.9099,5.9099,5.9099,5.9099,5.9099,5.8411,5.7094,5.7094,5.6406,5.5179,5.5179,0.0,0.0,5.5179,5.5179,5.5179,5.5179,5.5179,5.5179,5.5179,5.476,5.4291,0.0,0.0,0.0,0.0,0.0,0.0,0.0,3.7973,3.8667,3.9427,3.9517,3.9824,4.0558,4.1243,4.2004,0.0,0.0,0.0,0.0,0.0,0.0,0.0,0.0,0.0,0.0,0.0,4.9267,5.0262,5.0071,0.0,0.0,0.0,0.0,0.0,0.0,4.9426,4.9731,5.0019,0.0,0.0,0.0,0.0,0.0,0.0,0.0,0.0,0.0,0.0,5.6705,5.678,5.7204,5.7735,5.7735,5.7808,5.7881,5.7881,5.7881,5.7881,5.7881,5.7881,5.7881,5.7881,5.7881,5.7881,5.7881,5.7881,5.7881,5.7881,5.8118,5.8656,5.9798,6.0045,6.061,6.2108,6.1916,6.182,6.2614,6.2485,6.2351,6.2637,6.2486,6.2213,0.0,0.0,6.0206,5.9548,5.9249,5.9099,5.9099,5.9099,5.9099,5.9099,5.9099,5.9099,5.9099,5.9099,5.9099,5.9099,5.9099,5.8411,5.7094,5.7094,5.6406,5.5179,5.5179,0.0,0.0,5.5179,5.5179,5.5179,5.5179,5.5179,5.5179,5.5179,5.513,5.503,0.0,0.0,0.0,0.0,0.0,3.6896,3.7345,3.8153,3.8871,3.9349,3.9373,3.9738,4.0606,4.1115,4.1904,4.3198,0.0,0.0,0.0,0.0,0.0,0.0,0.0,0.0,0.0,0.0,4.9244,4.9939,4.9701,4.9461,0.0,0.0,4.9015,4.93,0.0,0.0,0.0,0.0,0.0,0.0,0.0,0.0,0.0,0.0,0.0,0.0,0.0,0.0,0.0,0.0,0.0,5.7514,5.7588,5.7698,5.7808,5.7881,5.7881,5.7881,5.7881,5.7881,5.7881,5.7881,5.7881,5.7881,5.7881,5.7881,5.7881,5.7881,5.7881,5.8355,5.9844,6.0,6.0482,6.23,6.2274,6.2286,6.293,6.2837,6.2695,6.2864,6.2569,6.2135,6.1625,6.056,5.9717,5.9237,5.9153,5.9099,5.9099,5.9099,5.9099,5.9099,5.9099,5.9099,5.9099,5.9099,5.9099,5.9099,5.9099,5.8411,5.7094,5.7094,5.6406,5.5179,5.5179,0.0,0.0,5.5179,5.5179,5.5179,5.5179,5.5179,5.5179,5.5179,5.533,5.5471,0.0,0.0,0.0,0.0,0.0,0.0,0.0,3.8542,3.9373,3.9373,3.9373,3.9918,4.1235,4.1422,4.1893,4.321,0.0,0.0,0.0,0.0,0.0,0.0,0.0,0.0,0.0,0.0,4.8573,4.9331,4.9015,4.8687,4.8301,4.8091,4.8218,4.8604,0.0,0.0,0.0,0.0,0.0,0.0,0.0,0.0,0.0,0.0,0.0,0.0,0.0,0.0,0.0,0.0,0.0,0.0,0.0,5.7588,5.7625,5.7845,5.7881,5.7881,5.7881,5.7881,5.7881,5.7881,5.7881,5.7881,5.7881,5.7881,5.7881,5.7881,5.7881,5.8355,5.9844,6.0114,6.0511,6.1801,6.2468,6.2791,6.2804,6.2815,6.3,6.3603,6.304,6.2353,6.1748,6.0373,5.9476,5.9476,5.9261,0.0,5.9099,5.9099,5.9099,5.9099,5.9099,5.9099,5.9099,5.9099,5.9099,5.9099,5.9099,5.8411,5.7094,5.7094,5.6406,5.5179,0.0,0.0,0.0,5.5179,5.5179,5.5179,5.5179,5.5179,5.5179,5.5179,5.5179,5.528,0.0,0.0,0.0,0.0,0.0,0.0,0.0,3.8841,3.9373,3.9373,3.9373,3.9918,4.1235,4.1422,4.1893,4.317,0.0,0.0,0.0,0.0,0.0,0.0,0.0,0.0,0.0,0.0,4.8389,4.8635,4.8814,4.8517,4.7837,4.8106,4.8119,4.7922,4.8175,4.8759,0.0,0.0,0.0,0.0,0.0,0.0,0.0,0.0,0.0,0.0,0.0,0.0,0.0,0.0,0.0,0.0,0.0,0.0,0.0,5.7845,5.7881,5.7881,5.7881,5.7881,5.7881,5.7881,5.7881,5.7881,5.7881,5.7881,5.7881,5.7881,5.7881,5.8186,5.9167,5.9776,6.0381,6.139,6.1936,6.2393,6.2757,6.2934,6.306,6.3095,6.2562,6.1976,0.0,0.0,6.0324,6.0114,5.988,5.972,5.972,5.9476,5.9315,5.9099,5.9099,5.9099,5.9099,5.9099,5.9099,5.9099,5.865,5.7962,5.7094,5.6645,5.5987,0.0,0.0,0.0,0.0,5.5179,5.5179,5.5179,5.5179,5.5179,5.5229,5.5381,5.5481,5.5581,0.0,0.0,0.0,0.0,0.0,0.0,0.0,3.896,3.9373,3.9373,3.9649,4.0187,4.1265,4.1632,4.2282,4.3599,0.0,0.0,0.0,0.0,0.0,0.0,0.0,0.0,0.0,4.7752,4.8049,4.8049,4.8546,4.8494,4.7886,4.8175,4.8189,4.7985,4.8086,4.8552,0.0,0.0,0.0,0.0,0.0,0.0,0.0,0.0,0.0,0.0,0.0,0.0,0.0,0.0,0.0,0.0,0.0,0.0,0.0,0.0,5.7881,5.7881,5.7881,5.7881,5.7881,5.7881,5.7881,5.7881,5.7881,5.7881,5.7881,5.7881,5.7881,5.8118,5.8863,5.9607,6.0351,6.1163,6.1756,6.23,6.2714,6.3115,6.3342,6.3348,6.2972,0.0,0.0,6.1633,6.1226,6.0897,6.0586,6.0407,6.0302,6.0114,5.9849,5.9583,5.9261,5.9099,5.9099,5.9099,5.8979,5.874,5.8321,5.7633,5.6735,5.6346,5.5807,0.0,0.0,0.0,0.0,5.5179,5.5179,5.5179,5.5179,5.5229,5.5381,5.5601,5.5849,5.6096,0.0,0.0,0.0,0.0,0.0,0.0,0.0,0.0,0.0,0.0,3.9978,4.0666,4.1362,4.2021,4.292,0.0,0.0,0.0,0.0,0.0,0.0,0.0,0.0,0.0,4.7581,4.7581,4.7581,4.7581,4.8303,4.8547,4.8297,4.8386,4.8489,4.8588,4.8426,4.8707,0.0,0.0,0.0,0.0,0.0,0.0,0.0,0.0,0.0,0.0,0.0,0.0,0.0,0.0,0.0,0.0,0.0,0.0,0.0,0.0,0.0,0.0,0.0,5.7881,5.7881,5.7881,5.7881,5.7881,5.7881,5.7881,0.0,5.7881,5.7881,5.8084,5.8795,5.9573,6.0351,6.1095,6.1873,6.2459,6.2688,6.3166,6.3692,0.0,6.4114,0.0,6.3309,6.2744,6.2202,6.1734,6.143,6.1175,6.0949,6.0897,6.0794,6.0534,5.9629,5.9201,5.9153,5.9123,5.8764,5.8165,5.8075,5.7386,5.6269,5.6209,5.5849,0.0,0.0,0.0,0.0,5.5179,5.5179,5.5229,5.5229,5.5431,5.5731,5.5918,5.636,5.6892,0.0,0.0,0.0,0.0,0.0,0.0,0.0,0.0,0.0,0.0,3.9978,4.0666,4.1362,4.2021,4.292,0.0,0.0,0.0,0.0,0.0,0.0,0.0,0.0,0.0,4.7396,4.7396,4.7396,4.7396,4.8565,4.8865,4.8297,4.9314,4.9254,4.8355,4.8685,4.9169,0.0,0.0,0.0,0.0,0.0,0.0,0.0,0.0,0.0,0.0,5.668,5.668,0.0,0.0,0.0,0.0,0.0,0.0,0.0,0.0,5.7881,5.7881,5.7881,0.0,5.7881,5.7881,5.7881,5.7881,0.0,5.7881,5.7881,5.7881,5.7881,5.7949,5.8118,5.9235,6.0148,6.0351,6.1501,6.229,6.1984,6.258,6.3496,6.4753,6.4702,6.4393,6.4067,6.3516,6.3084,6.2825,6.2383,6.2085,6.2035,6.1866,6.1714,6.1613,6.0679,6.0034,5.9773,5.9259,5.8844,5.8662,5.7686,5.7122,5.702,5.6503,5.6169,0.0,0.0,0.0,5.5481,5.528,5.533,5.5531,5.57,5.6017,5.6506,5.694,5.7417,5.7933,0.0,0.0,0.0,0.0,0.0,0.0,0.0,0.0,0.0,0.0,0.0,0.0,0.0,0.0,0.0,0.0,0.0,0.0,0.0,0.0,0.0,0.0,0.0,4.7309,4.7309,4.7309,4.7309,4.7309,4.8626,4.912,4.8745,4.9763,4.9807,4.9164,4.9704,5.0319,0.0,0.0,0.0,0.0,0.0,0.0,0.0,0.0,0.0,0.0,5.668,5.668,0.0,5.668,5.668,5.6757,0.0,0.0,0.0,0.0,5.7881,5.7881,5.7881,5.7881,5.7881,5.7881,5.7881,5.7881,5.7881,5.7881,5.7881,5.7881,5.7881,5.7881,5.7881,5.9099,6.0114,6.0114,6.14,6.2459,6.2688,6.2997,6.3715,6.5081,6.5111,6.493,0.0,6.4426,6.4067,6.3738,6.3452,6.3212,6.3084,6.2971,6.2665,6.2202,6.1675,6.1007,6.0229,5.9522,5.8949,5.8642,5.7924,5.7531,5.7338,5.6999,5.6814,0.0,0.0,0.0,5.6096,5.5948,5.5899,5.5948,5.6311,5.67,5.7132,5.7746,5.8303,5.876,0.0,0.0,0.0,0.0,0.0,0.0,0.0,0.0,0.0,0.0,0.0,0.0,0.0,0.0,0.0,0.0,0.0,0.0,0.0,0.0,0.0,0.0,0.0,4.7309,4.7309,4.7309,4.7309,4.7309,4.8506,4.9209,4.9329,4.9942,5.0288,5.0395,5.0813,5.1529,0.0,0.0,0.0,0.0,0.0,0.0,0.0,0.0,0.0,0.0,0.0,0.0,0.0,5.668,5.6719,5.6796,5.7176,0.0,0.0,0.0,0.0,0.0,5.7881,5.7881,5.7881,5.7881,5.7881,5.7881,5.7881,5.7881,5.7881,5.7881,5.7881,5.7881,5.7881,5.9099,6.0114,6.0114,6.1366,6.2655,6.3667,6.3684,6.4071,6.5138,6.5404,0.0,6.5144,6.5099,6.4918,6.4472,6.4379,6.4221,6.3872,6.3826,6.3408,6.2464,6.2335,6.1756,6.0652,5.9861,5.9218,5.8623,5.8529,5.8232,5.7715,5.7715,5.7668,5.7621,0.0,0.0,5.6796,5.6796,5.67,5.6554,5.7084,5.7511,5.784,5.8532,5.9075,5.9564,0.0,0.0,0.0,0.0,0.0,0.0,0.0,0.0,0.0,0.0,0.0,0.0,0.0,0.0,0.0,0.0,0.0,0.0,0.0,0.0,0.0,4.7309,4.7309,4.7309,4.7309,4.7309,4.7309,4.7309,4.8057,4.8716,4.9329,4.9942,5.0532,5.1133,5.103,5.1612,5.2709,0.0,0.0,0.0,0.0,0.0,0.0,0.0,0.0,0.0,0.0,0.0,0.0,5.668,5.6796,5.6987,5.7214,0.0,0.0,0.0,0.0,0.0,5.7881,5.7881,5.7881,5.7881,5.7881,5.7881,5.7881,5.7881,5.7881,5.7881,5.7881,5.7881,5.7881,5.9099,6.0114,6.0114,6.1177,6.234,0.0,0.0,6.4094,6.4737,0.0,6.5647,6.5381,6.5189,6.5054,6.4963,6.4748,6.4316,6.3694,6.3661,6.3289,6.2513,6.1937,6.1522,6.1345,6.034,5.9752,5.9656,5.9083,5.8901,5.8985,5.8985,5.8927,5.8746,0.0,5.798,5.737,5.7291,5.7291,5.7401,5.8072,5.8624,5.9075,5.9608,6.0087,6.0548,0.0,0.0,0.0,0.0,0.0,0.0,0.0,0.0,0.0,0.0,0.0,0.0,0.0,0.0,0.0,0.0,0.0,0.0,0.0,0.0,0.0,4.7309,4.7309,4.7309,4.7309,4.7309,4.7309,4.7309,4.7967,4.8715,4.9509,5.0729,5.1667,5.2219,5.2523,5.3249,5.4229,5.5075,0.0,0.0,0.0,0.0,0.0,0.0,0.0,0.0,0.0,0.0,0.0,0.0,5.6911,5.7063,5.7364,0.0,0.0,0.0,0.0,0.0,5.7881,5.7881,5.7881,5.7881,5.7881,5.7881,5.7881,5.7881,5.7881,5.7881,5.7881,5.7881,5.7881,5.9099,6.0351,6.1197,6.1829,6.2419,6.3006,6.3329,6.3667,0.0,0.0,6.4571,6.4441,6.4222,6.4123,6.4123,6.4002,6.3793,6.3463,6.343,6.31,6.2332,6.2045,6.1683,6.1287,6.0783,6.0445,6.0149,5.9858,5.9783,5.9903,5.9903,5.9859,5.9728,0.0,5.8927,5.8441,5.8303,5.8257,5.8381,5.8972,5.9419,5.9739,6.0216,6.0591,6.1002,0.0,0.0,0.0,0.0,0.0,0.0,0.0,0.0,0.0,0.0,0.0,0.0,0.0,0.0,0.0,0.0,0.0,0.0,0.0,0.0,4.7309,4.7309,4.7309,4.7309,4.7309,4.7309,4.7309,4.7309,4.7862,4.8667,4.9791,5.1574,5.2667,5.3201,5.3942,5.4707,5.5491,5.5966,5.6402,0.0,0.0,0.0,0.0,0.0,0.0,0.0,0.0,0.0,0.0,0.0,0.0,0.0,0.0,0.0,0.0,5.7845,5.7881,5.7881,5.7881,5.7881,5.7881,5.7881,5.7881,5.7881,5.7881,5.7881,5.7881,5.7881,5.7881,5.7881,5.7881,5.9099,6.0588,6.2144,6.2381,6.2544,6.2885,6.3087,6.3302,6.3701,6.3768,6.37,6.3615,6.3444,6.3358,6.3315,6.3315,6.3249,6.3083,6.305,6.2719,6.1989,6.1914,6.1649,6.1119,6.1119,6.0919,6.0581,6.0581,6.0581,6.0581,6.0581,6.0506,6.042,6.0033,5.9716,5.9375,5.9229,5.9184,5.9229,5.9673,6.0033,6.0302,6.0675,6.0919,6.1161,0.0,0.0,0.0,0.0,0.0,0.0,0.0,0.0,0.0,0.0,0.0,0.0,0.0,0.0,0.0,0.0,0.0,0.0,0.0,0.0,4.7309,4.7309,4.7309,4.7309,4.7309,4.7309,4.7309,4.7309,4.7555,4.852,5.0275,5.1888,5.3024,5.3683,5.4338,5.5049,5.5733,5.6172,5.6486,5.668,0.0,0.0,0.0,0.0,0.0,0.0,0.0,0.0,0.0,0.0,0.0,0.0,0.0,0.0,5.7881,5.7881,5.7881,5.7881,5.7881,5.7881,5.7881,5.7881,5.7881,5.7881,5.7881,5.7881,5.7881,5.7881,5.7881,5.7881,5.7881,5.9099,6.0588,6.2144,6.2381,6.2415,6.2448,0.0,6.3377,6.3208,6.3807,6.4078,6.3657,6.3572,6.3487,6.3315,6.3315,6.3017,6.2321,6.2288,6.1914,6.1218,6.1185,6.1152,6.1119,6.1119,6.1077,6.1077,6.1077,6.1077,6.1077,6.1077,6.0919,6.0675,6.042,6.0076,5.9673,5.9673,5.9673,5.9716,6.0195,6.0623,6.1002,6.1077,6.1077,6.1161,0.0,0.0,0.0,0.0,0.0,0.0,0.0,0.0,0.0,0.0,0.0,0.0,0.0,0.0,0.0,0.0,0.0,0.0,0.0,4.6322,4.686,4.7279,4.7309,4.7352,4.7452,4.7352,4.7309,4.7309,4.8611,4.9799,5.0796,5.2679,5.3942,5.4581,5.4998,5.5531,5.6132,5.629,5.6519,5.668,5.668,0.0,0.0,0.0,0.0,0.0,0.0,0.0,0.0,0.0,5.7289,5.7476,5.7698,5.7845,5.7881,5.7881,5.7881,5.7881,5.7881,5.7881,5.7881,5.7881,5.7881,5.7881,5.7881,5.7881,5.7881,5.7881,5.7881,5.8186,5.9099,5.9708,6.0588,6.2144,6.2381,6.2381,6.2381,6.2618,6.2781,6.2668,6.2784,6.275,6.2423,6.2332,6.2166,6.1956,6.1914,6.1815,6.1516,6.1516,6.1384,6.1119,6.1119,6.1119,6.1119,6.1119,6.1119,6.1119,6.1119,6.1119,6.1119,6.1119,6.1044,6.0919,6.0675,6.0463,6.0292,6.0163,6.0206,6.0335,6.0708,6.0919,6.1119,6.1119,6.1119,6.1161,0.0,0.0,0.0,0.0,0.0,0.0,0.0,0.0,0.0,0.0,0.0,0.0,0.0,0.0,0.0,0.0,0.0,0.0,4.4945,4.5813,4.6531,4.7036,4.7362,4.7624,4.7837,4.7837,4.7709,4.7525,4.9474,5.0629,5.1038,5.3186,5.4316,5.4551,5.5069,5.5436,5.571,5.5787,5.6035,5.6349,5.6349,5.6349,0.0,0.0,0.0,0.0,0.0,0.0,0.0,0.0,5.7289,5.7439,5.7735,5.7845,5.7881,5.7881,5.7881,5.7881,5.7881,5.7881,5.7881,5.7881,5.7881,5.7881,5.7881,5.7881,5.7881,5.7881,5.7881,5.8355,5.9844,6.0114,6.0588,6.2144,6.2381,6.2381,6.2381,6.2381,6.2381,6.2381,6.2229,6.207,6.183,6.1628,6.1383,6.121,6.1161,6.1119,0.0,6.1119,6.1119,6.1119,6.1119,6.1119,6.1119,6.1119,6.1119,6.1119,6.1119,6.1119,6.1119,6.1119,6.1119,6.1077,6.0802,6.0717,6.0675,6.0463,6.0506,6.0717,6.1002,6.1119,6.1119,6.1119,6.1119,6.1119,0.0,0.0,0.0,0.0,0.0,0.0,0.0,0.0,0.0,0.0,0.0,0.0,0.0,0.0,0.0,0.0,0.0,0.0,4.4317,4.5532,4.6376,4.6599,4.7486,4.8091,4.8301,4.8697,4.8615,4.8007,4.9788,5.0807,5.1046,5.3311,5.3981,5.3337,5.4483,5.4695,5.419,5.4415,5.492,5.5582,5.5582,5.5582,0.0,0.0,0.0,0.0,0.0,0.0,0.0,0.0,5.7252,5.7588,5.7588,5.7735,5.7881,5.7881,5.7881,5.7881,5.7881,5.7881,5.7881,5.7881,5.7881,5.7881,5.7881,5.7881,5.7881,5.7881,5.7881,5.8355,5.9844,6.0114,6.0588,6.2144,6.2381,6.2381,6.2381,6.2381,6.2381,6.2381,6.2381,6.2268,6.2037,6.183,6.1628,6.1424,6.121,0.0,0.0,6.1119,6.1119,6.1119,6.1119,6.1119,6.1119,6.1119,6.1119,6.1119,6.1119,6.1119,6.1119,6.1119,6.1119,6.1077,6.0802,6.0717,6.0675,6.0463,6.0506,6.0717,6.1002,6.1119,6.1119,6.1119,6.1119,6.1119,0.0,0.0,0.0,0.0,0.0,0.0,0.0,0.0,0.0,0.0,0.0,0.0,0.0,0.0,0.0,0.0,0.0,0.0,4.4287,4.4676,4.5387,4.6539,4.7061,4.7729,4.8687,4.9178,4.9219,4.8893,4.9916,5.0632,5.1046,5.2522,5.3214,5.3344,5.3773,5.4005,5.3967,5.4043,5.4213,5.4476,5.5122,5.5358,0.0,0.0,0.0,0.0,0.0,0.0,0.0,0.0,0.0,0.0,5.7514,5.7625,5.7698,5.7845,5.7881,5.7881,5.7881,5.7881,5.7881,5.7881,5.7881,5.7881,5.7881,5.7881,5.7881,5.7881,5.7881,5.8355,5.9844,6.0114,6.0588,6.2144,6.2381,6.2381,6.2381,6.2381,6.2381,6.2381,6.2381,6.2268,6.2037,6.1957,6.1756,6.1424,6.1342,0.0,0.0,6.1119,6.1119,6.1119,6.1119,6.1119,6.1119,6.1119,6.1119,6.1119,6.1119,6.1119,6.1119,6.1119,6.1119,6.1119,6.1002,6.0961,6.0961,6.0919,6.0919,6.1002,6.1077,6.1119,6.1119,6.1119,6.1119,6.1119,0.0,0.0,0.0,0.0,0.0,0.0,0.0,0.0,0.0,0.0,4.329,4.329,0.0,0.0,0.0,0.0,0.0,0.0,0.0,4.4167,4.4918,4.6301,4.6935,4.7927,4.9421,4.9541,4.9573,4.9452,5.0018,5.037,5.0563,5.1778,5.2229,5.208,5.2566,5.2767,5.2666,5.2851,5.309,5.3422,5.4185,5.4661,5.4957,0.0,0.0,0.0,0.0,0.0,0.0,0.0,0.0,0.0,5.7364,5.7551,5.7625,5.7845,5.7881,5.7881,5.7881,5.7881,5.7881,5.7881,5.7881,5.7983,5.8254,5.8355,5.8355,5.8355,5.8558,5.9133,6.0351,6.0588,0.0,6.2178,6.2381,6.2381,6.2381,6.2381,6.2381,6.2381,6.2381,6.2341,6.2189,6.2037,6.1877,6.1547,6.1424,0.0,0.0,6.1119,6.1119,6.1119,6.1119,6.1119,6.1119,6.1119,6.1119,6.1119,6.1119,6.1119,6.1119,6.1119,6.1119,6.1119,6.1119,6.1119,6.1119,6.1119,6.1119,6.1119,6.1119,6.1119,6.1119,6.1119,6.1119,6.1119,0.0,0.0,0.0,0.0,0.0,0.0,0.0,0.0,0.0,0.0,4.329,4.329,0.0,0.0,0.0,0.0,0.0,0.0,0.0,0.0,4.4759,4.589,4.7109,4.8515,5.0168,4.9812,4.9613,4.9613,4.9997,5.0047,4.9844,5.0941,5.097,5.0097,5.1001,5.1101,5.0685,5.1167,5.1712,5.234,5.2922,5.3535,5.4194,5.5109,0.0,0.0,0.0,0.0,0.0,0.0,0.0,0.0,5.7214,5.7402,5.7625,5.7808,5.7881,5.7881,5.7881,5.7881,5.7881,5.7881,5.7881,5.8084,5.8829,5.9066,5.9099,5.9099,5.9641,6.0351,6.1163,6.1298,6.1535,6.2279,6.2381,6.2381,6.2381,6.2381,6.2381,6.2381,6.2381,6.2381,6.2381,6.2189,6.1917,6.1709,0.0,0.0,6.1119,6.1119,6.1119,6.1119,6.1119,6.1119,6.1119,6.1119,6.1119,6.1119,6.1119,6.1119,6.1119,6.1119,6.1119,6.1119,6.1119,6.1119,6.1119,6.1119,6.1119,6.1119,6.1119,6.1119,6.1119,6.1119,6.1119,6.1119,0.0,0.0,0.0,0.0,0.0,0.0,0.0,0.0,0.0,0.0,0.0,0.0,0.0,0.0,0.0,0.0,0.0,0.0,0.0,0.0,4.4198,4.5686,4.7579,4.8901,4.9501,4.9573,4.9613,4.9613,4.9365,4.9161,4.8893,4.9295,4.9387,4.9188,4.9586,4.9636,4.9559,5.0058,5.0427,5.082,5.2097,5.2871,5.3283,5.4344,5.4721,0.0,0.0,0.0,0.0,0.0,0.0,0.0,5.6987,5.7214,5.7402,5.7625,5.7772,5.7881,5.7881,5.7881,5.7881,5.7881,5.7881,5.8084,5.8829,5.9471,5.9877,5.9877,5.9979,6.0351,6.1163,6.1298,6.1535,6.2279,6.2381,6.2381,6.2381,6.2381,6.2381,6.2381,6.2381,6.2381,6.2381,6.2341,6.211,6.1709,0.0,0.0,6.1119,6.1119,6.1119,6.1119,6.1119,6.1119,6.1119,6.1119,6.1119,0.0,6.1119,6.1119,6.1119,6.1119,6.1119,6.1119,6.1119,6.1119,6.1119,6.1119,6.1119,6.1119,6.1119,6.1119,6.1119,6.1119,6.1119,6.1119,0.0,0.0,0.0,0.0,0.0,0.0,0.0,0.0,0.0,0.0,0.0,0.0,0.0,0.0,0.0,0.0,0.0,0.0,0.0,4.329,4.4048,4.5768,4.7426,4.8542,4.9128,4.9372,4.9412,4.9291,4.9118,4.8841,4.8604,4.8604,4.8563,4.848,4.8656,4.8738,4.8811,4.9381,4.9701,5.001,5.1218,5.1875,5.2375,5.3437,5.3923,5.4059,5.4787,0.0,0.0,0.0,0.0,0.0,0.0,0.0,5.7214,5.7514,5.7662,5.7772,5.7881,5.7881,5.7881,5.7881,5.7881,5.8084,5.8829,5.9573,6.0216,6.0588,6.096,6.1332,6.1738,6.1839,6.1941,6.2347,6.2381,6.2381,6.2381,6.2381,6.2381,6.2381,6.2381,6.2381,6.2381,6.2381,6.2223,6.175,0.0,6.1506,6.1119,6.1119,6.1119,6.1119,6.1119,6.1119,6.1119,6.1119,6.1119,6.1119,6.1119,6.1119,6.1119,6.1119,6.1119,6.1119,6.1119,6.1119,6.1119,6.1119,6.1119,6.1119,6.1119,6.1119,6.1119,6.1119,6.1119,6.1077,0.0,0.0,0.0,0.0,0.0,0.0,0.0,0.0,0.0,0.0,0.0,0.0,0.0,0.0,0.0,0.0,0.0,0.0,0.0,4.3409,4.4148,4.5627,4.6865,4.7896,4.8687,4.9107,4.925,4.9118,4.9159,4.9006,4.8769,4.8438,4.8218,4.8007,4.8133,4.8175,4.8175,4.8811,4.9178,4.9501,5.0299,5.0946,5.1489,5.2524,5.3049,5.3261,5.3989,5.4291,5.439,5.5152,0.0,0.0,0.0,0.0,5.6896,5.7368,5.7551,5.7625,5.7808,5.7881,5.7881,5.7881,5.7881,5.8084,5.8829,5.9471,6.0148,6.0926,6.1772,6.2381,6.2381,6.2381,6.2381,6.2381,6.2381,6.2381,6.2381,6.2381,6.2381,6.2381,6.2381,6.2381,6.2381,6.2381,6.2223,6.179,0.0,6.1506,6.1169,6.1119,6.1119,6.1119,6.1119,6.1119,6.1119,6.1119,6.1119,6.1119,6.1119,6.1119,6.1119,6.1119,6.1119,6.1119,6.1119,6.1119,6.1119,6.1119,6.1119,6.1119,6.1119,6.1119,6.1119,6.1119,6.1119,6.1077,0.0,0.0,0.0,0.0,0.0,0.0,0.0,0.0,0.0,0.0,4.329,4.329,4.329,4.329,0.0,0.0,0.0,0.0,4.329,0.0,0.0,4.4518,4.6172,4.72,4.7497,4.8695,4.9372,4.9533,4.9693,4.9693,4.9452,4.8646,4.8218,4.8007,4.7794,4.7581,4.7482,4.7964,4.8385,4.8811,4.967,5.0377,5.0946,5.1522,5.1925,5.2353,5.3045,5.3386,5.3665,5.439,5.4659,0.0,0.0,0.0,5.6188,5.6896,5.7327,5.7625,5.7625,5.7772,5.7881,5.7881,5.7881,5.8084,5.8829,5.9099,5.937,6.0114,6.14,6.2381,6.2381,6.2381,6.2381,6.2381,6.2381,6.2381,6.2381,6.2381,6.2381,6.2381,6.2381,6.2381,6.2381,6.2381,6.2302,6.1997,6.183,6.1588,6.1342,6.1169,6.1119,6.1119,6.1119,6.1119,6.1119,6.1119,6.1119,6.1119,6.1119,6.1119,6.1119,6.1119,6.1119,6.1119,6.1119,6.1119,6.1119,6.1119,6.1119,6.1119,6.1119,6.1119,6.1119,6.1119,6.1119,6.1077,0.0,0.0,0.0,0.0,0.0,0.0,0.0,0.0,0.0,0.0,0.0,4.329,4.329,4.329,0.0,0.0,0.0,0.0,4.329,4.3559,0.0,0.0,4.5465,4.6569,4.7629,4.8582,4.9363,4.9939,5.0285,5.0434,5.0324,4.9781,4.9097,4.8343,4.7964,4.7666,4.7452,4.7666,4.7964,4.8343,4.9056,4.971,5.0338,5.0755,5.128,5.179,5.2085,5.2401,5.2755,5.3519,5.3824,5.403,5.4721,0.0,0.0,0.0,5.6166,5.6787,5.7301,5.7514,5.7588,5.7698,5.7735,5.7873,5.8251,5.8693,5.9099,5.9438,6.0351,6.1231,6.1704,6.211,6.2381,6.2381,6.2381,6.2381,6.2381,6.2381,6.2381,6.2381,6.2381,6.2381,6.2381,6.2381,6.2302,0.0,6.1797,6.1588,6.1424,6.121,6.1119,6.1119,6.1119,6.1119,6.1119,6.1119,6.1119,6.1119,6.1119,6.1119,6.1119,6.1119,6.1119,6.1119,6.1119,6.1119,6.1119,6.1119,6.1119,6.1119,6.1119,6.1119,6.1119,6.1119,6.1119,6.1077,0.0,0.0,0.0,0.0,0.0,0.0,0.0,0.0,0.0,0.0,0.0,0.0,4.329,0.0,0.0,0.0,0.0,0.0,4.329,0.0,0.0,0.0,0.0,4.5883,4.7265,4.8349,4.9297,5.0006,5.0723,5.101,5.0972,5.0788,5.0058,4.8893,4.8385,4.8007,4.7709,4.7581,4.7666,4.7922,4.8438,4.9056,4.959,5.0058,5.0602,5.1167,5.1205,5.1536,5.2039,5.2602,5.2913,5.3195,5.3956,5.4192,0.0,0.0,0.0,5.5825,5.6783,5.7022,5.7092,5.7443,5.7514,5.7588,5.7772,5.8248,5.8653,5.869,5.9302,6.008,6.0858,6.1603,6.2178,6.2347,6.2381,6.2381,6.2381,6.2381,6.2381,6.2381,6.2381,6.2381,6.2381,6.2381,6.2341,0.0,6.1911,6.1709,6.1506,6.1293,6.1127,6.1119,6.1119,6.1119,6.1119,6.1119,6.1119,6.1119,6.1119,6.1119,6.1119,6.1119,6.1119,6.1119,6.1119,6.1119,6.1119,6.1119,6.1119,6.1119,6.1119,6.1119,6.1119,6.1119,6.1119,6.1035,0.0,0.0,0.0,0.0,0.0,0.0,0.0,0.0,0.0,0.0,0.0,0.0,4.329,4.329,4.329,4.329,0.0,0.0,0.0,0.0,0.0,0.0,0.0,0.0,4.5719,4.7808,4.912,4.9533,5.0843,5.1387,5.1199,5.1167,5.0672,4.9812,4.8934,4.8385,4.7964,4.7525,4.7409,4.7624,4.7922,4.8301,4.8728,4.9178,4.9741,5.0292,5.0486,5.0978,5.1569,5.1601,5.186,5.2284,5.3045,5.3353,5.3599,0.0,0.0,0.0,5.5977,5.6285,5.6452,5.7159,5.7327,5.7364,5.7588,5.7658,5.7729,5.7913,5.8558,5.9302,6.0047,6.0825,6.1603,6.2279,6.2381,6.2381,6.2381,6.2381,6.2381,6.2381,6.2381,6.2381,6.2381,6.2381,6.2381,0.0,6.215,6.1877,6.1709,6.1506,6.1293,6.1119,6.1119,6.1119,6.1119,6.1119,6.1119,6.1119,6.1119,6.1119,6.1119,6.1119,6.1119,6.1119,6.1119,6.1119,6.1119,6.1119,6.1119,6.1119,6.1119,6.1119,6.1119,6.1119,6.1119,6.1035,0.0,0.0,0.0,0.0,0.0,0.0,0.0,0.0,0.0,0.0,0.0,0.0,0.0,4.329,4.329,4.329,4.329,0.0,0.0,0.0,0.0,0.0,0.0,0.0,4.5949,4.7126,4.8387,4.9695,5.0431,5.0973,5.1387,5.1059,5.064,5.0058,4.9188,4.8521,4.7964,4.7525,4.7352,4.7439,4.7624,4.7922,4.826,4.8552,4.8975,4.939,4.9661,5.0136,5.0679,5.0794,5.1242,5.1786,5.2015,5.2335,5.2722,5.3563,5.3835,5.4074,5.4911,5.5443,5.5913,5.6296,5.6767,5.7176,5.7364,5.7402,5.7476,5.7662,5.7901,5.8511,5.984,6.0757,6.1535,6.2279,6.2381,6.2381,6.2381,6.2821,6.3125,6.3125,6.3531,6.3632,6.3159,6.3125,6.2922,0.0,0.0,6.1917,6.1709,6.1506,6.1334,6.1119,6.1119,6.1119,6.1119,6.1119,6.1119,6.1119,6.0919,6.0844,6.0835,6.0708,6.0666,6.0666,6.0666,6.0835,6.1119,6.1119,6.1119,6.1077,6.0919,6.0844,6.0835,6.0708,6.0666,6.0581,0.0,0.0,0.0,0.0,0.0,0.0,0.0,0.0,4.3529,4.3319,0.0,0.0,0.0,0.0,4.329,4.329,4.329,4.329,4.329,4.329,0.0,0.0,0.0,0.0,4.5417,4.6272,4.7452,4.9042,4.9858,5.0529,5.1199,5.0946,5.0493,4.986,4.9107,4.8521,4.7964,4.7525,4.7309,4.7309,4.7439,4.7581,4.7794,4.8007,4.8271,4.8615,4.8893,4.934,4.9789,5.0018,5.0525,5.1092,5.1205,5.1647,5.2221,5.2864,5.3069,5.3235,5.3964,5.4494,5.499,5.5638,5.6174,5.6649,5.7072,5.7214,5.7252,5.7476,5.7514,5.7921,5.9279,6.0232,6.1153,6.2245,6.2381,6.2482,6.2719,6.3193,6.3599,6.3869,6.4309,6.441,6.3937,6.3666,6.3294,0.0,0.0,0.0,6.1709,6.1588,6.1375,6.1119,6.1002,6.0961,6.0961,6.0877,6.0877,6.0835,6.0675,6.0591,6.0591,6.0463,6.0378,6.0378,6.0378,6.0581,6.0877,6.0877,6.0877,6.0835,6.0591,6.0463,6.043,6.0163,6.0033,5.9946,0.0,0.0,0.0,0.0,0.0,0.0,0.0,0.0,4.4107,4.3439,0.0,0.0,0.0,0.0,0.0,4.3319,4.329,4.329,4.329,4.329,0.0,0.0,0.0,0.0,4.4018,4.5287,4.6507,4.761,4.9079,5.0048,5.0589,5.0717,5.026,4.9291,4.8811,4.8385,4.7964,4.7525,4.7309,4.7309,4.7309,4.7309,4.7309,4.7495,4.7752,4.8007,4.8218,4.8563,4.8903,4.9178,4.9661,5.0221,5.0685,5.1397,5.2122,5.2302,5.2373,5.2539,0.0,0.0,0.0,5.5185,5.5582,5.5857,5.6782,5.6987,5.7063,5.7252,5.7289,5.7524,5.826,5.9151,6.0358,6.2071,6.2381,6.2651,6.3396,6.3531,6.3835,6.4546,6.4647,6.4647,6.4647,6.4005,6.3565,0.0,6.2854,6.2217,6.1709,6.1669,6.1465,6.1119,6.0835,6.0717,6.0717,6.0506,6.0378,6.0378,6.0378,6.0335,6.0335,6.0335,6.0335,6.0335,6.0335,6.0335,6.0335,6.0378,6.0378,6.0335,6.0044,5.9957,5.9914,5.9431,5.9241,5.9197,0.0,0.0,0.0,0.0,0.0,4.5813,4.5125,4.5035,4.4975,0.0,0.0,0.0,4.4766,4.4317,4.4007,4.4007,4.3559,4.329,4.329,4.329,4.329,4.329,4.3978,4.4448,4.4655,4.5957,4.7068,4.8028,4.8916,4.97,5.0292,5.0214,4.986,4.9259,4.8646,4.8133,4.7666,4.7439,4.7309,4.7309,4.7309,4.7309,4.7309,4.7352,4.7439,4.7525,4.7709,4.8007,4.8271,4.848,4.9015,4.9701,5.0531,5.1172,5.1721,5.205,5.2266,5.2407,5.2605,0.0,0.0,0.0,0.0,0.0,0.0,5.6796,5.6834,5.7025,5.7101,5.7372,5.8222,5.9036,5.9951,6.093,6.1812,6.2651,6.3396,6.3971,6.458,6.529,6.5865,6.6,6.5425,6.5189,0.0,0.0,6.3328,6.2757,6.1743,6.1417,6.121,6.1119,6.0835,6.0717,6.0717,6.0302,6.0087,6.0087,5.964,5.9375,5.9375,5.8985,5.8895,5.9075,5.8895,5.894,5.9152,5.9652,5.9772,5.9596,5.912,5.885,5.8637,5.8318,5.8087,5.7902,0.0,0.0,0.0,0.0,0.0,4.6501,4.5813,4.5723,4.5633,0.0,0.0,0.0,4.5304,4.4945,4.4736,4.4736,4.4377,4.4137,4.4137,4.4137,4.4137,4.4137,4.4648,4.495,4.5072,4.5919,4.6791,4.77,4.8427,4.9197,4.9939,4.9979,4.9821,4.9412,4.8728,4.8175,4.7752,4.7439,4.7309,4.7309,4.7309,4.7309,4.7309,4.7309,4.7309,4.7309,4.7409,4.7581,4.7752,4.7922,4.848,4.93,5.0143,5.0794,5.128,5.1721,5.205,5.2266,5.2266,5.26,5.3169,5.3864,0.0,0.0,5.6084,5.6481,5.6719,0.0,5.6872,5.7044,5.7592,5.8603,5.951,5.995,6.1199,6.2514,6.364,6.4221,6.4904,6.6034,6.6542,6.6643,6.6203,6.5865,6.5222,6.4072,6.3666,6.2959,6.1743,6.1334,6.1119,6.1119,6.0793,6.0506,6.0388,5.9827,5.9476,5.9222,5.876,5.8441,5.8303,5.8119,5.8119,5.8257,5.8211,5.8165,5.8197,5.8487,5.8669,5.8624,5.8165,5.7887,5.77,5.7291,5.7053,5.691,0.0,0.0,4.7309,4.7309,4.7309,4.71,4.6531,4.6399,4.6202,0.0,4.5514,4.5514,4.5514,4.5454,4.5394,4.5394,4.5334,4.5304,4.5304,4.5304,4.5304,4.5304,4.5364,4.5394,4.5394,4.5691,4.623,4.7084,4.7914,4.8778,4.9533,4.9939,4.9939,4.9573,4.8893,4.8385,4.7964,4.7525,4.7309,4.7309,4.7309,4.7309,4.7309,4.7309,4.7309,4.7309,4.7309,4.7309,4.7352,4.7538,4.8103,4.8934,4.955,5.0221,5.08,5.128,5.1721,5.2013,5.2119,5.223,5.2539,5.3235,5.3964,0.0,5.5416,5.6183,5.668,0.0,5.668,5.668,5.668,5.7997,5.9079,5.9145,6.0505,6.2111,6.3874,6.4218,6.4873,6.6458,6.6736,6.6812,6.6812,6.6203,6.5459,6.4647,6.3795,6.2851,6.1743,6.1293,6.1077,6.1077,6.0623,6.0249,5.9957,5.9286,5.8701,5.8165,5.7808,5.7527,5.7291,5.748,5.7621,5.7621,5.7887,5.7746,5.7353,5.7036,5.7227,5.7574,5.7132,5.694,5.6892,5.6409,5.6213,5.6164,0.0,4.7309,4.7309,4.7309,4.7309,4.7249,4.713,4.71,4.707,4.692,4.692,4.692,4.692,4.6441,4.6112,4.6112,4.5603,4.5304,4.5304,4.5304,4.5304,4.5304,4.5843,4.6112,4.6112,4.6834,4.7292,4.7485,4.8171,4.8759,4.9118,4.9533,4.9582,4.9372,4.8811,4.8385,4.7964,4.7525,4.7309,4.7309,4.7309,4.7309,4.7309,4.7309,4.7309,4.7309,4.7309,4.7309,4.7352,4.7538,4.788,4.8301,4.8893,4.955,5.0182,5.0761,5.128,5.1684,5.2013,5.2155,5.2359,5.3198,5.3964,0.0,5.5416,5.6183,5.668,0.0,5.668,5.668,5.668,5.7448,5.8283,5.888,5.9709,6.1009,6.2855,6.3799,6.463,6.5581,6.6314,6.6812,6.6812,6.6677,6.6034,6.4715,6.304,6.1958,6.1709,6.1094,6.076,6.076,6.041,6.0022,5.976,5.9062,5.8427,5.7965,5.7227,5.6796,5.6506,5.639,5.6409,5.6603,5.6488,5.6488,5.6506,5.6047,5.6195,5.6554,5.6293,5.6047,5.588,5.578,5.5631,5.5431,4.7309,4.7309,4.7309,4.7309,4.7309,4.7309,4.7309,4.7309,4.7309,4.7309,4.7578,4.7788,4.7788,4.7489,4.7309,4.7309,4.6681,4.6292,4.6292,4.6292,4.6292,4.6292,4.6621,4.68,4.68,4.7216,4.7482,4.7482,4.8133,4.8604,4.8934,4.9412,4.9613,4.9573,4.8893,4.8438,4.8133,4.7568,4.7309,4.7309,4.7309,4.7309,4.7309,4.7309,4.7309,4.7309,4.7309,4.7309,4.7309,4.7439,4.7581,4.788,4.8343,4.8811,4.9349,4.9868,5.0448,5.094,5.1322,5.1614,5.1929,5.2478,5.3478,0.0,0.0,5.5809,5.668,5.668,5.668,5.668,5.668,5.7276,5.7906,5.827,5.9264,6.034,6.1283,6.2557,6.3735,6.459,6.5119,6.5396,6.5396,6.5488,6.5091,6.3978,6.2508,6.1588,6.1417,6.0969,6.0591,6.0345,5.9946,5.9508,5.9152,5.8257,5.7606,5.7084,5.6488,5.5998,5.575,5.578,5.588,5.5948,5.5979,5.5979,5.5948,5.5731,5.5681,5.575,5.5631,5.5531,5.5381,5.5381,5.533,5.5179,4.7755,4.7712,4.7712,4.7668,4.7698,4.7698,4.7698,4.7698,4.7698,4.7698,4.8147,4.8476,4.8476,4.8476,4.8476,4.8476,4.7997,4.7638,4.7489,4.7489,4.7429,4.7309,4.7309,4.7309,4.7309,4.7309,4.7309,4.7309,4.788,4.8355,4.8738,4.9138,4.9421,4.9541,4.8811,4.8385,4.8133,4.7568,4.7309,4.7309,4.7309,4.7309,4.7309,4.7309,4.7309,4.7309,4.7309,4.7309,4.7339,4.7459,4.7619,4.7792,4.817,4.8541,4.8963,4.9419,4.999,5.0478,5.0877,5.1365,5.1739,5.1965,5.3138,5.4278,0.0,0.0,0.0,5.6641,5.668,0.0,0.0,0.0,0.0,0.0,0.0,0.0,0.0,6.1086,0.0,6.3568,6.3886,6.4028,6.4028,6.4027,6.3773,6.3168,6.2144,6.1458,6.1119,6.0675,6.0216,5.9827,5.9298,5.876,5.8335,5.7464,5.6748,5.6213,5.58,5.5431,5.5179,5.5431,5.5531,5.5531,5.5731,5.5731,5.5531,5.5531,5.5381,5.5179,5.5179,5.5179,5.5179,5.5179,5.5179,5.5179,4.9505,4.9327,4.9283,4.909,4.909,4.909,4.909,4.909,4.909,4.909,4.9149,4.9209,4.9209,4.9209,4.9209,4.9209,4.912,4.8805,4.8207,4.8177,4.7908,4.7339,4.7309,4.7309,4.7309,4.7309,4.7309,4.7309,4.7538,4.7837,4.8133,4.8343,4.8469,4.8469,4.8175,4.7922,4.7666,4.7439,4.7309,4.7309,4.7309,4.7309,4.7309,4.7309,4.7309,4.7309,4.7309,4.7309,4.7399,0.0,4.8221,4.8355,0.0,4.9549,4.9857,5.0303,0.0,0.0,0.0,0.0,0.0,0.0,5.3739,5.4639,5.4639,0.0,5.6408,5.6408,0.0,0.0,0.0,0.0,0.0,0.0,0.0,0.0,5.8933,5.9768,6.0878,6.2449,6.3467,6.4028,6.4028,6.3391,6.2922,6.2855,6.1816,6.1161,6.1119,6.0076,5.9298,5.903,5.8318,5.7746,5.7275,5.694,5.6457,5.5918,5.57,5.5431,5.5179,5.5229,5.5229,5.5229,5.528,5.528,5.5229,5.5229,5.5229,5.5179,5.5179,5.5179,5.5179,5.5179,5.5179,5.5179,5.0759,5.0332,5.0157,4.9893,4.988,4.9791,4.9524,4.9389,4.9299,4.9299,4.9583,4.9823,4.9823,4.9823,4.9823,4.9823,4.9494,4.9179,4.891,4.891,4.8566,4.7908,4.7878,4.7698,4.7309,4.7309,4.7309,4.7309,4.7495,4.7752,4.8007,4.8091,4.8175,4.8301,4.7922,4.7709,4.7581,4.7396,4.7309,4.7309,4.7309,4.7309,4.7309,4.7309,4.7309,4.7309,4.7309,4.7309,4.7399,0.0,4.8297,0.0,0.0,0.0,0.0,4.9938,0.0,0.0,0.0,0.0,0.0,0.0,0.0,0.0,5.4059,0.0,5.6013,0.0,0.0,0.0,0.0,0.0,0.0,0.0,5.7272,0.0,0.0,0.0,5.9801,0.0,0.0,0.0,6.2515,0.0,0.0,0.0,6.1251,6.0633,6.0076,5.9331,5.8624,5.8119,5.7511,5.6988,5.6651,5.6244,5.5948,5.57,5.5481,5.528,5.5179,5.5179,5.5179,5.5179,5.5179,5.5179,5.5179,5.5179,5.5179,5.5179,5.5179,5.5179,5.5179,5.5179,5.5179,5.5179,5.2629,5.1891,5.1407,5.1102,5.0971,5.075,5.0246,4.9975,4.9793,4.9793,5.0212,5.0465,5.0465,5.0465,5.0465,5.0465,5.0062,4.9733,4.9553,4.9523,4.9254,4.8566,4.8566,4.8237,4.7578,4.7578,4.7489,4.7309,4.7439,4.7624,4.7794,4.7794,4.788,4.8007,4.7666,4.7495,4.7495,4.7352,4.7309,4.7309,4.7309,4.7309,4.7309,4.7309,4.7309,4.7309,4.7309,4.7309,4.7429,4.8267,4.8566,0.0,4.9523,0.0,4.9838,0.0,0.0,0.0,5.0795,0.0,0.0,0.0,0.0,0.0,0.0,0.0,0.0,0.0,0.0,0.0,0.0,0.0,0.0,0.0,0.0,5.7,0.0,5.7818,0.0,0.0,0.0,0.0,0.0,0.0,0.0,0.0,0.0,5.9957,5.9152,5.8532,5.7887,5.718,5.6651,5.6262,5.5967,5.5651,5.5481,5.5481,5.528,5.5179,5.5179,5.5179,5.5179,5.5179,5.5179,5.5179,5.5179,5.5179,5.5179,5.5179,5.5179,5.5179,5.5179,5.5179,5.5179,5.5179,5.5555,5.4495,5.3459,5.2976,5.274,5.2381,5.1651,5.1279,5.1169,5.1169,5.1169,5.1199,5.1199,5.1199,5.1199,5.1199,5.1169,5.0853,5.0196,5.0166,4.9912,4.9299,4.9269,4.897,4.8267,4.8267,4.7938,4.7309,4.7309,4.7309,4.7309,4.7309,4.7352,4.7352,4.7309,4.7309,4.7309,4.7309,4.7309,4.7309,4.7309,4.7309,4.7309,0.0,4.7309,4.7309,4.7309,0.0,0.0,4.8805,4.9269,0.0,0.0,0.0,0.0,0.0,0.0,0.0,0.0,0.0,0.0,5.229,0.0,0.0,0.0,0.0,5.421,0.0,0.0,0.0,0.0,0.0,5.5409,5.5409,0.0,0.0,0.0,0.0,0.0,0.0,0.0,0.0,0.0,5.9663,5.976,0.0,5.9608,0.0,5.8655,5.77,5.6892,5.636,5.5899,5.5531,5.5229,5.5229,5.5179,5.5179,5.5179,5.5179,5.5179,5.5179,5.5179,5.5179,5.5179,5.5179,5.5179,5.5179,5.5179,5.5179,5.5179,5.5179,5.5179,5.5179,5.5179,5.5179,5.6132,5.5693,5.5049,5.4264,5.3954,5.3434,5.2261,5.1711,5.1386,5.1229,5.1229,5.1379,5.1828,5.1858,5.1858,5.1858,5.1858,5.1588,5.093,5.0853,5.0601,4.9942,4.9912,4.9613,4.9,4.8506,4.8177,4.7967,4.7519,4.7309,4.7309,4.7309,4.7309,4.7309,4.7309,4.7309,4.7309,4.7309,4.7309,4.7309,4.7309,4.7309,4.7309,0.0,4.7309,4.7309,4.7309,4.7309,0.0,4.888,4.9299,4.9539,5.081,5.1229,5.1229,5.1229,5.1276,0.0,0.0,0.0,5.1618,5.1803,0.0,0.0,0.0,0.0,0.0,0.0,0.0,0.0,0.0,0.0,5.4051,5.4253,5.4433,0.0,0.0,0.0,0.0,0.0,0.0,0.0,0.0,0.0,0.0,0.0,5.8236,0.0,0.0,5.6796,5.6164,5.5849,5.5531,5.528,5.5179,5.476,5.4551,5.4551,5.4072,5.3862,5.3862,5.4341,5.4551,5.4551,5.4999,5.5179,5.5179,5.5179,5.5179,5.5179,5.5179,5.5179,5.5179,5.5179,5.5179,5.5229,5.648,5.6402,5.6013,5.509,5.4507,5.3813,5.2681,5.2079,5.1709,5.17,5.1605,5.1828,5.2486,5.2546,5.2546,5.2546,5.2546,5.2276,5.1618,5.1558,5.1289,5.0554,5.0554,5.0272,4.9613,4.9194,4.8865,4.867,4.7967,4.7668,4.7638,4.7429,4.7309,4.7309,4.7309,4.7309,4.7309,4.7309,4.7309,4.7309,0.0,4.7309,0.0,0.0,4.7309,4.7339,0.0,4.7668,4.7848,4.9164,4.9613,4.9793,5.087,5.1229,5.1229,5.1229,5.1229,5.1229,5.1229,5.1229,0.0,5.1386,5.1572,0.0,5.1987,0.0,5.2577,0.0,0.0,0.0,0.0,0.0,0.0,5.3302,5.349,0.0,0.0,5.4094,0.0,0.0,0.0,0.0,0.0,0.0,5.7237,5.7349,5.6789,0.0,0.0,0.0,5.5005,5.4759,5.456,5.4491,5.4491,5.4042,5.3832,5.3832,5.3384,5.3174,5.3204,5.3653,5.3982,5.4221,5.467,5.497,5.5179,5.5179,5.5179,5.5179,5.5179,5.5179,5.5179,5.5179,5.5229,5.5381,5.6641,5.668,5.6408,5.5572,5.4497,5.3596,5.3113,5.2442,5.2122,5.2584,5.239,5.2486,5.3174,5.3234,5.3234,5.3234,5.3234,5.2965,5.2276,5.2247,5.1947,5.1289,5.1259,5.096,5.0255,5.0196,4.9942,4.9359,4.87,4.8327,4.8267,4.7638,4.7339,4.7309,4.7309,4.7309,4.7309,4.7309,4.7309,4.7309,4.7309,4.7309,4.7309,4.7309,4.7339,4.7429,4.8057,4.8297,4.8536,4.9747,5.0196,5.0315,5.102,5.1229,5.1229,5.1229,5.1229,5.1229,5.1229,5.1229,5.1229,5.1229,0.0,0.0,0.0,0.0,5.1711,0.0,0.0,0.0,0.0,0.0,0.0,0.0,0.0,0.0,0.0,0.0,0.0,0.0,0.0,0.0,0.0,5.5826,5.5652,5.5687,5.5283,5.4715,0.0,0.0,5.3447,5.3223,5.3174,5.3174,5.3174,5.3144,5.3144,5.3144,5.3084,5.3084,5.3084,5.3114,5.3503,5.4162,5.4192,5.4581,5.5179,5.5179,5.5179,5.5179,5.5179,5.5179,5.5179,5.5179,5.5381,5.5631,5.6641,5.6564,5.633,5.6006,5.5278,5.4497,5.3825,5.3427,5.3055,5.2866,5.2893,5.3204,5.3862,5.3952,5.3952,5.3952,5.3952,5.3653,5.2965,5.2935,5.2636,5.1977,5.1947,5.1648,5.0943,5.0435,5.0106,5.0002,4.9344,4.882,4.8297,4.8117,4.7788,4.7309,4.7309,4.7309,4.7309,4.7309,4.7309,4.7309,4.7309,4.7309,4.7309,0.0,4.7608,4.8057,4.8237,4.8596,4.9134,4.9972,5.0196,5.0315,5.102,5.1229,5.1229,5.1229,5.1229,5.1229,5.1229,5.1229,5.1229,5.1229,5.1229,5.1229,0.0,0.0,0.0,0.0,0.0,0.0,0.0,0.0,0.0,0.0,0.0,0.0,0.0,0.0,0.0,5.2547,0.0,0.0,0.0,5.3946,5.3952,5.4414,5.3837,0.0,0.0,0.0,0.0,5.3174,5.3174,5.3174,5.3174,5.2695,5.2456,5.2456,5.1947,5.1708,5.1738,5.2217,5.2815,5.3473,5.3982,5.4581,5.5179,5.5179,5.5179,5.5179,5.5179,5.5179,5.5179,5.5179,5.5381,5.5631,5.7601,5.7562,5.7437,5.7237,5.6678,5.5918,5.4675,5.4331,5.4114,5.381,5.3676,5.3892,5.4551,5.464,5.464,5.464,5.464,5.4341,5.3683,5.3623,5.3324,5.2665,5.2636,5.2306,5.1648,5.1289,0.0,5.0614,5.0002,4.9494,4.9134,4.8566,4.8087,4.7728,4.7429,4.7309,4.7309,4.7309,4.7489,4.7728,4.7728,4.7908,0.0,4.8147,4.8566,4.9134,4.9134,4.9374,4.9793,5.0405,5.0614,5.0674,5.1109,5.1229,5.1229,5.1229,5.1229,5.1229,5.1229,5.1229,5.1229,5.1229,5.1229,5.1229,5.1229,5.1229,5.1229,0.0,0.0,5.1229,0.0,0.0,0.0,0.0,0.0,0.0,0.0,0.0,0.0,0.0,5.1803,0.0,0.0,5.2726,5.2821,5.3085,5.2657,0.0,0.0,0.0,0.0,5.2336,5.2336,5.2336,5.2336,5.1947,5.1768,5.1768,5.1379,5.1229,5.1229,5.1588,5.2276,5.3204,5.3593,5.4311,5.5179,5.5179,5.5179,5.5179,5.5179,5.528,5.5381,5.5381,5.5531,5.583,5.8859,5.8859,5.8779,5.8535,5.8189,5.7387,5.5664,5.5295,5.5131,5.4952,5.4638,5.467,5.5269,5.5388,5.5418,5.5329,5.5329,5.5029,5.4371,5.4341,5.4042,5.3354,5.3324,5.2995,5.2336,5.2247,5.1917,0.0,5.0644,5.0285,5.0166,4.9075,4.8446,4.8267,4.7698,4.7429,4.7429,4.7429,4.7818,4.8416,4.8416,4.879,4.9299,4.9299,4.9673,5.0196,5.0196,5.0255,5.0405,5.102,5.1229,5.1229,5.1229,5.1229,5.1229,5.1229,5.1229,5.1229,5.1229,5.1229,5.1229,5.1229,5.1229,5.1229,5.1229,5.1229,5.1229,5.1229,5.1229,5.1229,0.0,0.0,0.0,0.0,0.0,0.0,0.0,0.0,0.0,0.0,0.0,0.0,0.0,0.0,0.0,0.0,0.0,0.0,0.0,0.0,0.0,5.1229,5.1229,5.1229,5.1229,0.0,5.1229,5.1229,5.1229,5.1229,5.1229,5.1229,5.1947,5.3174,5.3174,5.3952,5.5179,5.5179,5.5179,5.5179,5.5179,5.533,5.5581,5.5631,5.583,5.6077,5.8859,5.8779,5.8535,5.8124,5.8075,5.7897,5.7104,5.6373,5.5608,5.4983,5.5471,5.5867,5.5987,5.6466,5.6555,5.6047,5.5987,0.0,0.0,0.0,0.0,5.4072,5.4012,5.3713,5.3025,5.2486,5.2127,0.0,0.0,5.0734,5.0196,4.9956,4.9314,4.8267,4.8177,4.8117,4.8117,4.8117,0.0,4.9149,4.9149,4.9209,4.9299,4.9299,4.9673,5.0196,5.0196,5.0554,5.105,5.1169,5.1229,5.1229,5.1229,5.1229,5.1229,5.1229,5.1229,5.1229,5.1229,5.1229,5.1229,5.1229,5.1229,5.1229,5.1229,5.1229,5.1229,5.1229,5.1229,5.1229,5.1229,0.0,0.0,0.0,0.0,0.0,0.0,0.0,0.0,0.0,0.0,5.1229,0.0,0.0,0.0,0.0,0.0,0.0,0.0,0.0,0.0,0.0,5.1229,0.0,0.0,0.0,5.1229,5.1229,5.1229,5.1229,5.1229,5.1229,5.1947,5.3174,5.3174,5.3952,5.5179,5.5179,5.5179,5.5179,5.5179,5.533,5.5631,5.583,5.6077,5.6323,5.982,5.9539,5.9291,5.9177,5.8883,5.8557,5.8142,5.742,5.6793,5.6295,5.6513,5.6645,5.6645,5.6915,5.6974,5.6675,5.6645,5.6376,5.5748,5.5688,5.5418,5.476,5.473,5.4401,5.3713,5.3054,5.2546,5.2187,0.0,0.0,5.0704,5.0345,4.9867,4.9284,4.8955,4.885,0.0,0.0,0.0,4.9763,4.9763,4.9972,5.0272,5.0272,5.0481,5.0704,5.0704,5.096,5.1229,5.1229,5.1229,5.1229,5.1229,5.1229,5.1229,5.1229,5.1229,5.1229,5.1229,5.1229,5.1229,5.1229,5.1229,5.1229,5.1229,5.1229,5.1229,5.1229,5.1229,5.1229,5.1229,5.1229,0.0,0.0,0.0,0.0,0.0,0.0,5.1229,0.0,0.0,0.0,0.0,0.0,0.0,0.0,0.0,0.0,0.0,0.0,0.0,0.0,0.0,0.0,0.0,0.0,0.0,5.1229,5.1229,5.1229,5.1229,5.1558,5.2247,5.3204,5.3563,5.4281,5.5179,5.5179,5.528,5.5381,5.5381,5.5631,5.6028,5.6176,5.6372,5.6616,6.1008,6.0587,6.0223,6.0262,5.9663,5.9075,5.8773,5.8369,5.7846,5.7467,5.7348,5.7304,5.7304,5.7423,5.7483,5.7334,5.7304,5.7034,5.6406,5.6308,5.5927,5.5418,5.5269,5.494,5.4431,5.3743,5.3084,0.0,0.0,0.0,0.0,0.0,0.0,0.0,0.0,0.0,0.0,0.0,4.9853,5.0405,5.0405,5.0704,5.1229,5.1229,5.1229,5.1229,5.1229,5.1229,5.1229,5.1229,5.1229,5.1229,5.1229,5.1229,5.1229,5.1229,5.1229,5.1229,5.1229,5.1229,5.1229,5.1229,5.1229,5.1229,5.1229,5.1229,5.1229,5.1229,5.1229,5.1229,5.1229,5.1229,0.0,0.0,0.0,0.0,0.0,0.0,5.1229,0.0,0.0,0.0,5.1229,0.0,0.0,0.0,0.0,0.0,5.1229,5.1229,5.1229,0.0,0.0,5.1229,5.1229,0.0,5.1229,5.1229,5.1229,5.1229,5.1229,5.1887,5.2546,5.3204,5.3922,5.463,5.528,5.528,5.5431,5.5681,5.5681,5.5979,5.6421,5.6421,5.6567,5.681,6.1955,6.1413,6.0767,6.0313,5.9593,5.9054,5.8897,5.8654,5.8129,5.7236,5.7633,5.8022,5.8022,5.856,5.868,5.8082,5.8022,5.7723,5.7064,5.6466,5.6188,5.6077,5.5508,5.5149,5.5089,5.4461,5.3773,0.0,0.0,5.1798,5.1229,5.1169,0.0,0.0,0.0,0.0,0.0,5.0106,5.0495,5.1139,5.1139,5.1122,5.1229,5.1229,5.1229,5.1229,5.1229,5.1229,5.1229,5.1229,5.1229,5.1229,5.1229,5.1229,5.1229,5.1229,5.1229,5.1229,5.1229,5.1229,5.1229,5.1229,5.1229,5.1229,5.1229,5.1229,5.1229,5.1229,5.1229,5.1229,5.1229,5.1229,5.1229,0.0,0.0,0.0,0.0,0.0,5.1229,5.1229,0.0,0.0,0.0,5.1229,0.0,0.0,5.1229,0.0,5.1229,5.1229,5.1229,5.1229,0.0,5.1229,5.1229,5.1229,5.1229,5.1229,5.1229,5.1229,5.1229,5.1887,5.2546,5.3204,5.3922,5.473,5.5581,5.5581,5.5731,5.5979,5.5979,5.6127,5.6421,5.6421,5.6567,5.681,6.0974,6.0503,6.0086,5.9955,5.9367,0.0,0.0,5.9362,5.9177,5.8381,5.853,5.871,5.871,5.8949,5.9009,5.874,5.871,5.8441,5.7752,5.7483,5.7004,5.6248,5.5927,5.5598,5.5209,5.4551,5.4072,0.0,0.0,5.2067,5.1798,5.1409,0.0,0.0,0.0,5.0571,5.0794,5.0794,5.0913,5.1229,5.1229,5.1229,5.1229,5.1229,5.1229,5.1229,5.1229,5.1229,5.1229,5.1229,5.1229,5.1229,5.1229,5.1229,5.1229,5.1229,5.1229,5.1229,5.1229,5.1229,5.1229,5.1229,5.1229,5.1229,5.1229,5.1229,5.1229,5.1229,5.1229,5.1229,5.1229,5.1229,5.1229,0.0,0.0,0.0,0.0,0.0,0.0,5.1229,0.0,5.1229,0.0,0.0,0.0,0.0,0.0,0.0,5.1229,5.1229,0.0,5.1229,0.0,5.1229,5.1229,5.1229,5.1229,5.1229,5.1229,5.1229,5.1259,5.2306,5.3451,5.4649,5.492,5.534,5.583,5.583,5.5979,5.6225,5.6225,5.6421,5.6664,5.6664,5.6713,5.681,6.0509,0.0,5.9815,0.0,5.9688,5.9508,5.9904,6.0196,6.0206,5.9757,5.9697,5.9548,5.9159,5.9099,5.9099,5.9099,5.9099,5.8919,5.8441,5.8231,5.7723,5.6795,5.6376,0.0,5.5478,5.485,5.4401,5.4221,5.3264,5.2606,5.2187,5.1528,0.0,0.0,5.1229,5.1229,5.1229,5.1229,5.1229,5.1229,5.1229,5.1229,5.1229,5.1229,5.1229,5.1229,5.1229,5.1229,5.1229,5.1229,5.1229,5.1229,5.1229,5.1229,5.1229,5.1229,5.1229,5.1229,5.1229,5.1229,5.1229,5.1229,5.1229,5.1229,5.1229,5.1229,5.1229,5.1229,5.1229,5.1229,5.1229,5.1229,5.1229,5.1229,0.0,0.0,0.0,5.1229,0.0,5.1229,5.1229,5.1229,5.1229,5.1229,0.0,0.0,0.0,0.0,0.0,0.0,0.0,0.0,0.0,0.0,0.0,5.1416,5.1416,5.1416,5.1416,5.1506,5.1747,5.3116,5.4447,5.5731,5.5731,5.588,5.6127,5.6127,5.6274,5.6519,5.6519,5.6616,5.681,5.681,5.681,5.681,6.1195,6.0763,6.0508,6.0859,6.0657,6.0626,6.104,6.1104,6.1104,6.1104,6.1104,6.0595,5.9249,5.9099,5.9099,5.9099,5.9099,5.9099,5.9099,5.8471,5.8112,0.0,0.0,5.6218,5.6218,5.5508,5.485,5.4221,0.0,0.0,5.2187,0.0,5.1229,5.1229,5.1229,5.1229,5.1229,5.1229,5.1229,5.1229,5.1229,5.1229,5.1229,5.1229,5.1229,5.1229,5.1229,5.1229,5.1229,5.1229,5.1229,5.1229,5.1229,5.1229,5.1229,5.1229,5.1229,5.1229,5.1229,5.1229,5.1229,5.1229,5.1229,5.1229,5.1229,5.1229,5.1229,5.1229,5.1229,5.1229,5.1229,5.1229,5.1229,5.1229,0.0,0.0,0.0,5.1229,0.0,5.1229,5.1229,5.1229,5.1229,5.1229,0.0,0.0,0.0,0.0,0.0,0.0,0.0,5.2002,5.2002,0.0,5.2002,5.2002,5.2002,5.2002,5.2002,5.2336,5.3034,5.437,5.5341,5.5979,5.5979,5.6127,5.6421,5.6421,5.6567,5.681,5.681,5.681,5.681,5.681,5.681,5.681,6.0692,6.057,6.0566,6.0987,6.0941,6.0976,6.1074,6.1493,6.1613,6.1164,6.1493,6.1463,6.0565,6.0057,5.9787,0.0,5.9368,5.9099,0.0,5.8919,5.859,5.8141,5.7723,5.7094,5.6248,5.5957,5.5538,5.488,0.0,0.0,0.0,5.2665,5.2546,5.2546,5.2546,5.2306,5.1887,5.1887,5.1618,5.1229,5.1229,5.1229,5.1229,5.1229,5.1229,5.1229,5.1229,5.1229,5.1229,5.1229,5.1229,5.1229,5.1229,5.1229,5.1229,5.1229,5.1229,5.1229,5.1229,5.1229,5.1229,5.1229,5.1229,5.1229,5.1229,5.1229,5.1229,5.1229,5.1229,5.1229,5.1229,5.1229,5.1229,5.1229,5.1229,0.0,5.1229,0.0,5.1229,5.1229,5.1369,5.1479,0.0,5.1649,0.0,0.0,0.0,0.0,0.0,0.0,0.0,0.0,5.2002,0.0,5.2002,5.2002,5.2002,5.2002,5.2457,5.3247,5.437,5.4795,5.5439,5.6274,5.6274,5.6421,5.6664,5.6664,5.6713,5.681,5.681,5.681,5.681,5.681,5.681,5.681,6.0601,6.0751,6.0907,6.1373,6.1493,6.1553,6.1822,6.2211,6.2331,6.1912,6.2211,6.2301,6.1912,6.1253,0.0,6.0505,5.9847,5.9488,5.9488,5.9249,5.8919,5.8501,5.8261,5.7752,5.6915,5.6406,0.0,5.5568,5.464,5.3982,5.3563,5.3294,5.3174,5.3174,5.3174,5.2965,5.2576,5.2576,5.2336,5.1947,5.1947,5.1947,5.1947,5.1947,5.1947,5.1947,5.1947,5.1947,5.1947,5.1947,5.1947,5.1947,5.1947,5.1947,5.1858,5.1379,5.1229,5.1229,5.1229,5.1229,5.1229,5.1323,5.1339,5.1339,5.1339,5.1339,5.1323,5.1229,5.1276,5.1339,5.1339,5.1416,5.1509,5.1509,5.1509,5.1463,5.1369,0.0,5.1339,0.0,0.0,0.0,0.0,5.188,5.2002,0.0,0.0,0.0,0.0,0.0,0.0,5.2276,5.2276,0.0,5.2276,5.2276,5.2398,5.2643,5.3558,5.4443,5.5267,5.556,5.6023,5.6567,5.6567,5.6664,5.681,5.681,5.681,5.681,5.681,5.681,5.681,5.681,5.681,5.681,6.1044,6.1194,6.1373,0.0,6.2181,0.0,6.2989,6.3079,6.3079,6.3079,6.3079,6.3079,6.3079,6.254,6.1912,6.1313,0.0,0.0,0.0,5.9518,5.9159,5.9099,5.853,5.8171,5.8112,5.6944,5.6308,5.6218,5.491,5.4281,5.4251,5.3623,5.3324,5.3324,5.3324,5.3294,5.3264,5.3264,5.3234,5.3174,5.3174,5.3174,5.3174,5.3174,5.3174,5.3174,5.3174,5.3174,5.3174,5.3174,5.3174,5.3174,5.3174,5.3174,5.2935,5.1648,5.1289,5.1259,5.1229,5.1229,5.1323,5.1572,5.1618,5.1618,5.1618,5.1618,5.1556,5.1323,5.1433,5.1618,5.1618,5.1834,5.2002,5.2002,5.2002,5.188,5.1695,0.0,0.0,0.0,0.0,0.0,0.0,5.2048,5.2048,0.0,0.0,0.0,0.0,0.0,5.2442,5.2698,5.2698,5.2698,5.2698,5.276,5.316,5.3822,5.5099,5.5715,5.5776,5.6502,5.681,5.681,5.681,5.681,5.681,5.681,5.681,5.681,5.681,5.681,5.681,5.681,5.681,5.681,0.0,0.0,6.2061,6.272,6.2839,6.2899,6.3049,6.3079,6.3079,6.3079,6.3079,6.3079,6.3079,6.2929,6.278,6.263,6.1553,6.0655,6.0116,5.9937,5.9638,5.9129,5.8949,5.865,5.8141,5.7812,5.7184,5.6218,5.5359,5.497,5.497,5.479,5.473,5.473,5.473,5.4431,5.3952,5.3952,5.3653,5.3174,5.3174,5.3174,5.3174,5.3174,5.3174,5.3174,5.3174,5.3174,5.3174,5.3174,5.3174,5.3174,5.3174,5.3174,5.3025,5.2217,5.1977,5.1905,5.1583,5.1509,5.1602,5.1834,5.188,5.188,5.188,5.188,5.191,5.1787,5.1834,5.188,5.188,5.1956,5.2002,5.2002,5.2002,5.2002,5.188,5.188,0.0,0.0,5.2033,5.217,5.2215,5.2427,5.2518,0.0,0.0,0.0,0.0,5.2608,5.2608,5.2698,5.2698,5.2698,5.2698,5.3221,5.4083,5.5222,5.553,5.5961,5.6563,5.6717,5.681,5.681,5.681,5.681,5.681,5.681,5.681,5.681,5.681,5.681,5.681,5.681,5.681,5.681,6.3264,6.3248,6.3199,6.3478,6.3538,6.3481,6.3309,6.3309,6.3252,6.3137,6.3079,6.3079,6.3079,6.3079,6.3079,6.3079,6.2151,6.1403,6.1044,6.0416,5.9937,5.9578,5.9249,5.8949,5.859,5.8291,5.7483,5.6218,5.5807,5.5478,5.5179,5.5179,5.5179,5.5179,5.5179,5.4999,5.467,5.467,5.4431,5.4102,5.4102,5.4102,5.4102,5.4102,5.4102,5.4102,5.4102,5.4102,5.4102,5.4102,5.4102,5.4102,5.4102,5.4102,5.3982,5.3294,5.3002,5.2768,5.255,5.2389,5.2197,5.2124,5.22,5.2291,5.2155,5.2155,5.2109,5.2048,5.2063,5.2155,5.2155,5.2246,5.2322,5.2322,5.2322,5.2246,5.2155,5.2155,0.0,5.2155,5.2215,5.2352,5.2442,5.2608,5.2698,5.2698,5.2698,0.0,5.2698,5.2698,5.2698,5.2698,5.2698,5.2852,5.316,5.4145,5.4976,5.5684,5.6023,5.644,5.681,5.681,5.681,5.681,5.681,5.681,5.681,5.681,5.681,5.681,5.681,5.681,5.681,5.681,5.681,5.681,6.4592,6.4604,6.4493,6.4244,6.4132,6.3963,6.3622,6.3538,6.3424,6.3137,6.3079,6.3079,6.3079,6.3079,6.3079,6.3079,6.257,6.2211,6.2121,6.0924,6.0206,6.0086,5.9458,5.9099,5.9099,5.8471,5.7573,5.6466,5.6308,5.5897,5.5329,5.5239,5.5179,5.5179,5.5179,5.5179,5.5179,5.5179,5.5179,5.5179,5.5179,5.5179,5.5179,5.5179,5.5179,5.5179,5.5179,5.5179,5.5179,5.5179,5.5179,5.5179,5.5179,5.5179,5.5089,5.4521,5.4149,5.3863,5.37,5.3486,5.319,5.2765,5.2733,5.2807,5.255,5.2413,5.2306,5.2139,5.2246,5.2352,5.2352,5.2563,5.2698,5.2698,5.2698,5.2608,5.2397,0.0,5.2352,5.2352,5.2352,5.2442,5.2653,5.2698,5.2698,5.2698,5.2698,5.2698,5.2698,5.2698,5.276,5.2852,5.2852,5.3221,5.4022,5.513,5.5745,5.5869,5.6532,5.681,5.681,5.681,5.681,5.681,5.681,5.681,5.681,5.681,5.681,5.681,5.681,5.681,5.681,5.681,5.681,5.681,6.5799,6.5584,6.5313,6.507,6.4795,6.4463,6.3932,6.3622,6.3424,6.3137,6.3079,6.3079,6.3079,6.3079,6.3079,6.3079,6.2989,6.269,6.2121,6.1373,6.0685,6.0116,5.9458,5.9099,5.9099,5.8471,5.8022,5.7812,5.6705,5.6188,5.6017,5.5448,5.5179,5.5179,5.5179,5.5179,5.5179,5.5179,5.5179,5.5179,5.5179,5.5179,5.5179,5.5179,5.5179,5.5179,5.5179,5.5179,5.5179,5.5179,5.5179,5.5179,5.5179,5.5179,5.5179,5.5059,5.517,5.5088,5.4183,5.4199,5.4405,5.436,5.3945,5.3514,5.3514,5.3008,5.2608,5.2594,5.2608,5.2653,5.2653,5.2653,5.2698,5.2698,5.2698,5.2698,5.2653,0.0,5.2653,5.2653,5.2653,5.2653,5.2698,5.2698,5.2698,5.2698,5.2698,5.2698,5.2698,5.2698,5.2975,5.356,5.3514,5.4145,5.5376,5.5592,5.5992,5.6656,5.6748,5.681,5.681,5.681,5.681,5.681,5.681,5.681,5.681,5.681,5.681,5.681,5.681,5.681,5.681,5.681,5.681,5.681,6.6607,6.6448,6.6258,6.6023,6.5669,6.5289,6.4715,6.427,6.3849,6.3337,6.3194,6.3079,6.3079,6.3079,6.3079,6.3079,6.3079,6.2959,6.266,6.2002,6.1343,6.0685,5.9997,5.9458,5.9129,5.88,5.8471,5.8112,5.7513,5.6855,5.6218,5.5867,5.5538,5.5179,5.5179,5.5179,5.5179,5.5179,5.5179,5.5179,5.5179,5.5179,5.5179,5.5179,5.5179,5.5179,5.5179,5.5179,5.5179,5.5179,5.5179,5.5179,5.5179,5.5179,5.5179,5.5179,5.5381,5.5469,5.4861,5.4874,5.4972,5.4775,5.4437,5.4222,5.4222,5.3976,5.3637,5.3345,5.3252,5.316,5.279,5.2698,5.2698,5.2698,5.2698,0.0,0.0,5.2698,5.2698,5.2698,5.2698,5.2698,5.2698,5.2698,5.2698,5.2698,5.2698,5.2883,5.3252,5.3252,5.356,5.4191,5.4607,5.5068,5.5684,5.6084,5.6471,5.681,5.681,5.681,5.681,5.681,5.681,5.681,5.681,5.681,5.681,5.681,5.681,5.681,5.681,5.681,5.681,5.681,5.681,5.681,6.6953,6.6901,6.6796,6.6533,6.6236,6.5777,6.5156,6.4635,6.4075,6.3481,6.3252,6.3079,6.3079,6.3079,6.3079,6.3079,6.3079,6.3079,6.3079,6.26,6.1972,6.1164,6.0296,5.9608,5.9129,5.9099,5.886,5.8351,5.8201,5.7603,5.6615,5.6466,5.6047,5.5418,5.5418,5.5329,5.5179,5.5179,5.5179,5.5179,5.5179,5.5179,5.5179,5.5179,5.5179,5.5209,5.5359,5.5418,5.5448,5.5568,5.5628,5.5598,5.5478,5.5418,5.5388,5.5239,5.533,5.551,5.5457,5.5498,5.5472,5.522,5.5068,5.4945,5.4945,5.4806,5.4529,5.4006,5.3914,5.3745,5.3067,5.2944,5.2883,5.2729,0.0,0.0,0.0,5.2698,5.2698,5.2698,5.2698,5.2698,5.2698,5.2698,5.2698,5.2698,5.2852,5.3191,5.3637,5.3822,5.4268,5.4898,5.5438,5.5776,5.593,5.6532,5.681,5.681,5.681,5.681,5.681,5.681,5.681,5.681,5.681,5.681,5.681,5.681,5.681,5.681,5.681,5.681,5.681,5.681,5.681,5.684,6.6638,6.6617,6.6533,6.6205,6.5884,6.5429,6.4604,6.4244,6.3823,6.3194,6.3137,6.3079,6.3079,6.3079,6.3079,6.3079,6.3079,6.3079,6.3079,6.3019,6.245,6.1164,5.9877,5.9159,5.9099,5.9099,5.9069,5.9039,5.8411,5.8082,5.7962,5.7334,5.6705,5.6158,5.6158,5.5777,5.5179,5.5179,5.5179,5.5179,5.5179,5.5179,5.5179,5.5179,5.5179,5.5269,5.5867,5.6158,5.6196,5.6765,5.6944,5.6855,5.6286,5.6158,5.5987,5.5359,5.5179,5.533,5.5819,5.6134,5.6378,5.6559,5.6115,5.5622,5.5622,5.5161,5.4683,5.4621,5.4621,5.4406,5.3775,5.3652,5.3437,5.2821,0.0,0.0,5.2698,5.2698,5.2698,5.2698,5.2698,5.2698,5.2698,5.2698,5.2698,5.2698,5.3283,5.3683,5.3714,5.4283,5.4945,5.5592,5.5653,5.6023,5.6717,5.6779,5.681,5.681,5.681,5.681,5.681,5.681,5.681,5.681,5.681,5.681,5.681,5.681,5.681,5.681,5.681,5.681,5.681,5.681,5.681,5.6902,6.6045,6.5991,6.5938,6.5799,6.5561,6.5235,6.474,6.427,6.3793,6.3424,6.3194,6.3079,6.3079,6.3079,6.3079,6.3079,6.3079,6.3079,6.3079,6.3079,6.248,6.1164,5.9817,5.9099,5.9099,5.9099,5.9099,5.9099,5.886,5.853,5.8112,5.7872,5.7393,5.6735,5.6735,5.6615,5.6376,5.6376,5.6376,5.6376,5.6376,5.6376,5.6376,5.6376,5.6376,5.6406,5.6645,5.6735,5.6765,5.7004,5.7094,5.7064,5.6825,5.6735,5.6615,5.5987,5.5508,5.528,5.5631,5.5929,5.6225,5.647,5.6449,5.6361,5.6361,5.6176,5.5869,5.5407,5.5315,5.513,5.4406,5.4314,5.4068,5.3437,0.0,5.3191,5.276,5.2698,5.2698,5.2698,5.2698,5.2698,5.2698,5.3098,5.3345,5.3345,5.3914,5.4514,5.4914,5.5622,5.6115,5.6378,5.6361,5.6532,5.681,5.681,5.681,5.681,5.681,5.681,5.681,5.681,5.681,5.681,5.681,5.681,5.681,5.681,5.681,5.681,5.681,5.681,5.6871,5.7272,5.7426,5.7549,6.518,6.5125,6.5125,6.5125,6.4961,6.4715,6.4437,6.4045,6.3679,6.3424,6.3194,6.3079,6.3079,6.3079,6.3079,6.3079,6.3079,6.3079,6.3079,6.2869,6.2271,6.1164,5.9817,5.9099,5.9099,5.9099,5.9099,5.9099,5.9099,5.886,5.8441,5.8441,5.8082,5.7423,5.7423,5.7304,5.7094,5.7094,5.7094,5.7094,5.7094,5.7094,5.7094,5.7094,5.7094,5.7124,5.7334,5.7423,5.7453,5.7663,5.7723,5.7693,5.7483,5.7274,5.6974,5.6346,5.5837,5.5499,5.5491,5.5681,5.5979,5.6323,5.6616,5.681,5.681,5.681,5.6686,5.6146,5.6023,5.5807,5.5161,5.5037,5.4822,5.4145,5.3976,5.3822,5.3406,5.3345,5.3345,5.3345,5.3345,5.3345,5.3345,5.373,5.3976,5.3976,5.4668,5.5315,5.5992,5.6532,5.681,5.681,5.681,5.681,5.681,5.681,5.681,5.681,5.681,5.681,5.681,5.681,5.681,5.681,5.681,5.681,5.681,5.681,5.681,5.681,5.681,5.6933,5.7179,5.7641,5.79,5.8177,6.4106,6.3993,6.3993,6.3993,6.3993,6.388,6.3538,6.3538,6.3424,6.3137,6.3079,6.3079,6.3079,6.3079,6.3079,6.3079,6.3079,6.3079,6.3079,6.245,6.1792,6.1164,5.9817,5.9099,5.9099,5.9099,5.9099,5.9099,5.9099,5.9099,5.9099,5.9099,5.877,5.8141,5.8141,5.7752,5.7124,5.7124,5.7124,5.7124,5.7124,5.7124,5.7124,5.7124,5.7124,5.7184,5.7872,5.8141,5.8231,5.889,5.9099,5.8979,5.8351,5.7663,5.6974,5.6376,5.6248,5.6047,5.5388,5.5381,5.5731,5.6274,5.6616,5.681,5.681,5.681,5.681,5.681,5.681,5.6594,5.5838,5.5715,5.5499,5.4806,5.4683,5.4683,5.4683,5.4683,5.4683,5.4683,5.4683,5.4683,5.4683,5.4683,5.4683,5.4683,5.5345,5.6023,5.6779,5.681,5.681,5.681,5.681,5.681,5.681,5.681,5.681,5.681,5.681,5.681,5.681,5.681,5.681,5.681,5.681,5.681,5.681,5.681,5.681,5.681,5.681,5.7241,5.7826,5.7826,5.8208,5.8885,6.3424,6.3367,6.3367,6.3367,6.3367,6.3367,6.3252,6.3252,6.3194,6.3137,6.3079,6.3079,6.3079,6.3079,6.3079,6.3079,6.3079,6.3079,6.3079,6.245,6.2002,6.1822,6.0505,5.9578,5.9129,5.9099,5.9099,5.9099,5.9099,5.9099,5.9099,5.9099,5.9009,5.88,5.88,5.871,5.8501,5.8501,5.8501,5.8501,5.8501,5.8501,5.8501,5.8501,5.8501,5.853,5.874,5.88,5.883,5.9039,5.9099,5.9069,5.886,5.8351,5.7782,5.7603,5.7184,5.6675,5.6047,5.6071,5.6254,5.615,5.6323,5.6567,5.6761,5.681,5.681,5.681,5.681,5.6748,5.6532,5.6502,5.6255,5.553,5.5407,5.5253,5.4745,5.4683,5.4683,5.4683,5.4683,5.4683,5.4683,5.513,5.5407,5.5407,5.6053,5.6594,5.681,5.681,5.681,5.681,5.681,5.681,5.681,5.681,5.681,5.681,5.681,5.681,5.681,5.681,5.681,5.681,5.681,5.681,5.681,5.681,5.681,5.681,5.681,5.7241,5.7888,5.835,5.8916,5.9593,6.3538,6.3481,6.3424,6.3309,6.3252,6.3252,6.3137,6.3079,6.3079,6.3079,6.3079,6.3079,6.3079,6.3079,6.3079,6.3079,6.3079,6.3079,6.3079,6.272,6.2361,6.2121,6.1313,6.0446,5.9518,5.9249,5.9099,5.9099,5.9099,5.9099,5.9099,5.9099,5.9099,5.9099,5.9099,5.9099,5.9099,5.9099,5.9099,5.9099,5.9099,5.9099,5.9099,5.9099,5.9099,5.9099,5.9099,5.9099,5.9099,5.9099,5.9099,5.9099,5.9099,5.883,5.8471,5.8201,5.7812,5.7363,5.6705,5.668,5.6736,5.6325,5.6309,5.6421,5.6616,5.6713,5.681,5.681,5.681,5.681,5.681,5.681,5.6656,5.6176,5.6115,5.5992,5.5592,5.553,5.553,5.553,5.553,5.553,5.553,5.5899,5.6115,5.6115,5.6563,5.681,5.681,5.681,5.681,5.681,5.681,5.681,5.681,5.681,5.681,5.681,5.681,5.681,5.681,5.681,5.681,5.681,5.681,5.681,5.681,5.681,5.681,5.684,5.7118,5.7611,5.8288,5.8947,5.9624,6.024,6.4188,6.4132,6.4019,6.3679,6.3622,6.3481,6.3194,6.3137,6.3137,6.3079,6.3079,6.3079,6.3079,6.3079,6.3079,6.3079,6.3079,6.3079,6.3079,6.3079,6.281,6.2211,6.2121,6.1523,6.0296,5.9548,5.9189,5.9189,5.9129,5.9099,5.9099,5.9099,5.9099,5.9099,5.9099,5.9099,5.9099,5.9099,5.9099,5.9099,5.9099,5.9099,5.9099,5.9099,5.9099,5.9099,5.9099,5.9099,5.9099,5.9099,5.9099,5.9099,5.9099,5.9099,5.8979,5.8381,5.8201,5.8052,5.7363,5.7184,5.7086,5.6714,5.6536,5.6476,5.6403,5.6616,5.6761,5.681,5.681,5.681,5.681,5.681,5.681,5.681,5.681,5.681,5.681,5.681,5.681,5.681,5.681,5.681,5.681,5.681,5.681,5.681,5.681,5.681,5.681,5.681,5.681,5.681,5.681,5.681,5.681,5.681,5.681,5.681,5.681,5.681,5.681,5.681,5.681,5.681,5.681,5.681,5.681,5.681,5.681,5.6871,5.7549,5.8177,5.8854,5.9532,6.0209,6.0794,6.5258,6.507,6.4936,6.485,6.4493,6.4101,6.3762,6.3565,6.3367,6.3137,6.3079,6.3079,6.3079,6.3079,6.3079,6.3079,6.3079,6.3079,6.3079,6.3079,6.3019,6.2869,6.2361,6.1942,6.1672,6.0475,5.9877,5.9877,5.9368,5.9099,5.9099,5.9099,5.9099,5.9099,5.9099,5.9099,5.9099,5.9099,5.9099,5.9099,5.9099,5.9099,5.9099,5.9099,5.9099,5.9099,5.9099,5.9099,5.9099,5.9099,5.9099,5.9099,5.9099,5.9099,5.9069,5.8949,5.889,5.874,5.8082,5.7902,5.7752,5.7169,5.7106,5.7102,5.6518,5.647,5.6567,5.6761,5.681,5.681,5.681,5.681,5.681,5.681,5.681,5.681,5.681,5.681,5.681,5.681,5.681,5.681,5.681,5.681,5.681,5.681,5.681,5.681,5.681,5.681,5.681,5.681,5.681,5.681,5.681,5.681,5.681,5.681,5.681,5.681,5.681,5.681,5.681,5.681,5.681,5.681,5.681,5.681,5.681,5.6871,5.7549,5.8177,5.8854,5.9532,6.0209,6.0794,6.6407,6.6226,6.596,6.5853,6.5398,6.4881,6.4407,6.3989,6.3565,6.3367,6.3194,6.3079,6.3079,6.3079,6.3079,6.3079,6.3079,6.3079,6.3079,6.3079,6.3079,6.3079,6.275,6.257,6.257,6.1583,6.0894,6.0565,5.9907,5.9578,5.9578,5.9249,5.9099,5.9099,5.9099,5.9099,5.9099,5.9099,5.9099,5.9099,5.9099,5.9099,5.9099,5.9099,5.9099,5.9099,5.9099,5.9099,5.9099,5.9099,5.9099,5.9099,5.9099,5.9099,5.9099,5.9099,5.9099,5.9039,5.868,5.859,5.8441,5.7752,5.7708,5.7587,5.6687,5.6583,5.6591,5.6433,5.6421,5.647,5.6567,5.6616,5.6664,5.6761,5.681,5.681,5.681,5.681,5.681,5.681,5.681,5.681,5.681,5.681,5.681,5.681,5.681,5.6964,5.7272,5.7303,5.7426,5.7765,5.7765,5.7765,5.7765,5.7765,5.7765,5.7765,5.7457,5.7303,5.7303,5.7641,5.7765,5.7765,5.7765,5.7765,5.7765,5.7765,5.7765,5.7857,5.8454,5.8947,5.9347,6.0024,6.0486,6.0794,6.7599,6.7375,6.7066,6.6806,6.6258,6.5646,6.507,6.4407,6.3876,6.3508,6.3252,6.3079,6.3079,6.3079,6.3079,6.3079,6.3079,6.3079,6.3079,6.3079,6.3079,6.3079,6.3079,6.3079,6.3079,6.254,6.1942,6.1283,6.0595,6.0206,6.0086,5.9518,5.9219,5.9099,5.9099,5.9099,5.9099,5.9099,5.9099,5.9099,5.9099,5.9099,5.9099,5.9099,5.9099,5.9099,5.9099,5.9099,5.9099,5.9099,5.9099,5.9099,5.9099,5.9099,5.9099,5.9099,5.9099,5.9099,5.9099,5.9099,5.8979,5.8441,5.8291,5.8015,5.7075,5.6939,5.69,5.6434,5.6313,5.6382,5.6457,5.6525,5.6592,5.6616,5.6713,5.6713,5.6664,5.6713,5.6713,5.6713,5.6761,5.681,5.681,5.681,5.681,5.681,5.6933,5.7241,5.7795,5.7919,5.8258,5.8762,5.8793,5.8793,5.8793,5.8793,5.8793,5.8762,5.8331,5.8054,5.8011,5.8516,5.8793,5.8793,5.8793,5.8793,5.8793,5.8793,5.8793,5.8854,5.9532,5.9778,5.987,6.0547,6.0794,6.0794,6.8765,6.8401,6.805,6.8,6.713,6.6268,6.57,6.4881,6.4101,6.3565,6.3252,6.3079,6.3079,6.3079,6.3079,6.3079,6.3079,6.3079,6.3079,6.3079,6.3079,6.3079,6.3079,6.3079,6.3079,6.2989,6.263,6.1972,6.1313,6.0685,6.0086,5.9997,5.9638,5.9099,5.9099,5.9099,5.9099,5.9099,5.9099,5.9099,5.9099,5.9099,5.9099,5.9099,5.9099,5.9099,5.9099,5.9099,5.9099,5.9099,5.9099,5.9099,5.9099,5.9099,5.9099,5.9099,5.9099,5.9099,5.9099,5.9099,5.9069,5.9009,5.8979,5.877,5.8075,5.7655,5.7441,5.7607,5.7628,5.7446,5.694,5.6998,5.6946,5.6218,5.6323,5.6372,5.6127,5.6323,5.647,5.647,5.6664,5.681,5.681,5.681,5.681,5.681,5.7364,5.7734,5.7826,5.8331,5.8701,5.8793,5.8793,5.8793,5.8793,5.8793,5.8793,5.8793,5.9285,5.9224,5.8639,5.8731,5.8793,5.8793,5.8793,5.8793,5.8793,5.8793,5.8793,5.8854,5.9532,5.9778,5.987,6.0547,6.0794,6.0794,6.943,6.8994,6.8649,6.8649,6.7746,6.6849,6.6321,6.532,6.4437,6.3849,6.3367,6.3079,6.3079,6.3079,6.3079,6.3079,6.3079,6.3079,6.3079,6.3079,6.3079,6.3079,6.3079,6.3079,6.3079,6.3079,6.2929,6.266,6.2002,6.1313,6.0655,6.0266,5.9727,5.9129,5.9488,5.9668,5.9668,6.0057,5.9997,5.9668,5.9668,5.9428,5.9099,5.9099,5.9099,5.9099,5.9099,5.9099,5.9099,5.9099,5.9099,5.9099,5.9099,5.9099,5.9099,5.9099,5.9099,5.9099,5.9099,5.9099,5.9099,5.9099,5.9099,5.9039,5.874,5.8494,5.8234,5.7557,5.7458,5.7398,5.7251,5.7293,5.7183,5.6616,5.6594,5.6522,5.6058,5.6127,5.6225,5.6372,5.6664,5.6964,5.7333,5.7364,5.7518,5.7919,5.8227,5.8485,5.8885,5.9193,5.9501,5.9901,5.9901,5.9901,5.9901,5.9901,5.9901,5.9901,6.0209,5.9993,5.9347,5.9747,5.9901,5.9901,5.9901,5.9901,5.9901,5.9901,5.9901,5.9932,6.024,6.0363,6.0393,6.0701,6.0794,6.0794]}]]